<?xml version='1.0' encoding='UTF-8'?><gpx version="1.1" creator="JPX - https://github.com/jenetics/jpx" xmlns="http://www.topografix.com/GPX/1/1"><trk><trkseg><trkpt lat="45.67054821860254" lon="11.086260106149057"><ele>1375.0</ele><time>2026-03-23T08:48:34Z</time></trkpt><trkpt lat="45.67042369043601" lon="11.086214395890043"><ele>1375.0</ele><time>2026-03-23T08:48:36Z</time></trkpt><trkpt lat="45.67033485571763" lon="11.086154424189289"><ele>1375.0</ele><time>2026-03-23T08:48:37Z</time></trkpt><trkpt lat="45.670226311428046" lon="11.086096267322956"><ele>1375.0</ele><time>2026-03-23T08:48:38Z</time></trkpt><trkpt lat="45.6700898394673" lon="11.086021454179146"><ele>1373.6666666666665</ele><time>2026-03-23T08:48:39Z</time></trkpt><trkpt lat="45.66995144314895" lon="11.085945574978968"><ele>1372.3333333333333</ele><time>2026-03-23T08:48:40Z</time></trkpt><trkpt lat="45.669802991085135" lon="11.085861626914348"><ele>1371.0</ele><time>2026-03-23T08:48:41Z</time></trkpt><trkpt lat="45.669648512582" lon="11.085776371471571"><ele>1364.6666666666667</ele><time>2026-03-23T08:48:42Z</time></trkpt><trkpt lat="45.669495986653274" lon="11.085708215717142"><ele>1358.3333333333335</ele><time>2026-03-23T08:48:43Z</time></trkpt><trkpt lat="45.66933248177096" lon="11.085671591792192"><ele>1352.0</ele><time>2026-03-23T08:48:44Z</time></trkpt><trkpt lat="45.66916512650428" lon="11.085660394986114"><ele>1350.6666666666667</ele><time>2026-03-23T08:48:45Z</time></trkpt><trkpt lat="45.668998171805995" lon="11.085679072661103"><ele>1349.3333333333333</ele><time>2026-03-23T08:48:46Z</time></trkpt><trkpt lat="45.66884473827468" lon="11.085725892862921"><ele>1348.0</ele><time>2026-03-23T08:48:47Z</time></trkpt><trkpt lat="45.66868511305634" lon="11.085763825153508"><ele>1354.3333333333333</ele><time>2026-03-23T08:48:48Z</time></trkpt><trkpt lat="45.668525270092296" lon="11.085791492611069"><ele>1360.6666666666667</ele><time>2026-03-23T08:48:49Z</time></trkpt><trkpt lat="45.66836585289427" lon="11.085809735568615"><ele>1367.0</ele><time>2026-03-23T08:48:50Z</time></trkpt><trkpt lat="45.66821059724262" lon="11.085837686234518"><ele>1367.0</ele><time>2026-03-23T08:48:51Z</time></trkpt><trkpt lat="45.668052627165544" lon="11.08586140456398"><ele>1367.0</ele><time>2026-03-23T08:48:52Z</time></trkpt><trkpt lat="45.66789475672226" lon="11.085881564758731"><ele>1367.0</ele><time>2026-03-23T08:48:53Z</time></trkpt><trkpt lat="45.667733104488306" lon="11.085862209978094"><ele>1367.3333333333335</ele><time>2026-03-23T08:48:54Z</time></trkpt><trkpt lat="45.667575011301444" lon="11.085868526925811"><ele>1367.6666666666667</ele><time>2026-03-23T08:48:55Z</time></trkpt><trkpt lat="45.66741873724749" lon="11.085838447685976"><ele>1368.0</ele><time>2026-03-23T08:48:56Z</time></trkpt><trkpt lat="45.66726367964654" lon="11.08580830575113"><ele>1368.0</ele><time>2026-03-23T08:48:57Z</time></trkpt><trkpt lat="45.667103042933604" lon="11.085778798707203"><ele>1368.0</ele><time>2026-03-23T08:48:58Z</time></trkpt><trkpt lat="45.66693654915511" lon="11.085761321563512"><ele>1368.0</ele><time>2026-03-23T08:48:59Z</time></trkpt><trkpt lat="45.66676937483489" lon="11.08574201925768"><ele>1363.0</ele><time>2026-03-23T08:49:00Z</time></trkpt><trkpt lat="45.666601639055415" lon="11.085708239084871"><ele>1358.0</ele><time>2026-03-23T08:49:01Z</time></trkpt><trkpt lat="45.66644939459793" lon="11.085676487184537"><ele>1353.0</ele><time>2026-03-23T08:49:02Z</time></trkpt><trkpt lat="45.66628962449717" lon="11.085655713901373"><ele>1353.0</ele><time>2026-03-23T08:49:03Z</time></trkpt><trkpt lat="45.6661277846096" lon="11.085641678990385"><ele>1353.0</ele><time>2026-03-23T08:49:04Z</time></trkpt><trkpt lat="45.665962155413965" lon="11.085617294647761"><ele>1353.0</ele><time>2026-03-23T08:49:05Z</time></trkpt><trkpt lat="45.66579896098281" lon="11.085591962570097"><ele>1354.6666666666667</ele><time>2026-03-23T08:49:06Z</time></trkpt><trkpt lat="45.66564073730029" lon="11.08557256208526"><ele>1356.3333333333335</ele><time>2026-03-23T08:49:07Z</time></trkpt><trkpt lat="45.665473305200095" lon="11.085543923522415"><ele>1358.0</ele><time>2026-03-23T08:49:08Z</time></trkpt><trkpt lat="45.6652834901556" lon="11.085520249248338"><ele>1361.0</ele><time>2026-03-23T08:49:09Z</time></trkpt><trkpt lat="45.6651025318369" lon="11.08549219948853"><ele>1364.0</ele><time>2026-03-23T08:49:10Z</time></trkpt><trkpt lat="45.664927794090815" lon="11.08546623851489"><ele>1367.0</ele><time>2026-03-23T08:49:11Z</time></trkpt><trkpt lat="45.664753745167424" lon="11.085440204362593"><ele>1367.0</ele><time>2026-03-23T08:49:12Z</time></trkpt><trkpt lat="45.664581538612595" lon="11.085418581553714"><ele>1367.0</ele><time>2026-03-23T08:49:13Z</time></trkpt><trkpt lat="45.664414529568674" lon="11.085392376180558"><ele>1367.0</ele><time>2026-03-23T08:49:14Z</time></trkpt><trkpt lat="45.664242643858294" lon="11.085363538437369"><ele>1368.3333333333335</ele><time>2026-03-23T08:49:15Z</time></trkpt><trkpt lat="45.664071794285334" lon="11.085335502800078"><ele>1369.6666666666667</ele><time>2026-03-23T08:49:16Z</time></trkpt><trkpt lat="45.66389940047702" lon="11.085308115500254"><ele>1371.0</ele><time>2026-03-23T08:49:17Z</time></trkpt><trkpt lat="45.663724193352095" lon="11.085280487195295"><ele>1372.6666666666667</ele><time>2026-03-23T08:49:18Z</time></trkpt><trkpt lat="45.66354594916699" lon="11.085255384128345"><ele>1374.3333333333335</ele><time>2026-03-23T08:49:19Z</time></trkpt><trkpt lat="45.66336859207367" lon="11.08522924412399"><ele>1376.0</ele><time>2026-03-23T08:49:20Z</time></trkpt><trkpt lat="45.66318953409553" lon="11.085201474205018"><ele>1376.0</ele><time>2026-03-23T08:49:21Z</time></trkpt><trkpt lat="45.66301134035613" lon="11.085173949664405"><ele>1376.0</ele><time>2026-03-23T08:49:22Z</time></trkpt><trkpt lat="45.66283275615443" lon="11.08515062823024"><ele>1376.0</ele><time>2026-03-23T08:49:23Z</time></trkpt><trkpt lat="45.66265725721347" lon="11.085124266976726"><ele>1377.3333333333335</ele><time>2026-03-23T08:49:24Z</time></trkpt><trkpt lat="45.662482145498586" lon="11.085097163597148"><ele>1378.6666666666667</ele><time>2026-03-23T08:49:25Z</time></trkpt><trkpt lat="45.66230836869055" lon="11.085067273184793"><ele>1380.0</ele><time>2026-03-23T08:49:26Z</time></trkpt><trkpt lat="45.662141155438846" lon="11.085044225410007"><ele>1380.0</ele><time>2026-03-23T08:49:27Z</time></trkpt><trkpt lat="45.661970530522225" lon="11.085030297644815"><ele>1380.0</ele><time>2026-03-23T08:49:28Z</time></trkpt><trkpt lat="45.661803978353305" lon="11.08502464369918"><ele>1380.0</ele><time>2026-03-23T08:49:29Z</time></trkpt><trkpt lat="45.66163639020363" lon="11.085015409203702"><ele>1382.6666666666667</ele><time>2026-03-23T08:49:30Z</time></trkpt><trkpt lat="45.661476429089824" lon="11.085005544566881"><ele>1385.3333333333335</ele><time>2026-03-23T08:49:31Z</time></trkpt><trkpt lat="45.66132662173987" lon="11.085008097211107"><ele>1388.0</ele><time>2026-03-23T08:49:32Z</time></trkpt><trkpt lat="45.661177024689806" lon="11.08504510237166"><ele>1388.3333333333335</ele><time>2026-03-23T08:49:33Z</time></trkpt><trkpt lat="45.66100751139897" lon="11.085133672697639"><ele>1388.6666666666667</ele><time>2026-03-23T08:49:34Z</time></trkpt><trkpt lat="45.66082209194489" lon="11.085259713644806"><ele>1389.0</ele><time>2026-03-23T08:49:35Z</time></trkpt><trkpt lat="45.660628839150924" lon="11.085416163687684"><ele>1389.0</ele><time>2026-03-23T08:49:36Z</time></trkpt><trkpt lat="45.660435613838914" lon="11.085545664426244"><ele>1389.0</ele><time>2026-03-23T08:49:37Z</time></trkpt><trkpt lat="45.66025374760287" lon="11.085670205084968"><ele>1389.0</ele><time>2026-03-23T08:49:38Z</time></trkpt><trkpt lat="45.660078055833566" lon="11.085823864341943"><ele>1389.0</ele><time>2026-03-23T08:49:39Z</time></trkpt><trkpt lat="45.65988079927483" lon="11.086011668735797"><ele>1389.0</ele><time>2026-03-23T08:49:40Z</time></trkpt><trkpt lat="45.659665598212946" lon="11.08620318257155"><ele>1389.0</ele><time>2026-03-23T08:49:41Z</time></trkpt><trkpt lat="45.659460599316056" lon="11.086377132432276"><ele>1389.0</ele><time>2026-03-23T08:49:42Z</time></trkpt><trkpt lat="45.65926947597598" lon="11.086544589721512"><ele>1387.3333333333333</ele><time>2026-03-23T08:49:43Z</time></trkpt><trkpt lat="45.65908341680969" lon="11.086706852206772"><ele>1385.6666666666665</ele><time>2026-03-23T08:49:44Z</time></trkpt><trkpt lat="45.65890399616925" lon="11.086864372904904"><ele>1384.0</ele><time>2026-03-23T08:49:45Z</time></trkpt><trkpt lat="45.65872345895837" lon="11.0870195001525"><ele>1384.6666666666665</ele><time>2026-03-23T08:49:46Z</time></trkpt><trkpt lat="45.65854130876512" lon="11.087169870807347"><ele>1385.3333333333333</ele><time>2026-03-23T08:49:47Z</time></trkpt><trkpt lat="45.65837192297817" lon="11.087314924307494"><ele>1386.0</ele><time>2026-03-23T08:49:48Z</time></trkpt><trkpt lat="45.658224732122534" lon="11.087477042655161"><ele>1386.0</ele><time>2026-03-23T08:49:49Z</time></trkpt><trkpt lat="45.65809075958118" lon="11.08766335443978"><ele>1386.0</ele><time>2026-03-23T08:49:50Z</time></trkpt><trkpt lat="45.65797601672684" lon="11.087828441585005"><ele>1386.0</ele><time>2026-03-23T08:49:51Z</time></trkpt><trkpt lat="45.657859271935244" lon="11.087978135803981"><ele>1386.5</ele><time>2026-03-23T08:49:52Z</time></trkpt><trkpt lat="45.65776041589618" lon="11.08813501728104"><ele>1387.0</ele><time>2026-03-23T08:49:53Z</time></trkpt><trkpt lat="45.65769136142476" lon="11.088302538122333"><ele>1387.5</ele><time>2026-03-23T08:49:54Z</time></trkpt><trkpt lat="45.657653032279875" lon="11.08848461271166"><ele>1388.0</ele><time>2026-03-23T08:49:55Z</time></trkpt><trkpt lat="45.65764536379448" lon="11.088691399964608"><ele>1388.0</ele><time>2026-03-23T08:49:56Z</time></trkpt><trkpt lat="45.65766519802731" lon="11.088914851265796"><ele>1388.0</ele><time>2026-03-23T08:49:57Z</time></trkpt><trkpt lat="45.65770524336516" lon="11.089137076930307"><ele>1388.0</ele><time>2026-03-23T08:49:58Z</time></trkpt><trkpt lat="45.657776048914634" lon="11.089373700681525"><ele>1390.3333333333335</ele><time>2026-03-23T08:49:59Z</time></trkpt><trkpt lat="45.65785240407061" lon="11.089614380958299"><ele>1392.6666666666667</ele><time>2026-03-23T08:50:00Z</time></trkpt><trkpt lat="45.65791608828462" lon="11.089880476698685"><ele>1395.0</ele><time>2026-03-23T08:50:01Z</time></trkpt><trkpt lat="45.657972412844636" lon="11.090153597257753"><ele>1395.0</ele><time>2026-03-23T08:50:02Z</time></trkpt><trkpt lat="45.658024751107064" lon="11.090413499822775"><ele>1395.0</ele><time>2026-03-23T08:50:03Z</time></trkpt><trkpt lat="45.65806278738475" lon="11.090663231548909"><ele>1395.0</ele><time>2026-03-23T08:50:04Z</time></trkpt><trkpt lat="45.65808926772738" lon="11.090916917708812"><ele>1392.0</ele><time>2026-03-23T08:50:05Z</time></trkpt><trkpt lat="45.65811136137209" lon="11.091157671583737"><ele>1389.0</ele><time>2026-03-23T08:50:06Z</time></trkpt><trkpt lat="45.658132081896035" lon="11.091382197731553"><ele>1386.0</ele><time>2026-03-23T08:50:07Z</time></trkpt><trkpt lat="45.658156017287865" lon="11.091592351195269"><ele>1386.0</ele><time>2026-03-23T08:50:08Z</time></trkpt><trkpt lat="45.65819051874819" lon="11.091786967865762"><ele>1386.0</ele><time>2026-03-23T08:50:09Z</time></trkpt><trkpt lat="45.65821937849474" lon="11.091973697037936"><ele>1386.0</ele><time>2026-03-23T08:50:10Z</time></trkpt><trkpt lat="45.65823511881581" lon="11.092147961221233"><ele>1386.0</ele><time>2026-03-23T08:50:11Z</time></trkpt><trkpt lat="45.658219106652936" lon="11.092310320995995"><ele>1385.6</ele><time>2026-03-23T08:50:12Z</time></trkpt><trkpt lat="45.6581777707363" lon="11.092452943383707"><ele>1385.1999999999998</ele><time>2026-03-23T08:50:13Z</time></trkpt><trkpt lat="45.65810259611412" lon="11.092570630106314"><ele>1384.8000000000002</ele><time>2026-03-23T08:50:14Z</time></trkpt><trkpt lat="45.65800285196631" lon="11.092654123701307"><ele>1384.4</ele><time>2026-03-23T08:50:15Z</time></trkpt><trkpt lat="45.657896702838144" lon="11.092653840994165"><ele>1384.0</ele><time>2026-03-23T08:50:16Z</time></trkpt><trkpt lat="45.657795868403255" lon="11.092631624856184"><ele>1384.0</ele><time>2026-03-23T08:50:17Z</time></trkpt><trkpt lat="45.65767831113896" lon="11.092553517655285"><ele>1384.0</ele><time>2026-03-23T08:50:18Z</time></trkpt><trkpt lat="45.65753978016217" lon="11.092463992650044"><ele>1384.0</ele><time>2026-03-23T08:50:19Z</time></trkpt><trkpt lat="45.65739436216035" lon="11.092350872998832"><ele>1384.0</ele><time>2026-03-23T08:50:20Z</time></trkpt><trkpt lat="45.657247346456515" lon="11.092259297051427"><ele>1384.6666666666665</ele><time>2026-03-23T08:50:21Z</time></trkpt><trkpt lat="45.65709672550166" lon="11.092172595110691"><ele>1385.3333333333333</ele><time>2026-03-23T08:50:22Z</time></trkpt><trkpt lat="45.65693016568967" lon="11.092118836290881"><ele>1386.0</ele><time>2026-03-23T08:50:23Z</time></trkpt><trkpt lat="45.65675275393737" lon="11.092086165492676"><ele>1386.0</ele><time>2026-03-23T08:50:24Z</time></trkpt><trkpt lat="45.65656294468378" lon="11.09207185206387"><ele>1386.0</ele><time>2026-03-23T08:50:25Z</time></trkpt><trkpt lat="45.656369749126476" lon="11.092045488671722"><ele>1386.0</ele><time>2026-03-23T08:50:26Z</time></trkpt><trkpt lat="45.65620932219823" lon="11.091993988890916"><ele>1387.75</ele><time>2026-03-23T08:50:27Z</time></trkpt><trkpt lat="45.65607866881235" lon="11.091924015667372"><ele>1389.5</ele><time>2026-03-23T08:50:28Z</time></trkpt><trkpt lat="45.655970534903794" lon="11.091876538478658"><ele>1391.25</ele><time>2026-03-23T08:50:29Z</time></trkpt><trkpt lat="45.655846521839806" lon="11.091871525824116"><ele>1393.0</ele><time>2026-03-23T08:50:30Z</time></trkpt><trkpt lat="45.655720963907704" lon="11.091920740396468"><ele>1393.0</ele><time>2026-03-23T08:50:31Z</time></trkpt><trkpt lat="45.6555988703896" lon="11.092012314710365"><ele>1393.0</ele><time>2026-03-23T08:50:32Z</time></trkpt><trkpt lat="45.655491105554944" lon="11.092139756240678"><ele>1393.0</ele><time>2026-03-23T08:50:33Z</time></trkpt><trkpt lat="45.655389980112446" lon="11.09229404700177"><ele>1393.0</ele><time>2026-03-23T08:50:34Z</time></trkpt><trkpt lat="45.655317471565354" lon="11.092467899425678"><ele>1392.6666666666665</ele><time>2026-03-23T08:50:35Z</time></trkpt><trkpt lat="45.65526750664374" lon="11.092669188903912"><ele>1392.3333333333333</ele><time>2026-03-23T08:50:36Z</time></trkpt><trkpt lat="45.655249268128074" lon="11.092884273018862"><ele>1392.0</ele><time>2026-03-23T08:50:37Z</time></trkpt><trkpt lat="45.655251615087046" lon="11.093100824302542"><ele>1394.75</ele><time>2026-03-23T08:50:38Z</time></trkpt><trkpt lat="45.655239522040894" lon="11.09328357105491"><ele>1397.5</ele><time>2026-03-23T08:50:39Z</time></trkpt><trkpt lat="45.65518078113668" lon="11.093449909700556"><ele>1400.25</ele><time>2026-03-23T08:50:40Z</time></trkpt><trkpt lat="45.65506260792959" lon="11.093554147274242"><ele>1403.0</ele><time>2026-03-23T08:50:41Z</time></trkpt><trkpt lat="45.654929469652686" lon="11.093634901304318"><ele>1403.0</ele><time>2026-03-23T08:50:42Z</time></trkpt><trkpt lat="45.65476191488838" lon="11.093741574700783"><ele>1403.0</ele><time>2026-03-23T08:50:43Z</time></trkpt><trkpt lat="45.65458216931528" lon="11.09381712926183"><ele>1403.0</ele><time>2026-03-23T08:50:44Z</time></trkpt><trkpt lat="45.65441929675812" lon="11.093904621090559"><ele>1404.3333333333335</ele><time>2026-03-23T08:50:45Z</time></trkpt><trkpt lat="45.65426257831324" lon="11.093995638559655"><ele>1405.6666666666667</ele><time>2026-03-23T08:50:46Z</time></trkpt><trkpt lat="45.65410897369757" lon="11.094076193427158"><ele>1407.0</ele><time>2026-03-23T08:50:47Z</time></trkpt><trkpt lat="45.65395235856936" lon="11.094157273781692"><ele>1407.0</ele><time>2026-03-23T08:50:48Z</time></trkpt><trkpt lat="45.65379631384467" lon="11.09423689546626"><ele>1407.0</ele><time>2026-03-23T08:50:49Z</time></trkpt><trkpt lat="45.653637307299576" lon="11.094291288455455"><ele>1407.0</ele><time>2026-03-23T08:50:50Z</time></trkpt><trkpt lat="45.65346627374609" lon="11.094319825013633"><ele>1405.6666666666667</ele><time>2026-03-23T08:50:51Z</time></trkpt><trkpt lat="45.65329164013522" lon="11.094338614062101"><ele>1404.3333333333335</ele><time>2026-03-23T08:50:52Z</time></trkpt><trkpt lat="45.65312337581162" lon="11.094349048921215"><ele>1403.0</ele><time>2026-03-23T08:50:53Z</time></trkpt><trkpt lat="45.65295306458803" lon="11.094350539599422"><ele>1403.6666666666667</ele><time>2026-03-23T08:50:54Z</time></trkpt><trkpt lat="45.65275557197662" lon="11.094357475047458"><ele>1404.3333333333333</ele><time>2026-03-23T08:50:55Z</time></trkpt><trkpt lat="45.652565953657586" lon="11.094375692625496"><ele>1405.0</ele><time>2026-03-23T08:50:56Z</time></trkpt><trkpt lat="45.65239727762314" lon="11.094401534089148"><ele>1405.0</ele><time>2026-03-23T08:50:57Z</time></trkpt><trkpt lat="45.652243160198985" lon="11.094400777038336"><ele>1405.0</ele><time>2026-03-23T08:50:58Z</time></trkpt><trkpt lat="45.652088540549386" lon="11.094400598731259"><ele>1405.0</ele><time>2026-03-23T08:50:59Z</time></trkpt><trkpt lat="45.651933270881614" lon="11.09438120028655"><ele>1405.0</ele><time>2026-03-23T08:51:00Z</time></trkpt><trkpt lat="45.65177556980265" lon="11.094375955735643"><ele>1405.0</ele><time>2026-03-23T08:51:01Z</time></trkpt><trkpt lat="45.651637328293106" lon="11.094337324694104"><ele>1405.0</ele><time>2026-03-23T08:51:02Z</time></trkpt><trkpt lat="45.651512096169526" lon="11.094316005884298"><ele>1405.0</ele><time>2026-03-23T08:51:03Z</time></trkpt><trkpt lat="45.65138381694098" lon="11.094309725417585"><ele>1405.0</ele><time>2026-03-23T08:51:04Z</time></trkpt><trkpt lat="45.65124919367093" lon="11.094355370376599"><ele>1405.0</ele><time>2026-03-23T08:51:05Z</time></trkpt><trkpt lat="45.651119076270376" lon="11.094400520959855"><ele>1405.0</ele><time>2026-03-23T08:51:06Z</time></trkpt><trkpt lat="45.65100422747354" lon="11.094481640406883"><ele>1405.0</ele><time>2026-03-23T08:51:07Z</time></trkpt><trkpt lat="45.650860569624584" lon="11.094615800805006"><ele>1404.0</ele><time>2026-03-23T08:51:08Z</time></trkpt><trkpt lat="45.65076487490529" lon="11.094752852086286"><ele>1403.0</ele><time>2026-03-23T08:51:09Z</time></trkpt><trkpt lat="45.65065756204767" lon="11.094830570105799"><ele>1402.0</ele><time>2026-03-23T08:51:10Z</time></trkpt><trkpt lat="45.65054978786256" lon="11.094888642624692"><ele>1401.0</ele><time>2026-03-23T08:51:11Z</time></trkpt><trkpt lat="45.650435386190644" lon="11.094897760942771"><ele>1401.0</ele><time>2026-03-23T08:51:12Z</time></trkpt><trkpt lat="45.65031001957231" lon="11.094880797542316"><ele>1401.0</ele><time>2026-03-23T08:51:13Z</time></trkpt><trkpt lat="45.650180775506065" lon="11.094813816550005"><ele>1401.0</ele><time>2026-03-23T08:51:14Z</time></trkpt><trkpt lat="45.65003534578116" lon="11.094751734638"><ele>1401.0</ele><time>2026-03-23T08:51:15Z</time></trkpt><trkpt lat="45.64987839219609" lon="11.094711496614568"><ele>1398.6666666666667</ele><time>2026-03-23T08:51:16Z</time></trkpt><trkpt lat="45.649730118468604" lon="11.09466964961202"><ele>1396.3333333333335</ele><time>2026-03-23T08:51:17Z</time></trkpt><trkpt lat="45.64957371388718" lon="11.094662456172133"><ele>1394.0</ele><time>2026-03-23T08:51:18Z</time></trkpt><trkpt lat="45.649405985978" lon="11.094683405551296"><ele>1390.6666666666667</ele><time>2026-03-23T08:51:19Z</time></trkpt><trkpt lat="45.64924290023462" lon="11.094738405875413"><ele>1387.3333333333333</ele><time>2026-03-23T08:51:20Z</time></trkpt><trkpt lat="45.64908481334126" lon="11.094821457036396"><ele>1384.0</ele><time>2026-03-23T08:51:21Z</time></trkpt><trkpt lat="45.64892268670842" lon="11.0948601792816"><ele>1384.3333333333333</ele><time>2026-03-23T08:51:22Z</time></trkpt><trkpt lat="45.648770047613105" lon="11.094928355310177"><ele>1384.6666666666667</ele><time>2026-03-23T08:51:23Z</time></trkpt><trkpt lat="45.648606605287235" lon="11.094963710652497"><ele>1385.0</ele><time>2026-03-23T08:51:24Z</time></trkpt><trkpt lat="45.64844719895617" lon="11.09496438378733"><ele>1384.6666666666667</ele><time>2026-03-23T08:51:25Z</time></trkpt><trkpt lat="45.64829254180326" lon="11.094931121246194"><ele>1384.3333333333333</ele><time>2026-03-23T08:51:26Z</time></trkpt><trkpt lat="45.648134654398966" lon="11.09488588417415"><ele>1384.0</ele><time>2026-03-23T08:51:27Z</time></trkpt><trkpt lat="45.64797368948814" lon="11.094845364955873"><ele>1384.0</ele><time>2026-03-23T08:51:28Z</time></trkpt><trkpt lat="45.64781769405624" lon="11.094831189131567"><ele>1384.0</ele><time>2026-03-23T08:51:29Z</time></trkpt><trkpt lat="45.64766863320401" lon="11.094804688332973"><ele>1384.0</ele><time>2026-03-23T08:51:30Z</time></trkpt><trkpt lat="45.647512696710855" lon="11.094804442108723"><ele>1383.0</ele><time>2026-03-23T08:51:31Z</time></trkpt><trkpt lat="45.64735910680203" lon="11.094816850201868"><ele>1382.0</ele><time>2026-03-23T08:51:32Z</time></trkpt><trkpt lat="45.64721074792329" lon="11.09484633192709"><ele>1381.0</ele><time>2026-03-23T08:51:33Z</time></trkpt><trkpt lat="45.64706069031146" lon="11.09486236383957"><ele>1384.5</ele><time>2026-03-23T08:51:34Z</time></trkpt><trkpt lat="45.64692007850744" lon="11.09487017105863"><ele>1388.0</ele><time>2026-03-23T08:51:35Z</time></trkpt><trkpt lat="45.64679360721719" lon="11.094876899380424"><ele>1391.5</ele><time>2026-03-23T08:51:36Z</time></trkpt><trkpt lat="45.64667679989723" lon="11.094847831860909"><ele>1395.0</ele><time>2026-03-23T08:51:37Z</time></trkpt><trkpt lat="45.64656315554999" lon="11.094772972726412"><ele>1395.0</ele><time>2026-03-23T08:51:38Z</time></trkpt><trkpt lat="45.64648244361534" lon="11.094618993817448"><ele>1395.0</ele><time>2026-03-23T08:51:39Z</time></trkpt><trkpt lat="45.64641876960723" lon="11.094447438580575"><ele>1395.0</ele><time>2026-03-23T08:51:40Z</time></trkpt><trkpt lat="45.64635416373915" lon="11.094252299403871"><ele>1395.0</ele><time>2026-03-23T08:51:41Z</time></trkpt><trkpt lat="45.64630732500674" lon="11.094062982062312"><ele>1394.6666666666667</ele><time>2026-03-23T08:51:42Z</time></trkpt><trkpt lat="45.6462204986515" lon="11.09388411560482"><ele>1394.3333333333335</ele><time>2026-03-23T08:51:43Z</time></trkpt><trkpt lat="45.64610160509442" lon="11.093702948139313"><ele>1394.0</ele><time>2026-03-23T08:51:44Z</time></trkpt><trkpt lat="45.645962861948" lon="11.093538100541707"><ele>1393.6666666666667</ele><time>2026-03-23T08:51:45Z</time></trkpt><trkpt lat="45.645832325273425" lon="11.09337798572666"><ele>1393.3333333333333</ele><time>2026-03-23T08:51:46Z</time></trkpt><trkpt lat="45.645719621561604" lon="11.093187070713887"><ele>1393.0</ele><time>2026-03-23T08:51:47Z</time></trkpt><trkpt lat="45.645615163651506" lon="11.092996723704763"><ele>1393.0</ele><time>2026-03-23T08:51:48Z</time></trkpt><trkpt lat="45.645524939319095" lon="11.092814707006676"><ele>1393.0</ele><time>2026-03-23T08:51:49Z</time></trkpt><trkpt lat="45.64544038677429" lon="11.092635053954863"><ele>1393.0</ele><time>2026-03-23T08:51:50Z</time></trkpt><trkpt lat="45.64535994879033" lon="11.09246549334669"><ele>1393.25</ele><time>2026-03-23T08:51:51Z</time></trkpt><trkpt lat="45.64527568520565" lon="11.092313291570608"><ele>1393.5</ele><time>2026-03-23T08:51:52Z</time></trkpt><trkpt lat="45.64519464086673" lon="11.092160896021952"><ele>1393.75</ele><time>2026-03-23T08:51:53Z</time></trkpt><trkpt lat="45.645107822908486" lon="11.092018515651182"><ele>1394.0</ele><time>2026-03-23T08:51:54Z</time></trkpt><trkpt lat="45.64501471353978" lon="11.091856920980899"><ele>1394.0</ele><time>2026-03-23T08:51:55Z</time></trkpt><trkpt lat="45.64490491327196" lon="11.091726571046507"><ele>1394.0</ele><time>2026-03-23T08:51:56Z</time></trkpt><trkpt lat="45.64477598834628" lon="11.091632736489482"><ele>1394.0</ele><time>2026-03-23T08:51:57Z</time></trkpt><trkpt lat="45.64465666345007" lon="11.091558609417598"><ele>1394.0</ele><time>2026-03-23T08:51:58Z</time></trkpt><trkpt lat="45.64451532438151" lon="11.091509113857718"><ele>1392.0</ele><time>2026-03-23T08:51:59Z</time></trkpt><trkpt lat="45.64436963413051" lon="11.091494264352631"><ele>1390.0</ele><time>2026-03-23T08:52:00Z</time></trkpt><trkpt lat="45.64421601031515" lon="11.091494780025222"><ele>1388.0</ele><time>2026-03-23T08:52:01Z</time></trkpt><trkpt lat="45.644070273928314" lon="11.091451398535083"><ele>1386.0</ele><time>2026-03-23T08:52:02Z</time></trkpt><trkpt lat="45.643921198773405" lon="11.091366969240253"><ele>1386.0</ele><time>2026-03-23T08:52:03Z</time></trkpt><trkpt lat="45.64376633979263" lon="11.091289926807523"><ele>1386.0</ele><time>2026-03-23T08:52:04Z</time></trkpt><trkpt lat="45.64362381216712" lon="11.091216173214347"><ele>1386.0</ele><time>2026-03-23T08:52:05Z</time></trkpt><trkpt lat="45.643468574486874" lon="11.091150066535727"><ele>1382.0</ele><time>2026-03-23T08:52:06Z</time></trkpt><trkpt lat="45.643305192357914" lon="11.09107889858984"><ele>1378.0</ele><time>2026-03-23T08:52:07Z</time></trkpt><trkpt lat="45.64314785686993" lon="11.091014265425697"><ele>1374.0</ele><time>2026-03-23T08:52:08Z</time></trkpt><trkpt lat="45.64298979818647" lon="11.090944467083268"><ele>1374.0</ele><time>2026-03-23T08:52:09Z</time></trkpt><trkpt lat="45.64283794082099" lon="11.090891774147542"><ele>1374.0</ele><time>2026-03-23T08:52:10Z</time></trkpt><trkpt lat="45.64266041586465" lon="11.090843624145279"><ele>1374.0</ele><time>2026-03-23T08:52:11Z</time></trkpt><trkpt lat="45.64248157470573" lon="11.090812748247481"><ele>1370.0</ele><time>2026-03-23T08:52:12Z</time></trkpt><trkpt lat="45.64230501531675" lon="11.090784875366198"><ele>1366.0</ele><time>2026-03-23T08:52:13Z</time></trkpt><trkpt lat="45.64213270131939" lon="11.090749627534823"><ele>1362.0</ele><time>2026-03-23T08:52:14Z</time></trkpt><trkpt lat="45.641964837457465" lon="11.090703226859107"><ele>1357.6666666666667</ele><time>2026-03-23T08:52:15Z</time></trkpt><trkpt lat="45.64179725645526" lon="11.09064797979097"><ele>1353.3333333333335</ele><time>2026-03-23T08:52:16Z</time></trkpt><trkpt lat="45.64163518200389" lon="11.090572049239986"><ele>1349.0</ele><time>2026-03-23T08:52:17Z</time></trkpt><trkpt lat="45.64148228291345" lon="11.090477079228236"><ele>1349.0</ele><time>2026-03-23T08:52:18Z</time></trkpt><trkpt lat="45.64133319246394" lon="11.09038857487857"><ele>1349.0</ele><time>2026-03-23T08:52:19Z</time></trkpt><trkpt lat="45.641181138803944" lon="11.090308217875762"><ele>1349.0</ele><time>2026-03-23T08:52:20Z</time></trkpt><trkpt lat="45.64103487362766" lon="11.090227286112452"><ele>1347.5</ele><time>2026-03-23T08:52:21Z</time></trkpt><trkpt lat="45.64089984191009" lon="11.090149785124014"><ele>1346.0</ele><time>2026-03-23T08:52:22Z</time></trkpt><trkpt lat="45.64077259465922" lon="11.090078843499345"><ele>1344.5</ele><time>2026-03-23T08:52:23Z</time></trkpt><trkpt lat="45.64065765470345" lon="11.08999735367563"><ele>1343.0</ele><time>2026-03-23T08:52:24Z</time></trkpt><trkpt lat="45.64058210691544" lon="11.08986490563629"><ele>1339.75</ele><time>2026-03-23T08:52:25Z</time></trkpt><trkpt lat="45.64053116253968" lon="11.089715057661468"><ele>1336.5</ele><time>2026-03-23T08:52:26Z</time></trkpt><trkpt lat="45.64051117972547" lon="11.089526096463024"><ele>1333.25</ele><time>2026-03-23T08:52:27Z</time></trkpt><trkpt lat="45.64049249701815" lon="11.089303488298086"><ele>1330.0</ele><time>2026-03-23T08:52:28Z</time></trkpt><trkpt lat="45.64048050335753" lon="11.089092013952603"><ele>1328.25</ele><time>2026-03-23T08:52:29Z</time></trkpt><trkpt lat="45.640441323966606" lon="11.088936111014677"><ele>1326.5</ele><time>2026-03-23T08:52:30Z</time></trkpt><trkpt lat="45.6403713914668" lon="11.088816839164364"><ele>1324.75</ele><time>2026-03-23T08:52:31Z</time></trkpt><trkpt lat="45.64027407502995" lon="11.088752526069822"><ele>1323.0</ele><time>2026-03-23T08:52:32Z</time></trkpt><trkpt lat="45.64015503509646" lon="11.088757595855707"><ele>1323.0</ele><time>2026-03-23T08:52:33Z</time></trkpt><trkpt lat="45.64002242584808" lon="11.088825363384199"><ele>1323.0</ele><time>2026-03-23T08:52:34Z</time></trkpt><trkpt lat="45.639869302561635" lon="11.088876289803823"><ele>1323.0</ele><time>2026-03-23T08:52:35Z</time></trkpt><trkpt lat="45.639725899694845" lon="11.088885230907929"><ele>1323.0</ele><time>2026-03-23T08:52:36Z</time></trkpt><trkpt lat="45.63960250974754" lon="11.088857352965773"><ele>1323.0</ele><time>2026-03-23T08:52:37Z</time></trkpt><trkpt lat="45.63949493702099" lon="11.088804335803607"><ele>1323.0</ele><time>2026-03-23T08:52:38Z</time></trkpt><trkpt lat="45.63942316162111" lon="11.088723118273741"><ele>1323.0</ele><time>2026-03-23T08:52:39Z</time></trkpt><trkpt lat="45.63936076036775" lon="11.088635534926631"><ele>1323.0</ele><time>2026-03-23T08:52:40Z</time></trkpt><trkpt lat="45.63933739205741" lon="11.088476923111237"><ele>1323.0</ele><time>2026-03-23T08:52:41Z</time></trkpt><trkpt lat="45.63935434449908" lon="11.08829829406128"><ele>1323.3333333333333</ele><time>2026-03-23T08:52:42Z</time></trkpt><trkpt lat="45.63941949927367" lon="11.088099710598728"><ele>1323.6666666666665</ele><time>2026-03-23T08:52:43Z</time></trkpt><trkpt lat="45.63949234532078" lon="11.08790876294315"><ele>1324.0</ele><time>2026-03-23T08:52:44Z</time></trkpt><trkpt lat="45.639547018650084" lon="11.087713525993825"><ele>1320.75</ele><time>2026-03-23T08:52:45Z</time></trkpt><trkpt lat="45.63958674242819" lon="11.08752271802972"><ele>1317.5</ele><time>2026-03-23T08:52:46Z</time></trkpt><trkpt lat="45.63961962688293" lon="11.087343665699834"><ele>1314.25</ele><time>2026-03-23T08:52:47Z</time></trkpt><trkpt lat="45.639627968708986" lon="11.087151794021473"><ele>1311.0</ele><time>2026-03-23T08:52:48Z</time></trkpt><trkpt lat="45.639610997175005" lon="11.086932692339131"><ele>1308.0</ele><time>2026-03-23T08:52:49Z</time></trkpt><trkpt lat="45.63958130227507" lon="11.086714890629148"><ele>1305.0</ele><time>2026-03-23T08:52:50Z</time></trkpt><trkpt lat="45.639532411502664" lon="11.086518044517952"><ele>1302.0</ele><time>2026-03-23T08:52:51Z</time></trkpt><trkpt lat="45.639456476425536" lon="11.086323686278611"><ele>1302.0</ele><time>2026-03-23T08:52:52Z</time></trkpt><trkpt lat="45.63935256419356" lon="11.086130219511759"><ele>1302.0</ele><time>2026-03-23T08:52:53Z</time></trkpt><trkpt lat="45.639221355078085" lon="11.085952538217631"><ele>1302.0</ele><time>2026-03-23T08:52:54Z</time></trkpt><trkpt lat="45.6390818745038" lon="11.085785244082434"><ele>1297.6666666666667</ele><time>2026-03-23T08:52:55Z</time></trkpt><trkpt lat="45.63894412844523" lon="11.085616148755053"><ele>1293.3333333333335</ele><time>2026-03-23T08:52:56Z</time></trkpt><trkpt lat="45.63881780548572" lon="11.08544451135479"><ele>1289.0</ele><time>2026-03-23T08:52:57Z</time></trkpt><trkpt lat="45.638698720027065" lon="11.085285160969274"><ele>1288.0</ele><time>2026-03-23T08:52:58Z</time></trkpt><trkpt lat="45.63856236712608" lon="11.085142630780064"><ele>1287.0</ele><time>2026-03-23T08:52:59Z</time></trkpt><trkpt lat="45.638407685753855" lon="11.08501917416718"><ele>1286.0</ele><time>2026-03-23T08:53:00Z</time></trkpt><trkpt lat="45.638259841912785" lon="11.08492246620084"><ele>1286.0</ele><time>2026-03-23T08:53:01Z</time></trkpt><trkpt lat="45.63813648055619" lon="11.084849733425983"><ele>1286.0</ele><time>2026-03-23T08:53:02Z</time></trkpt><trkpt lat="45.63802150190961" lon="11.084824540310503"><ele>1286.0</ele><time>2026-03-23T08:53:03Z</time></trkpt><trkpt lat="45.63790671909003" lon="11.084840365863542"><ele>1286.0</ele><time>2026-03-23T08:53:04Z</time></trkpt><trkpt lat="45.637799987566616" lon="11.084921542514158"><ele>1286.25</ele><time>2026-03-23T08:53:05Z</time></trkpt><trkpt lat="45.6377056069629" lon="11.085060473744889"><ele>1286.5</ele><time>2026-03-23T08:53:06Z</time></trkpt><trkpt lat="45.63763729584165" lon="11.08524480554311"><ele>1286.75</ele><time>2026-03-23T08:53:07Z</time></trkpt><trkpt lat="45.6375985551347" lon="11.085429397633344"><ele>1287.0</ele><time>2026-03-23T08:53:08Z</time></trkpt><trkpt lat="45.637578073160626" lon="11.085604555397035"><ele>1288.0</ele><time>2026-03-23T08:53:09Z</time></trkpt><trkpt lat="45.637597499088464" lon="11.085795695221536"><ele>1289.0</ele><time>2026-03-23T08:53:10Z</time></trkpt><trkpt lat="45.63760959286545" lon="11.085970111650159"><ele>1290.0</ele><time>2026-03-23T08:53:11Z</time></trkpt><trkpt lat="45.63755082705037" lon="11.086104137881772"><ele>1291.0</ele><time>2026-03-23T08:53:12Z</time></trkpt><trkpt lat="45.63745463029402" lon="11.08622066287431"><ele>1291.0</ele><time>2026-03-23T08:53:13Z</time></trkpt><trkpt lat="45.63734242585903" lon="11.086309357676638"><ele>1291.0</ele><time>2026-03-23T08:53:14Z</time></trkpt><trkpt lat="45.637236909927886" lon="11.086352606273982"><ele>1291.0</ele><time>2026-03-23T08:53:15Z</time></trkpt><trkpt lat="45.6371369638901" lon="11.08626799560613"><ele>1291.0</ele><time>2026-03-23T08:53:16Z</time></trkpt><trkpt lat="45.63705513814389" lon="11.086133024458892"><ele>1290.3333333333333</ele><time>2026-03-23T08:53:17Z</time></trkpt><trkpt lat="45.63694177564809" lon="11.085979864350904"><ele>1289.6666666666667</ele><time>2026-03-23T08:53:18Z</time></trkpt><trkpt lat="45.636835193123986" lon="11.085770294136134"><ele>1289.0</ele><time>2026-03-23T08:53:19Z</time></trkpt><trkpt lat="45.63670042554141" lon="11.085560473506066"><ele>1284.3333333333335</ele><time>2026-03-23T08:53:20Z</time></trkpt><trkpt lat="45.63655668255337" lon="11.085326814757737"><ele>1279.6666666666667</ele><time>2026-03-23T08:53:21Z</time></trkpt><trkpt lat="45.63641303315884" lon="11.085115474863638"><ele>1275.0</ele><time>2026-03-23T08:53:22Z</time></trkpt><trkpt lat="45.636268403320415" lon="11.084945359065586"><ele>1273.25</ele><time>2026-03-23T08:53:23Z</time></trkpt><trkpt lat="45.63612686555429" lon="11.08479480362089"><ele>1271.5</ele><time>2026-03-23T08:53:24Z</time></trkpt><trkpt lat="45.63600760421951" lon="11.084693609325514"><ele>1269.75</ele><time>2026-03-23T08:53:25Z</time></trkpt><trkpt lat="45.63588717712746" lon="11.084659749989482"><ele>1268.0</ele><time>2026-03-23T08:53:26Z</time></trkpt><trkpt lat="45.63575212726865" lon="11.08469163968109"><ele>1268.0</ele><time>2026-03-23T08:53:27Z</time></trkpt><trkpt lat="45.63560867848955" lon="11.084777753731593"><ele>1268.0</ele><time>2026-03-23T08:53:28Z</time></trkpt><trkpt lat="45.63546923881029" lon="11.084925044585107"><ele>1268.0</ele><time>2026-03-23T08:53:29Z</time></trkpt><trkpt lat="45.635333978292834" lon="11.085111880804456"><ele>1267.0</ele><time>2026-03-23T08:53:30Z</time></trkpt><trkpt lat="45.63518448710342" lon="11.085339491648572"><ele>1266.0</ele><time>2026-03-23T08:53:31Z</time></trkpt><trkpt lat="45.63504229336593" lon="11.085553755710807"><ele>1265.0</ele><time>2026-03-23T08:53:32Z</time></trkpt><trkpt lat="45.634944789742164" lon="11.085771831063562"><ele>1268.5</ele><time>2026-03-23T08:53:33Z</time></trkpt><trkpt lat="45.63487947753774" lon="11.086060033612037"><ele>1272.0</ele><time>2026-03-23T08:53:34Z</time></trkpt><trkpt lat="45.63479070945737" lon="11.086409731324084"><ele>1271.6666666666667</ele><time>2026-03-23T08:53:35Z</time></trkpt><trkpt lat="45.63469884900998" lon="11.086690014930872"><ele>1271.3333333333335</ele><time>2026-03-23T08:53:36Z</time></trkpt><trkpt lat="45.63464282169311" lon="11.086911087176139"><ele>1271.0</ele><time>2026-03-23T08:53:37Z</time></trkpt><trkpt lat="45.63461861198761" lon="11.087124775526002"><ele>1271.0</ele><time>2026-03-23T08:53:38Z</time></trkpt><trkpt lat="45.63462929116591" lon="11.087344053193778"><ele>1271.0</ele><time>2026-03-23T08:53:39Z</time></trkpt><trkpt lat="45.63468265123456" lon="11.087577946067778"><ele>1271.0</ele><time>2026-03-23T08:53:40Z</time></trkpt><trkpt lat="45.634757136814514" lon="11.087822866453672"><ele>1268.3333333333335</ele><time>2026-03-23T08:53:41Z</time></trkpt><trkpt lat="45.63483443765537" lon="11.08803645794296"><ele>1265.6666666666667</ele><time>2026-03-23T08:53:42Z</time></trkpt><trkpt lat="45.63486542212759" lon="11.088251461611886"><ele>1263.0</ele><time>2026-03-23T08:53:43Z</time></trkpt><trkpt lat="45.634886227928945" lon="11.08846394478001"><ele>1261.5</ele><time>2026-03-23T08:53:44Z</time></trkpt><trkpt lat="45.63485985002986" lon="11.088677296616952"><ele>1260.0</ele><time>2026-03-23T08:53:45Z</time></trkpt><trkpt lat="45.63481394321201" lon="11.088865191422293"><ele>1258.5</ele><time>2026-03-23T08:53:46Z</time></trkpt><trkpt lat="45.63476370697758" lon="11.089014279851694"><ele>1257.0</ele><time>2026-03-23T08:53:47Z</time></trkpt><trkpt lat="45.634725857076226" lon="11.089149502076696"><ele>1257.0</ele><time>2026-03-23T08:53:48Z</time></trkpt><trkpt lat="45.63466963891483" lon="11.089237328741612"><ele>1257.0</ele><time>2026-03-23T08:53:49Z</time></trkpt><trkpt lat="45.63458214131876" lon="11.089301601744687"><ele>1257.0</ele><time>2026-03-23T08:53:50Z</time></trkpt><trkpt lat="45.63448432653068" lon="11.089308342410167"><ele>1257.0</ele><time>2026-03-23T08:53:51Z</time></trkpt><trkpt lat="45.634394506938925" lon="11.089219545424921"><ele>1257.0</ele><time>2026-03-23T08:53:52Z</time></trkpt><trkpt lat="45.63428200059571" lon="11.089112503765394"><ele>1250.0</ele><time>2026-03-23T08:53:53Z</time></trkpt><trkpt lat="45.63412610557818" lon="11.088996163550267"><ele>1243.0</ele><time>2026-03-23T08:53:54Z</time></trkpt><trkpt lat="45.63393105740243" lon="11.088860895059092"><ele>1236.0</ele><time>2026-03-23T08:53:55Z</time></trkpt><trkpt lat="45.633727064954286" lon="11.088795605307421"><ele>1231.6666666666667</ele><time>2026-03-23T08:53:56Z</time></trkpt><trkpt lat="45.63351748432335" lon="11.088773853775034"><ele>1227.3333333333335</ele><time>2026-03-23T08:53:57Z</time></trkpt><trkpt lat="45.63331831195287" lon="11.088720550228183"><ele>1223.0</ele><time>2026-03-23T08:53:58Z</time></trkpt><trkpt lat="45.633258025386745" lon="11.088682444274593"><ele>1223.0</ele><time>2026-03-23T08:53:59Z</time></trkpt><trkpt lat="45.633089331911734" lon="11.088547263806845"><ele>1223.0</ele><time>2026-03-23T08:54:00Z</time></trkpt><trkpt lat="45.63292248198781" lon="11.088394310506782"><ele>1223.0</ele><time>2026-03-23T08:54:01Z</time></trkpt><trkpt lat="45.63275068232213" lon="11.08828296148492"><ele>1216.6666666666667</ele><time>2026-03-23T08:54:02Z</time></trkpt><trkpt lat="45.63255551022314" lon="11.088199867847608"><ele>1210.3333333333333</ele><time>2026-03-23T08:54:03Z</time></trkpt><trkpt lat="45.632356387433326" lon="11.088139320161334"><ele>1204.0</ele><time>2026-03-23T08:54:04Z</time></trkpt><trkpt lat="45.63216968158526" lon="11.088062331798296"><ele>1204.0</ele><time>2026-03-23T08:54:05Z</time></trkpt><trkpt lat="45.63199984684265" lon="11.087985602911202"><ele>1204.0</ele><time>2026-03-23T08:54:06Z</time></trkpt><trkpt lat="45.631820110826744" lon="11.087930079781888"><ele>1204.0</ele><time>2026-03-23T08:54:07Z</time></trkpt><trkpt lat="45.63163192464459" lon="11.087893422687923"><ele>1204.3333333333333</ele><time>2026-03-23T08:54:08Z</time></trkpt><trkpt lat="45.6314481377559" lon="11.087851263571538"><ele>1204.6666666666667</ele><time>2026-03-23T08:54:09Z</time></trkpt><trkpt lat="45.63126919658868" lon="11.08780714598468"><ele>1205.0</ele><time>2026-03-23T08:54:10Z</time></trkpt><trkpt lat="45.6310919642015" lon="11.087767704100079"><ele>1202.3333333333335</ele><time>2026-03-23T08:54:11Z</time></trkpt><trkpt lat="45.63092638822064" lon="11.087726837846482"><ele>1199.6666666666667</ele><time>2026-03-23T08:54:12Z</time></trkpt><trkpt lat="45.63076076165324" lon="11.087684518185155"><ele>1197.0</ele><time>2026-03-23T08:54:13Z</time></trkpt><trkpt lat="45.63060147577129" lon="11.087646671876449"><ele>1197.0</ele><time>2026-03-23T08:54:14Z</time></trkpt><trkpt lat="45.63044553336109" lon="11.087609616444583"><ele>1197.0</ele><time>2026-03-23T08:54:15Z</time></trkpt><trkpt lat="45.63029657674353" lon="11.087570435188306"><ele>1197.0</ele><time>2026-03-23T08:54:16Z</time></trkpt><trkpt lat="45.63014943432054" lon="11.087537663817466"><ele>1194.75</ele><time>2026-03-23T08:54:17Z</time></trkpt><trkpt lat="45.63000477082902" lon="11.087518821588116"><ele>1192.5</ele><time>2026-03-23T08:54:18Z</time></trkpt><trkpt lat="45.62986155636167" lon="11.087509464640192"><ele>1190.25</ele><time>2026-03-23T08:54:19Z</time></trkpt><trkpt lat="45.62972285073301" lon="11.08751284354073"><ele>1188.0</ele><time>2026-03-23T08:54:20Z</time></trkpt><trkpt lat="45.62958941516492" lon="11.08753627046247"><ele>1185.75</ele><time>2026-03-23T08:54:21Z</time></trkpt><trkpt lat="45.62946158747784" lon="11.08755680078021"><ele>1183.5</ele><time>2026-03-23T08:54:22Z</time></trkpt><trkpt lat="45.62933110760694" lon="11.08756308328802"><ele>1181.25</ele><time>2026-03-23T08:54:23Z</time></trkpt><trkpt lat="45.62920386954827" lon="11.08757620736153"><ele>1179.0</ele><time>2026-03-23T08:54:24Z</time></trkpt><trkpt lat="45.62908138591765" lon="11.087594933944501"><ele>1179.0</ele><time>2026-03-23T08:54:25Z</time></trkpt><trkpt lat="45.62895833585809" lon="11.087610460156416"><ele>1179.0</ele><time>2026-03-23T08:54:26Z</time></trkpt><trkpt lat="45.62882813817891" lon="11.087645040298629"><ele>1179.0</ele><time>2026-03-23T08:54:27Z</time></trkpt><trkpt lat="45.628698731704354" lon="11.087700251132636"><ele>1179.0</ele><time>2026-03-23T08:54:28Z</time></trkpt><trkpt lat="45.62857409622229" lon="11.087783711844187"><ele>1177.75</ele><time>2026-03-23T08:54:29Z</time></trkpt><trkpt lat="45.62846317138178" lon="11.087899109531755"><ele>1176.5</ele><time>2026-03-23T08:54:30Z</time></trkpt><trkpt lat="45.628353040147466" lon="11.088007828007628"><ele>1175.25</ele><time>2026-03-23T08:54:31Z</time></trkpt><trkpt lat="45.62823708498626" lon="11.088094981494402"><ele>1174.0</ele><time>2026-03-23T08:54:32Z</time></trkpt><trkpt lat="45.62812407670843" lon="11.088170069286793"><ele>1174.0</ele><time>2026-03-23T08:54:33Z</time></trkpt><trkpt lat="45.62800883116524" lon="11.088197737859685"><ele>1174.0</ele><time>2026-03-23T08:54:34Z</time></trkpt><trkpt lat="45.62789535883128" lon="11.088234113268216"><ele>1174.0</ele><time>2026-03-23T08:54:35Z</time></trkpt><trkpt lat="45.62777304343484" lon="11.088241971009875"><ele>1174.0</ele><time>2026-03-23T08:54:36Z</time></trkpt><trkpt lat="45.62765067663662" lon="11.088251655031938"><ele>1172.8</ele><time>2026-03-23T08:54:37Z</time></trkpt><trkpt lat="45.62753828601734" lon="11.088260664047738"><ele>1171.6000000000001</ele><time>2026-03-23T08:54:38Z</time></trkpt><trkpt lat="45.62743844226386" lon="11.088277933773236"><ele>1170.4</ele><time>2026-03-23T08:54:39Z</time></trkpt><trkpt lat="45.62734759696809" lon="11.088297199309993"><ele>1169.2</ele><time>2026-03-23T08:54:40Z</time></trkpt><trkpt lat="45.62726262517523" lon="11.088302546373649"><ele>1168.0</ele><time>2026-03-23T08:54:41Z</time></trkpt><trkpt lat="45.62718783997669" lon="11.088297656459847"><ele>1168.0</ele><time>2026-03-23T08:54:42Z</time></trkpt><trkpt lat="45.627089270419084" lon="11.088261908249256"><ele>1168.0</ele><time>2026-03-23T08:54:44Z</time></trkpt><trkpt lat="45.62703203446912" lon="11.088210808141705"><ele>1168.0</ele><time>2026-03-23T08:54:46Z</time></trkpt><trkpt lat="45.62695471129116" lon="11.088207900102587"><ele>1168.0</ele><time>2026-03-23T08:54:48Z</time></trkpt><trkpt lat="45.62681721224454" lon="11.088324973747671"><ele>1168.0</ele><time>2026-03-23T08:54:50Z</time></trkpt><trkpt lat="45.626736952250695" lon="11.088450115520777"><ele>1167.0</ele><time>2026-03-23T08:54:51Z</time></trkpt><trkpt lat="45.626624374272176" lon="11.088621129547006"><ele>1166.0</ele><time>2026-03-23T08:54:52Z</time></trkpt><trkpt lat="45.626501178196094" lon="11.088752991093621"><ele>1165.0</ele><time>2026-03-23T08:54:53Z</time></trkpt><trkpt lat="45.62637429044179" lon="11.088839101645572"><ele>1165.0</ele><time>2026-03-23T08:54:54Z</time></trkpt><trkpt lat="45.62623246532125" lon="11.08888904650874"><ele>1165.0</ele><time>2026-03-23T08:54:55Z</time></trkpt><trkpt lat="45.62607436041689" lon="11.08892668597256"><ele>1165.0</ele><time>2026-03-23T08:54:56Z</time></trkpt><trkpt lat="45.62592067306639" lon="11.08895994399209"><ele>1165.0</ele><time>2026-03-23T08:54:57Z</time></trkpt><trkpt lat="45.625771706861826" lon="11.089008966341142"><ele>1165.0</ele><time>2026-03-23T08:54:58Z</time></trkpt><trkpt lat="45.62562485504623" lon="11.089062702145771"><ele>1165.0</ele><time>2026-03-23T08:54:59Z</time></trkpt><trkpt lat="45.625477476619324" lon="11.0891131272014"><ele>1165.6666666666665</ele><time>2026-03-23T08:55:00Z</time></trkpt><trkpt lat="45.625327068351375" lon="11.089159356812518"><ele>1166.3333333333333</ele><time>2026-03-23T08:55:01Z</time></trkpt><trkpt lat="45.62517712179113" lon="11.08920511739554"><ele>1167.0</ele><time>2026-03-23T08:55:02Z</time></trkpt><trkpt lat="45.62503053759582" lon="11.089255344211018"><ele>1167.0</ele><time>2026-03-23T08:55:03Z</time></trkpt><trkpt lat="45.62488282280713" lon="11.089307572054025"><ele>1167.0</ele><time>2026-03-23T08:55:04Z</time></trkpt><trkpt lat="45.62473270406561" lon="11.089361152773892"><ele>1167.0</ele><time>2026-03-23T08:55:05Z</time></trkpt><trkpt lat="45.62458116260331" lon="11.089411098344831"><ele>1168.6666666666667</ele><time>2026-03-23T08:55:06Z</time></trkpt><trkpt lat="45.62443152212305" lon="11.089459953096407"><ele>1170.3333333333335</ele><time>2026-03-23T08:55:07Z</time></trkpt><trkpt lat="45.62427506510456" lon="11.08949347275918"><ele>1172.0</ele><time>2026-03-23T08:55:08Z</time></trkpt><trkpt lat="45.62410867507111" lon="11.089493514651476"><ele>1172.0</ele><time>2026-03-23T08:55:09Z</time></trkpt><trkpt lat="45.623919109463564" lon="11.089424633353062"><ele>1172.0</ele><time>2026-03-23T08:55:10Z</time></trkpt><trkpt lat="45.62370791553407" lon="11.089392985177641"><ele>1172.0</ele><time>2026-03-23T08:55:11Z</time></trkpt><trkpt lat="45.62351980888248" lon="11.08933607275172"><ele>1175.3333333333335</ele><time>2026-03-23T08:55:12Z</time></trkpt><trkpt lat="45.62333788924331" lon="11.08931128129182"><ele>1178.6666666666667</ele><time>2026-03-23T08:55:13Z</time></trkpt><trkpt lat="45.62314425065433" lon="11.089304347167069"><ele>1182.0</ele><time>2026-03-23T08:55:14Z</time></trkpt><trkpt lat="45.62295707792971" lon="11.089294702393872"><ele>1182.3333333333333</ele><time>2026-03-23T08:55:15Z</time></trkpt><trkpt lat="45.62278035527197" lon="11.089284018157253"><ele>1182.6666666666665</ele><time>2026-03-23T08:55:16Z</time></trkpt><trkpt lat="45.62260683728731" lon="11.089278071607731"><ele>1183.0</ele><time>2026-03-23T08:55:17Z</time></trkpt><trkpt lat="45.62244524068628" lon="11.089284100406832"><ele>1183.0</ele><time>2026-03-23T08:55:18Z</time></trkpt><trkpt lat="45.62229433486832" lon="11.08929047844815"><ele>1183.0</ele><time>2026-03-23T08:55:19Z</time></trkpt><trkpt lat="45.62213738735221" lon="11.089287714222614"><ele>1183.0</ele><time>2026-03-23T08:55:20Z</time></trkpt><trkpt lat="45.621983145873685" lon="11.089283079433208"><ele>1183.3333333333333</ele><time>2026-03-23T08:55:21Z</time></trkpt><trkpt lat="45.62182950000293" lon="11.089269380468032"><ele>1183.6666666666667</ele><time>2026-03-23T08:55:22Z</time></trkpt><trkpt lat="45.62167499970617" lon="11.089251096849608"><ele>1184.0</ele><time>2026-03-23T08:55:23Z</time></trkpt><trkpt lat="45.62152036967868" lon="11.089227707380555"><ele>1184.0</ele><time>2026-03-23T08:55:24Z</time></trkpt><trkpt lat="45.62136282428587" lon="11.089192923366872"><ele>1184.0</ele><time>2026-03-23T08:55:25Z</time></trkpt><trkpt lat="45.62121385021272" lon="11.089103487781092"><ele>1184.0</ele><time>2026-03-23T08:55:26Z</time></trkpt><trkpt lat="45.621050108315856" lon="11.089007708288916"><ele>1182.3333333333335</ele><time>2026-03-23T08:55:27Z</time></trkpt><trkpt lat="45.620885747092785" lon="11.088923603518413"><ele>1180.6666666666667</ele><time>2026-03-23T08:55:28Z</time></trkpt><trkpt lat="45.62073683885869" lon="11.088810918157535"><ele>1179.0</ele><time>2026-03-23T08:55:29Z</time></trkpt><trkpt lat="45.62057771840629" lon="11.088702818100462"><ele>1179.0</ele><time>2026-03-23T08:55:30Z</time></trkpt><trkpt lat="45.62041459470736" lon="11.08859131511556"><ele>1179.0</ele><time>2026-03-23T08:55:31Z</time></trkpt><trkpt lat="45.620298908493865" lon="11.08850642700662"><ele>1179.0</ele><time>2026-03-23T08:55:32Z</time></trkpt><trkpt lat="45.62017403325635" lon="11.0884199103708"><ele>1172.25</ele><time>2026-03-23T08:55:33Z</time></trkpt><trkpt lat="45.6200566327797" lon="11.088348536944782"><ele>1165.5</ele><time>2026-03-23T08:55:34Z</time></trkpt><trkpt lat="45.619939444511985" lon="11.088310783588677"><ele>1158.75</ele><time>2026-03-23T08:55:35Z</time></trkpt><trkpt lat="45.6198123359914" lon="11.088299549232794"><ele>1152.0</ele><time>2026-03-23T08:55:36Z</time></trkpt><trkpt lat="45.61968734698177" lon="11.088335876559382"><ele>1152.0</ele><time>2026-03-23T08:55:37Z</time></trkpt><trkpt lat="45.61955090392264" lon="11.088427680129035"><ele>1152.0</ele><time>2026-03-23T08:55:38Z</time></trkpt><trkpt lat="45.619410712135455" lon="11.088564868219754"><ele>1152.0</ele><time>2026-03-23T08:55:39Z</time></trkpt><trkpt lat="45.61928866356062" lon="11.08872207515061"><ele>1149.25</ele><time>2026-03-23T08:55:40Z</time></trkpt><trkpt lat="45.61917572513665" lon="11.08886251209793"><ele>1146.5</ele><time>2026-03-23T08:55:41Z</time></trkpt><trkpt lat="45.61905731385482" lon="11.088983513071272"><ele>1143.75</ele><time>2026-03-23T08:55:42Z</time></trkpt><trkpt lat="45.618946711994184" lon="11.089107411678954"><ele>1141.0</ele><time>2026-03-23T08:55:43Z</time></trkpt><trkpt lat="45.61885156885583" lon="11.089245166626483"><ele>1141.0</ele><time>2026-03-23T08:55:44Z</time></trkpt><trkpt lat="45.61879002998775" lon="11.089392397615653"><ele>1141.0</ele><time>2026-03-23T08:55:45Z</time></trkpt><trkpt lat="45.618780703884894" lon="11.089551460829231"><ele>1141.0</ele><time>2026-03-23T08:55:46Z</time></trkpt><trkpt lat="45.61880516781795" lon="11.089698807436081"><ele>1141.0</ele><time>2026-03-23T08:55:47Z</time></trkpt><trkpt lat="45.61888747351868" lon="11.089837739807773"><ele>1141.6</ele><time>2026-03-23T08:55:48Z</time></trkpt><trkpt lat="45.61897689452853" lon="11.089991254976226"><ele>1142.1999999999998</ele><time>2026-03-23T08:55:49Z</time></trkpt><trkpt lat="45.61902622823944" lon="11.090130041019568"><ele>1142.8000000000002</ele><time>2026-03-23T08:55:50Z</time></trkpt><trkpt lat="45.619036196801716" lon="11.090248694466386"><ele>1143.4</ele><time>2026-03-23T08:55:51Z</time></trkpt><trkpt lat="45.61899287689174" lon="11.09037452495947"><ele>1144.0</ele><time>2026-03-23T08:55:52Z</time></trkpt><trkpt lat="45.618908734254624" lon="11.090484556421837"><ele>1144.0</ele><time>2026-03-23T08:55:53Z</time></trkpt><trkpt lat="45.61880163003694" lon="11.090569614758401"><ele>1144.0</ele><time>2026-03-23T08:55:54Z</time></trkpt><trkpt lat="45.6186819356143" lon="11.090640805829219"><ele>1144.0</ele><time>2026-03-23T08:55:55Z</time></trkpt><trkpt lat="45.618578306628365" lon="11.09070897115306"><ele>1144.0</ele><time>2026-03-23T08:55:56Z</time></trkpt><trkpt lat="45.61848388321856" lon="11.09078885744606"><ele>1139.0</ele><time>2026-03-23T08:55:57Z</time></trkpt><trkpt lat="45.61839407734475" lon="11.090932559448808"><ele>1134.0</ele><time>2026-03-23T08:55:58Z</time></trkpt><trkpt lat="45.618325461626355" lon="11.091114889450996"><ele>1129.0</ele><time>2026-03-23T08:55:59Z</time></trkpt><trkpt lat="45.618261026428975" lon="11.09128368796984"><ele>1124.0</ele><time>2026-03-23T08:56:00Z</time></trkpt><trkpt lat="45.61819090388131" lon="11.091434338462294"><ele>1127.25</ele><time>2026-03-23T08:56:01Z</time></trkpt><trkpt lat="45.61811613719313" lon="11.091598331414874"><ele>1130.5</ele><time>2026-03-23T08:56:02Z</time></trkpt><trkpt lat="45.618033472335426" lon="11.091780400987707"><ele>1133.75</ele><time>2026-03-23T08:56:03Z</time></trkpt><trkpt lat="45.617947934177415" lon="11.091945984637984"><ele>1137.0</ele><time>2026-03-23T08:56:04Z</time></trkpt><trkpt lat="45.61786199515943" lon="11.092101731211617"><ele>1133.75</ele><time>2026-03-23T08:56:05Z</time></trkpt><trkpt lat="45.61776662296626" lon="11.092259364026972"><ele>1130.5</ele><time>2026-03-23T08:56:06Z</time></trkpt><trkpt lat="45.61765474072666" lon="11.092409471704789"><ele>1127.25</ele><time>2026-03-23T08:56:07Z</time></trkpt><trkpt lat="45.617540538543025" lon="11.092542901322076"><ele>1124.0</ele><time>2026-03-23T08:56:08Z</time></trkpt><trkpt lat="45.61743958060626" lon="11.09270372252562"><ele>1123.6666666666667</ele><time>2026-03-23T08:56:09Z</time></trkpt><trkpt lat="45.61735174594295" lon="11.092891896150267"><ele>1123.3333333333333</ele><time>2026-03-23T08:56:10Z</time></trkpt><trkpt lat="45.61729442871491" lon="11.093094622783628"><ele>1123.0</ele><time>2026-03-23T08:56:11Z</time></trkpt><trkpt lat="45.61725871052413" lon="11.093314693620398"><ele>1123.0</ele><time>2026-03-23T08:56:12Z</time></trkpt><trkpt lat="45.61721997513681" lon="11.093512292956854"><ele>1123.0</ele><time>2026-03-23T08:56:13Z</time></trkpt><trkpt lat="45.61717699947256" lon="11.09370326569856"><ele>1123.0</ele><time>2026-03-23T08:56:14Z</time></trkpt><trkpt lat="45.61711772768154" lon="11.093857451533138"><ele>1123.0</ele><time>2026-03-23T08:56:15Z</time></trkpt><trkpt lat="45.617057013038476" lon="11.093997269142433"><ele>1118.25</ele><time>2026-03-23T08:56:16Z</time></trkpt><trkpt lat="45.61694437810641" lon="11.094098132961562"><ele>1113.5</ele><time>2026-03-23T08:56:17Z</time></trkpt><trkpt lat="45.61679251542417" lon="11.094115291192532"><ele>1108.75</ele><time>2026-03-23T08:56:18Z</time></trkpt><trkpt lat="45.616642703464734" lon="11.094157155822877"><ele>1104.0</ele><time>2026-03-23T08:56:19Z</time></trkpt><trkpt lat="45.616502522413846" lon="11.094207434453091"><ele>1104.0</ele><time>2026-03-23T08:56:20Z</time></trkpt><trkpt lat="45.616362923784855" lon="11.094242255580474"><ele>1104.0</ele><time>2026-03-23T08:56:21Z</time></trkpt><trkpt lat="45.61622682335876" lon="11.094269434551357"><ele>1104.0</ele><time>2026-03-23T08:56:22Z</time></trkpt><trkpt lat="45.616082144908276" lon="11.094307976842124"><ele>1104.0</ele><time>2026-03-23T08:56:23Z</time></trkpt><trkpt lat="45.61594221186117" lon="11.094352795028835"><ele>1101.6666666666667</ele><time>2026-03-23T08:56:24Z</time></trkpt><trkpt lat="45.61579246250887" lon="11.094388287980017"><ele>1099.3333333333335</ele><time>2026-03-23T08:56:25Z</time></trkpt><trkpt lat="45.61564385087662" lon="11.09440995761674"><ele>1097.0</ele><time>2026-03-23T08:56:26Z</time></trkpt><trkpt lat="45.615490027576016" lon="11.09442862332827"><ele>1097.0</ele><time>2026-03-23T08:56:27Z</time></trkpt><trkpt lat="45.61534518407582" lon="11.094437699173184"><ele>1097.0</ele><time>2026-03-23T08:56:28Z</time></trkpt><trkpt lat="45.61519360558409" lon="11.09444345312875"><ele>1097.0</ele><time>2026-03-23T08:56:29Z</time></trkpt><trkpt lat="45.61504668894655" lon="11.094445856536998"><ele>1097.0</ele><time>2026-03-23T08:56:30Z</time></trkpt><trkpt lat="45.61489153559643" lon="11.09445567018089"><ele>1097.6666666666667</ele><time>2026-03-23T08:56:31Z</time></trkpt><trkpt lat="45.6147359366032" lon="11.09446281026167"><ele>1098.3333333333333</ele><time>2026-03-23T08:56:32Z</time></trkpt><trkpt lat="45.614579601462786" lon="11.094466375761076"><ele>1099.0</ele><time>2026-03-23T08:56:33Z</time></trkpt><trkpt lat="45.614425940771845" lon="11.094464481170425"><ele>1099.0</ele><time>2026-03-23T08:56:34Z</time></trkpt><trkpt lat="45.614269587714446" lon="11.094450963895211"><ele>1099.0</ele><time>2026-03-23T08:56:35Z</time></trkpt><trkpt lat="45.61411454905011" lon="11.094412197055549"><ele>1099.0</ele><time>2026-03-23T08:56:36Z</time></trkpt><trkpt lat="45.613962828886166" lon="11.094352839979154"><ele>1099.0</ele><time>2026-03-23T08:56:37Z</time></trkpt><trkpt lat="45.61381418804482" lon="11.094288985990513"><ele>1099.0</ele><time>2026-03-23T08:56:38Z</time></trkpt><trkpt lat="45.613659393961775" lon="11.094229578976515"><ele>1099.0</ele><time>2026-03-23T08:56:39Z</time></trkpt><trkpt lat="45.61350624758549" lon="11.094189265139596"><ele>1099.0</ele><time>2026-03-23T08:56:40Z</time></trkpt><trkpt lat="45.61336778231845" lon="11.094189942552827"><ele>1099.0</ele><time>2026-03-23T08:56:41Z</time></trkpt><trkpt lat="45.61322784869592" lon="11.094234830046002"><ele>1099.0</ele><time>2026-03-23T08:56:42Z</time></trkpt><trkpt lat="45.61307040090452" lon="11.094322604124892"><ele>1099.0</ele><time>2026-03-23T08:56:43Z</time></trkpt><trkpt lat="45.61290446866895" lon="11.094421336868859"><ele>1099.0</ele><time>2026-03-23T08:56:44Z</time></trkpt><trkpt lat="45.612754710138326" lon="11.094468841584712"><ele>1099.0</ele><time>2026-03-23T08:56:45Z</time></trkpt><trkpt lat="45.61258568510958" lon="11.094490775572456"><ele>1097.0</ele><time>2026-03-23T08:56:46Z</time></trkpt><trkpt lat="45.61241541063703" lon="11.09449078106123"><ele>1095.0</ele><time>2026-03-23T08:56:47Z</time></trkpt><trkpt lat="45.61224505121463" lon="11.094427887702988"><ele>1093.0</ele><time>2026-03-23T08:56:48Z</time></trkpt><trkpt lat="45.61215789493719" lon="11.09427054582501"><ele>1093.0</ele><time>2026-03-23T08:56:50Z</time></trkpt><trkpt lat="45.61207226157788" lon="11.094153777234682"><ele>1093.0</ele><time>2026-03-23T08:56:51Z</time></trkpt><trkpt lat="45.61198065328108" lon="11.094058517537109"><ele>1093.0</ele><time>2026-03-23T08:56:52Z</time></trkpt><trkpt lat="45.61187254633637" lon="11.093985773927821"><ele>1093.0</ele><time>2026-03-23T08:56:53Z</time></trkpt><trkpt lat="45.61173324875228" lon="11.093956554822602"><ele>1092.5</ele><time>2026-03-23T08:56:54Z</time></trkpt><trkpt lat="45.611606463262255" lon="11.093988402562971"><ele>1092.0</ele><time>2026-03-23T08:56:55Z</time></trkpt><trkpt lat="45.611494728315556" lon="11.09408675557416"><ele>1091.5</ele><time>2026-03-23T08:56:56Z</time></trkpt><trkpt lat="45.611409476612955" lon="11.094228654094126"><ele>1091.0</ele><time>2026-03-23T08:56:57Z</time></trkpt><trkpt lat="45.611346543611674" lon="11.094417385025608"><ele>1091.0</ele><time>2026-03-23T08:56:58Z</time></trkpt><trkpt lat="45.61127281686364" lon="11.094606607477237"><ele>1091.0</ele><time>2026-03-23T08:56:59Z</time></trkpt><trkpt lat="45.6111935030714" lon="11.094773861888884"><ele>1091.0</ele><time>2026-03-23T08:57:00Z</time></trkpt><trkpt lat="45.611094032027935" lon="11.094885264906342"><ele>1091.0</ele><time>2026-03-23T08:57:01Z</time></trkpt><trkpt lat="45.610976768754526" lon="11.094944743556834"><ele>1091.25</ele><time>2026-03-23T08:57:02Z</time></trkpt><trkpt lat="45.61084805547905" lon="11.094933685939711"><ele>1091.5</ele><time>2026-03-23T08:57:03Z</time></trkpt><trkpt lat="45.610727251939856" lon="11.094858432134561"><ele>1091.75</ele><time>2026-03-23T08:57:04Z</time></trkpt><trkpt lat="45.61058361426777" lon="11.094765741304673"><ele>1092.0</ele><time>2026-03-23T08:57:05Z</time></trkpt><trkpt lat="45.61042909842619" lon="11.094710011952332"><ele>1090.6666666666667</ele><time>2026-03-23T08:57:06Z</time></trkpt><trkpt lat="45.61027549156252" lon="11.094666116308497"><ele>1089.3333333333335</ele><time>2026-03-23T08:57:07Z</time></trkpt><trkpt lat="45.61011496871178" lon="11.09468544529071"><ele>1088.0</ele><time>2026-03-23T08:57:08Z</time></trkpt><trkpt lat="45.609970991595475" lon="11.094709668023127"><ele>1088.0</ele><time>2026-03-23T08:57:09Z</time></trkpt><trkpt lat="45.60983091101479" lon="11.09474962830886"><ele>1088.0</ele><time>2026-03-23T08:57:10Z</time></trkpt><trkpt lat="45.60968744200721" lon="11.09479042893215"><ele>1088.0</ele><time>2026-03-23T08:57:11Z</time></trkpt><trkpt lat="45.60954154328824" lon="11.094837314382536"><ele>1088.0</ele><time>2026-03-23T08:57:12Z</time></trkpt><trkpt lat="45.60940056118377" lon="11.094872528020838"><ele>1087.0</ele><time>2026-03-23T08:57:13Z</time></trkpt><trkpt lat="45.609264968177364" lon="11.094910875776572"><ele>1086.0</ele><time>2026-03-23T08:57:14Z</time></trkpt><trkpt lat="45.6091260622846" lon="11.094941500287828"><ele>1085.0</ele><time>2026-03-23T08:57:15Z</time></trkpt><trkpt lat="45.609001326695356" lon="11.094985272558677"><ele>1084.0</ele><time>2026-03-23T08:57:16Z</time></trkpt><trkpt lat="45.608867150289925" lon="11.09506103988587"><ele>1082.3333333333333</ele><time>2026-03-23T08:57:17Z</time></trkpt><trkpt lat="45.60874356100451" lon="11.095187514098717"><ele>1080.6666666666667</ele><time>2026-03-23T08:57:18Z</time></trkpt><trkpt lat="45.60863821933848" lon="11.095347231513427"><ele>1079.0</ele><time>2026-03-23T08:57:19Z</time></trkpt><trkpt lat="45.608538984833395" lon="11.095497700351144"><ele>1077.0</ele><time>2026-03-23T08:57:20Z</time></trkpt><trkpt lat="45.60843712815061" lon="11.095619155810223"><ele>1075.0</ele><time>2026-03-23T08:57:21Z</time></trkpt><trkpt lat="45.6083334384878" lon="11.09572741160785"><ele>1073.0</ele><time>2026-03-23T08:57:22Z</time></trkpt><trkpt lat="45.60821074407909" lon="11.095767655713487"><ele>1071.0</ele><time>2026-03-23T08:57:23Z</time></trkpt><trkpt lat="45.6080968071428" lon="11.095810037857794"><ele>1070.0</ele><time>2026-03-23T08:57:24Z</time></trkpt><trkpt lat="45.60799291309115" lon="11.095730131346"><ele>1069.0</ele><time>2026-03-23T08:57:25Z</time></trkpt><trkpt lat="45.607892439680555" lon="11.095698897051149"><ele>1068.0</ele><time>2026-03-23T08:57:26Z</time></trkpt><trkpt lat="45.607828529533094" lon="11.095628471643396"><ele>1067.0</ele><time>2026-03-23T08:57:27Z</time></trkpt><trkpt lat="45.607711957635175" lon="11.095568252698886"><ele>1066.0</ele><time>2026-03-23T08:57:29Z</time></trkpt><trkpt lat="45.60764008505075" lon="11.095524961490847"><ele>1065.6666666666665</ele><time>2026-03-23T08:57:30Z</time></trkpt><trkpt lat="45.60756100458365" lon="11.095463817926934"><ele>1065.3333333333333</ele><time>2026-03-23T08:57:31Z</time></trkpt><trkpt lat="45.60746954789142" lon="11.09544743480158"><ele>1065.0</ele><time>2026-03-23T08:57:32Z</time></trkpt><trkpt lat="45.60738576865421" lon="11.09542516214566"><ele>1064.6666666666667</ele><time>2026-03-23T08:57:33Z</time></trkpt><trkpt lat="45.607303279998845" lon="11.09542446756757"><ele>1064.3333333333335</ele><time>2026-03-23T08:57:34Z</time></trkpt><trkpt lat="45.607227936310856" lon="11.095450960560685"><ele>1064.0</ele><time>2026-03-23T08:57:35Z</time></trkpt><trkpt lat="45.60714684950509" lon="11.095461889854048"><ele>1064.0</ele><time>2026-03-23T08:57:36Z</time></trkpt><trkpt lat="45.607079971664625" lon="11.095569055053058"><ele>1064.0</ele><time>2026-03-23T08:57:37Z</time></trkpt><trkpt lat="45.60701301173549" lon="11.095651424171383"><ele>1064.0</ele><time>2026-03-23T08:57:38Z</time></trkpt><trkpt lat="45.60694326089705" lon="11.095738315740256"><ele>1064.0</ele><time>2026-03-23T08:57:39Z</time></trkpt><trkpt lat="45.606881660636446" lon="11.095823708157267"><ele>1064.0</ele><time>2026-03-23T08:57:40Z</time></trkpt><trkpt lat="45.606824203714304" lon="11.095899433052159"><ele>1064.0</ele><time>2026-03-23T08:57:41Z</time></trkpt><trkpt lat="45.60671341045949" lon="11.095973069587085"><ele>1066.6666666666667</ele><time>2026-03-23T08:57:43Z</time></trkpt><trkpt lat="45.6066498141636" lon="11.095996106268958"><ele>1069.3333333333335</ele><time>2026-03-23T08:57:44Z</time></trkpt><trkpt lat="45.606579122547004" lon="11.096011065416452"><ele>1072.0</ele><time>2026-03-23T08:57:45Z</time></trkpt><trkpt lat="45.606496562152344" lon="11.095994214137667"><ele>1074.6666666666667</ele><time>2026-03-23T08:57:46Z</time></trkpt><trkpt lat="45.60640876533089" lon="11.095953453277904"><ele>1077.3333333333333</ele><time>2026-03-23T08:57:47Z</time></trkpt><trkpt lat="45.60633185229047" lon="11.095856648865219"><ele>1080.0</ele><time>2026-03-23T08:57:48Z</time></trkpt><trkpt lat="45.60623204583951" lon="11.095780705088417"><ele>1078.4</ele><time>2026-03-23T08:57:49Z</time></trkpt><trkpt lat="45.606147184764225" lon="11.09569177802305"><ele>1076.8</ele><time>2026-03-23T08:57:50Z</time></trkpt><trkpt lat="45.606059875447365" lon="11.095601121072088"><ele>1075.2</ele><time>2026-03-23T08:57:51Z</time></trkpt><trkpt lat="45.6059874539907" lon="11.09552531894793"><ele>1073.6</ele><time>2026-03-23T08:57:52Z</time></trkpt><trkpt lat="45.60591893909134" lon="11.095452664442435"><ele>1072.0</ele><time>2026-03-23T08:57:53Z</time></trkpt><trkpt lat="45.605847313903816" lon="11.095385062228006"><ele>1072.0</ele><time>2026-03-23T08:57:54Z</time></trkpt><trkpt lat="45.60576091169455" lon="11.095313267864483"><ele>1072.0</ele><time>2026-03-23T08:57:55Z</time></trkpt><trkpt lat="45.60566520764666" lon="11.095230703853478"><ele>1072.0</ele><time>2026-03-23T08:57:56Z</time></trkpt><trkpt lat="45.60556731230675" lon="11.095158172714177"><ele>1072.0</ele><time>2026-03-23T08:57:57Z</time></trkpt><trkpt lat="45.60546990212451" lon="11.095094495839197"><ele>1072.0</ele><time>2026-03-23T08:57:58Z</time></trkpt><trkpt lat="45.60537449049883" lon="11.095055191000826"><ele>1073.8</ele><time>2026-03-23T08:57:59Z</time></trkpt><trkpt lat="45.605284099093446" lon="11.095021537006794"><ele>1075.6</ele><time>2026-03-23T08:58:00Z</time></trkpt><trkpt lat="45.60518641586682" lon="11.094985203158597"><ele>1077.3999999999999</ele><time>2026-03-23T08:58:01Z</time></trkpt><trkpt lat="45.60508130423072" lon="11.094965756507387"><ele>1079.2</ele><time>2026-03-23T08:58:02Z</time></trkpt><trkpt lat="45.604975951335305" lon="11.09496036536596"><ele>1081.0</ele><time>2026-03-23T08:58:03Z</time></trkpt><trkpt lat="45.60488108456302" lon="11.094949757212417"><ele>1081.0</ele><time>2026-03-23T08:58:04Z</time></trkpt><trkpt lat="45.60478486653484" lon="11.094944821307356"><ele>1081.0</ele><time>2026-03-23T08:58:05Z</time></trkpt><trkpt lat="45.60468166106083" lon="11.09494246909296"><ele>1081.0</ele><time>2026-03-23T08:58:06Z</time></trkpt><trkpt lat="45.60457573978264" lon="11.094941472137744"><ele>1081.0</ele><time>2026-03-23T08:58:07Z</time></trkpt><trkpt lat="45.604479390699225" lon="11.09494657570547"><ele>1081.0</ele><time>2026-03-23T08:58:08Z</time></trkpt><trkpt lat="45.604385898444725" lon="11.094948191500617"><ele>1080.2</ele><time>2026-03-23T08:58:09Z</time></trkpt><trkpt lat="45.60429750582384" lon="11.094947610391314"><ele>1079.3999999999999</ele><time>2026-03-23T08:58:10Z</time></trkpt><trkpt lat="45.604211467631615" lon="11.094945276627183"><ele>1078.6</ele><time>2026-03-23T08:58:11Z</time></trkpt><trkpt lat="45.6041232275162" lon="11.094938202151338"><ele>1077.8</ele><time>2026-03-23T08:58:12Z</time></trkpt><trkpt lat="45.604021505319984" lon="11.094937067714485"><ele>1077.0</ele><time>2026-03-23T08:58:13Z</time></trkpt><trkpt lat="45.60391244212116" lon="11.094937385542842"><ele>1077.0</ele><time>2026-03-23T08:58:14Z</time></trkpt><trkpt lat="45.603808102630616" lon="11.094954632325923"><ele>1077.0</ele><time>2026-03-23T08:58:15Z</time></trkpt><trkpt lat="45.60370953572509" lon="11.09499461358875"><ele>1077.0</ele><time>2026-03-23T08:58:16Z</time></trkpt><trkpt lat="45.6036155618591" lon="11.09507220515103"><ele>1077.0</ele><time>2026-03-23T08:58:17Z</time></trkpt><trkpt lat="45.603525605838676" lon="11.095169283964164"><ele>1077.0</ele><time>2026-03-23T08:58:18Z</time></trkpt><trkpt lat="45.603446666369166" lon="11.095280934385212"><ele>1078.8</ele><time>2026-03-23T08:58:19Z</time></trkpt><trkpt lat="45.603360371270895" lon="11.095387752280221"><ele>1080.6</ele><time>2026-03-23T08:58:20Z</time></trkpt><trkpt lat="45.60327064170391" lon="11.095482743492097"><ele>1082.3999999999999</ele><time>2026-03-23T08:58:21Z</time></trkpt><trkpt lat="45.60317382236622" lon="11.095560093794589"><ele>1084.2</ele><time>2026-03-23T08:58:22Z</time></trkpt><trkpt lat="45.60308567069928" lon="11.095618314436978"><ele>1086.0</ele><time>2026-03-23T08:58:23Z</time></trkpt><trkpt lat="45.60300089532153" lon="11.095668392250271"><ele>1086.0</ele><time>2026-03-23T08:58:24Z</time></trkpt><trkpt lat="45.60292515128572" lon="11.095708890910428"><ele>1086.0</ele><time>2026-03-23T08:58:25Z</time></trkpt><trkpt lat="45.602859660441005" lon="11.095759946286199"><ele>1086.0</ele><time>2026-03-23T08:58:26Z</time></trkpt><trkpt lat="45.60281462473493" lon="11.09583548218961"><ele>1086.0</ele><time>2026-03-23T08:58:27Z</time></trkpt><trkpt lat="45.6028078887839" lon="11.096034759246313"><ele>1086.0</ele><time>2026-03-23T08:58:29Z</time></trkpt><trkpt lat="45.602838107994636" lon="11.096145341050827"><ele>1086.0</ele><time>2026-03-23T08:58:30Z</time></trkpt><trkpt lat="45.60289092655354" lon="11.09625342699153"><ele>1083.2</ele><time>2026-03-23T08:58:31Z</time></trkpt><trkpt lat="45.60296509795768" lon="11.096354784743912"><ele>1080.3999999999999</ele><time>2026-03-23T08:58:32Z</time></trkpt><trkpt lat="45.60304023563042" lon="11.096472778040559"><ele>1077.6</ele><time>2026-03-23T08:58:33Z</time></trkpt><trkpt lat="45.603096144998545" lon="11.096609788374215"><ele>1074.8</ele><time>2026-03-23T08:58:34Z</time></trkpt><trkpt lat="45.60315471340629" lon="11.096735081148346"><ele>1072.0</ele><time>2026-03-23T08:58:35Z</time></trkpt><trkpt lat="45.603199766620975" lon="11.096860007633726"><ele>1071.25</ele><time>2026-03-23T08:58:36Z</time></trkpt><trkpt lat="45.60323113768138" lon="11.096998823200478"><ele>1070.5</ele><time>2026-03-23T08:58:37Z</time></trkpt><trkpt lat="45.603255979490015" lon="11.097163047412817"><ele>1069.75</ele><time>2026-03-23T08:58:38Z</time></trkpt><trkpt lat="45.603262000596345" lon="11.097336295675364"><ele>1069.0</ele><time>2026-03-23T08:58:39Z</time></trkpt><trkpt lat="45.60325479217119" lon="11.097513320776493"><ele>1069.0</ele><time>2026-03-23T08:58:40Z</time></trkpt><trkpt lat="45.60324250803034" lon="11.09767049837968"><ele>1069.0</ele><time>2026-03-23T08:58:41Z</time></trkpt><trkpt lat="45.60323224084085" lon="11.097830296008071"><ele>1069.0</ele><time>2026-03-23T08:58:42Z</time></trkpt><trkpt lat="45.603217578025735" lon="11.097987026078007"><ele>1069.0</ele><time>2026-03-23T08:58:43Z</time></trkpt><trkpt lat="45.60319585100096" lon="11.098150770340112"><ele>1068.0</ele><time>2026-03-23T08:58:44Z</time></trkpt><trkpt lat="45.60316573861798" lon="11.098308655431364"><ele>1067.0</ele><time>2026-03-23T08:58:45Z</time></trkpt><trkpt lat="45.60313085574446" lon="11.098464538276941"><ele>1066.0</ele><time>2026-03-23T08:58:46Z</time></trkpt><trkpt lat="45.603088341918316" lon="11.098614461865221"><ele>1065.0</ele><time>2026-03-23T08:58:47Z</time></trkpt><trkpt lat="45.603050072331214" lon="11.09876090019781"><ele>1065.0</ele><time>2026-03-23T08:58:48Z</time></trkpt><trkpt lat="45.60301123313407" lon="11.098908941552445"><ele>1065.0</ele><time>2026-03-23T08:58:49Z</time></trkpt><trkpt lat="45.60297071811232" lon="11.099065194549556"><ele>1065.0</ele><time>2026-03-23T08:58:50Z</time></trkpt><trkpt lat="45.60293397756858" lon="11.099222606808281"><ele>1065.0</ele><time>2026-03-23T08:58:51Z</time></trkpt><trkpt lat="45.60289841886212" lon="11.099378416876279"><ele>1064.6</ele><time>2026-03-23T08:58:52Z</time></trkpt><trkpt lat="45.602863141208886" lon="11.099527876644224"><ele>1064.2</ele><time>2026-03-23T08:58:53Z</time></trkpt><trkpt lat="45.602827742715775" lon="11.099664696047"><ele>1063.8</ele><time>2026-03-23T08:58:54Z</time></trkpt><trkpt lat="45.60279073124412" lon="11.09978199954215"><ele>1063.4</ele><time>2026-03-23T08:58:55Z</time></trkpt><trkpt lat="45.60273601543252" lon="11.099889310265315"><ele>1063.0</ele><time>2026-03-23T08:58:56Z</time></trkpt><trkpt lat="45.60266586821733" lon="11.099980903225532"><ele>1062.4</ele><time>2026-03-23T08:58:57Z</time></trkpt><trkpt lat="45.602585617338086" lon="11.100050887873968"><ele>1061.8</ele><time>2026-03-23T08:58:58Z</time></trkpt><trkpt lat="45.602498733992334" lon="11.100085713033568"><ele>1061.2</ele><time>2026-03-23T08:58:59Z</time></trkpt><trkpt lat="45.602408919332056" lon="11.100081212054455"><ele>1060.6</ele><time>2026-03-23T08:59:00Z</time></trkpt><trkpt lat="45.60233189210322" lon="11.10002527827725"><ele>1060.0</ele><time>2026-03-23T08:59:01Z</time></trkpt><trkpt lat="45.60224804328668" lon="11.09997390176179"><ele>1058.6</ele><time>2026-03-23T08:59:02Z</time></trkpt><trkpt lat="45.602169591670815" lon="11.099893038617633"><ele>1057.2</ele><time>2026-03-23T08:59:03Z</time></trkpt><trkpt lat="45.60211646592204" lon="11.099787242832683"><ele>1055.8</ele><time>2026-03-23T08:59:04Z</time></trkpt><trkpt lat="45.60207089011098" lon="11.099679042329758"><ele>1054.4</ele><time>2026-03-23T08:59:05Z</time></trkpt><trkpt lat="45.602014003885586" lon="11.099559370375301"><ele>1053.0</ele><time>2026-03-23T08:59:06Z</time></trkpt><trkpt lat="45.601960318180986" lon="11.099421123000857"><ele>1053.0</ele><time>2026-03-23T08:59:07Z</time></trkpt><trkpt lat="45.60188469795623" lon="11.099235953999795"><ele>1053.0</ele><time>2026-03-23T08:59:08Z</time></trkpt><trkpt lat="45.60175663815674" lon="11.099038901019949"><ele>1053.0</ele><time>2026-03-23T08:59:09Z</time></trkpt><trkpt lat="45.60160926480702" lon="11.098898069593252"><ele>1056.0</ele><time>2026-03-23T08:59:10Z</time></trkpt><trkpt lat="45.60143190475343" lon="11.098824020699276"><ele>1059.0</ele><time>2026-03-23T08:59:11Z</time></trkpt><trkpt lat="45.60122580990989" lon="11.098749377570442"><ele>1062.0</ele><time>2026-03-23T08:59:12Z</time></trkpt><trkpt lat="45.60099346510006" lon="11.098676990397216"><ele>1062.0</ele><time>2026-03-23T08:59:13Z</time></trkpt><trkpt lat="45.600816842721436" lon="11.098629932442595"><ele>1062.0</ele><time>2026-03-23T08:59:14Z</time></trkpt><trkpt lat="45.60062922970029" lon="11.09864035196347"><ele>1062.0</ele><time>2026-03-23T08:59:15Z</time></trkpt><trkpt lat="45.600426774517885" lon="11.098715013424924"><ele>1064.0</ele><time>2026-03-23T08:59:16Z</time></trkpt><trkpt lat="45.600224624825984" lon="11.098826700318451"><ele>1066.0</ele><time>2026-03-23T08:59:17Z</time></trkpt><trkpt lat="45.600037584496505" lon="11.098983664990762"><ele>1068.0</ele><time>2026-03-23T08:59:18Z</time></trkpt><trkpt lat="45.59987267061558" lon="11.099163173770142"><ele>1065.3333333333333</ele><time>2026-03-23T08:59:19Z</time></trkpt><trkpt lat="45.59972861306619" lon="11.099333296286652"><ele>1062.6666666666665</ele><time>2026-03-23T08:59:20Z</time></trkpt><trkpt lat="45.599576739140836" lon="11.099500663828879"><ele>1060.0</ele><time>2026-03-23T08:59:21Z</time></trkpt><trkpt lat="45.599407591934316" lon="11.099672722050599"><ele>1060.0</ele><time>2026-03-23T08:59:22Z</time></trkpt><trkpt lat="45.5992498677221" lon="11.099826273695276"><ele>1060.0</ele><time>2026-03-23T08:59:23Z</time></trkpt><trkpt lat="45.599100657298976" lon="11.099969662201854"><ele>1060.0</ele><time>2026-03-23T08:59:24Z</time></trkpt><trkpt lat="45.598958159070406" lon="11.100103663230412"><ele>1054.0</ele><time>2026-03-23T08:59:25Z</time></trkpt><trkpt lat="45.59882440951596" lon="11.100221242535271"><ele>1048.0</ele><time>2026-03-23T08:59:26Z</time></trkpt><trkpt lat="45.59867383977265" lon="11.100293774673247"><ele>1042.0</ele><time>2026-03-23T08:59:27Z</time></trkpt><trkpt lat="45.59851615038114" lon="11.100319505343288"><ele>1042.0</ele><time>2026-03-23T08:59:28Z</time></trkpt><trkpt lat="45.59836296441772" lon="11.10030713431874"><ele>1042.0</ele><time>2026-03-23T08:59:29Z</time></trkpt><trkpt lat="45.59824044051817" lon="11.10026112967963"><ele>1042.0</ele><time>2026-03-23T08:59:30Z</time></trkpt><trkpt lat="45.59813359850682" lon="11.100195569991678"><ele>1042.0</ele><time>2026-03-23T08:59:31Z</time></trkpt><trkpt lat="45.59803284978591" lon="11.100108615643645"><ele>1042.0</ele><time>2026-03-23T08:59:32Z</time></trkpt><trkpt lat="45.597921987282106" lon="11.099986977218233"><ele>1042.0</ele><time>2026-03-23T08:59:33Z</time></trkpt><trkpt lat="45.59778825031571" lon="11.099856892430491"><ele>1042.0</ele><time>2026-03-23T08:59:34Z</time></trkpt><trkpt lat="45.597634333569076" lon="11.099710331807621"><ele>1043.0</ele><time>2026-03-23T08:59:35Z</time></trkpt><trkpt lat="45.597480164914614" lon="11.099558331178569"><ele>1044.0</ele><time>2026-03-23T08:59:36Z</time></trkpt><trkpt lat="45.597323305530146" lon="11.099431300310775"><ele>1045.0</ele><time>2026-03-23T08:59:37Z</time></trkpt><trkpt lat="45.597172974602024" lon="11.09933388980486"><ele>1045.0</ele><time>2026-03-23T08:59:38Z</time></trkpt><trkpt lat="45.597043661346866" lon="11.09923890734691"><ele>1045.0</ele><time>2026-03-23T08:59:39Z</time></trkpt><trkpt lat="45.59694234776568" lon="11.099161944718054"><ele>1045.0</ele><time>2026-03-23T08:59:40Z</time></trkpt><trkpt lat="45.59683328928743" lon="11.099033609452064"><ele>1045.0</ele><time>2026-03-23T08:59:41Z</time></trkpt><trkpt lat="45.59676293272703" lon="11.098923124286824"><ele>1043.25</ele><time>2026-03-23T08:59:42Z</time></trkpt><trkpt lat="45.596715034511696" lon="11.098766253463552"><ele>1041.5</ele><time>2026-03-23T08:59:43Z</time></trkpt><trkpt lat="45.59670378563704" lon="11.098567334848301"><ele>1039.75</ele><time>2026-03-23T08:59:44Z</time></trkpt><trkpt lat="45.596737984166744" lon="11.098362768717248"><ele>1038.0</ele><time>2026-03-23T08:59:45Z</time></trkpt><trkpt lat="45.596770112326574" lon="11.098130216274964"><ele>1038.0</ele><time>2026-03-23T08:59:46Z</time></trkpt><trkpt lat="45.59677476886814" lon="11.097926291755"><ele>1038.0</ele><time>2026-03-23T08:59:47Z</time></trkpt><trkpt lat="45.59673822182336" lon="11.097743879866512"><ele>1038.0</ele><time>2026-03-23T08:59:48Z</time></trkpt><trkpt lat="45.59665072978173" lon="11.097571174877338"><ele>1038.0</ele><time>2026-03-23T08:59:49Z</time></trkpt><trkpt lat="45.596525763734974" lon="11.097446094910357"><ele>1036.3333333333333</ele><time>2026-03-23T08:59:50Z</time></trkpt><trkpt lat="45.596361267932515" lon="11.097360555542814"><ele>1034.6666666666665</ele><time>2026-03-23T08:59:51Z</time></trkpt><trkpt lat="45.596169837732404" lon="11.097305834681976"><ele>1033.0</ele><time>2026-03-23T08:59:52Z</time></trkpt><trkpt lat="45.59598614380589" lon="11.097239789580037"><ele>1033.0</ele><time>2026-03-23T08:59:53Z</time></trkpt><trkpt lat="45.59583247988388" lon="11.097164398102299"><ele>1033.0</ele><time>2026-03-23T08:59:54Z</time></trkpt><trkpt lat="45.59569827002426" lon="11.097056544610579"><ele>1033.0</ele><time>2026-03-23T08:59:55Z</time></trkpt><trkpt lat="45.59557621832882" lon="11.096915547787129"><ele>1033.0</ele><time>2026-03-23T08:59:56Z</time></trkpt><trkpt lat="45.59549149792781" lon="11.09673888373829"><ele>1033.0</ele><time>2026-03-23T08:59:57Z</time></trkpt><trkpt lat="45.59543182776629" lon="11.096528833620043"><ele>1033.0</ele><time>2026-03-23T08:59:58Z</time></trkpt><trkpt lat="45.59540066587167" lon="11.096299061960634"><ele>1033.0</ele><time>2026-03-23T08:59:59Z</time></trkpt><trkpt lat="45.595407027049774" lon="11.096062666327917"><ele>1033.0</ele><time>2026-03-23T09:00:00Z</time></trkpt><trkpt lat="45.59545390873811" lon="11.095829582803477"><ele>1033.0</ele><time>2026-03-23T09:00:01Z</time></trkpt><trkpt lat="45.59553415538926" lon="11.095602372339911"><ele>1033.0</ele><time>2026-03-23T09:00:02Z</time></trkpt><trkpt lat="45.59562972867948" lon="11.095390818981569"><ele>1033.0</ele><time>2026-03-23T09:00:03Z</time></trkpt><trkpt lat="45.595729409406076" lon="11.095138415012896"><ele>1033.0</ele><time>2026-03-23T09:00:04Z</time></trkpt><trkpt lat="45.59578865992502" lon="11.094900039929264"><ele>1031.6666666666665</ele><time>2026-03-23T09:00:05Z</time></trkpt><trkpt lat="45.59580790671703" lon="11.094668808798037"><ele>1030.3333333333333</ele><time>2026-03-23T09:00:06Z</time></trkpt><trkpt lat="45.59577622369879" lon="11.094437286418088"><ele>1029.0</ele><time>2026-03-23T09:00:07Z</time></trkpt><trkpt lat="45.595705643033504" lon="11.094170219286902"><ele>1030.0</ele><time>2026-03-23T09:00:08Z</time></trkpt><trkpt lat="45.595606267107556" lon="11.093883999779766"><ele>1031.0</ele><time>2026-03-23T09:00:09Z</time></trkpt><trkpt lat="45.5955271830327" lon="11.09355403642794"><ele>1031.0</ele><time>2026-03-23T09:00:10Z</time></trkpt><trkpt lat="45.595442353155114" lon="11.093267076407628"><ele>1031.0</ele><time>2026-03-23T09:00:11Z</time></trkpt><trkpt lat="45.595339736380744" lon="11.093026388765889"><ele>1031.0</ele><time>2026-03-23T09:00:12Z</time></trkpt><trkpt lat="45.595222688660954" lon="11.092799562945808"><ele>1030.3333333333335</ele><time>2026-03-23T09:00:13Z</time></trkpt><trkpt lat="45.59508351479837" lon="11.092585514582003"><ele>1029.6666666666667</ele><time>2026-03-23T09:00:14Z</time></trkpt><trkpt lat="45.59494880642919" lon="11.0924103363037"><ele>1029.0</ele><time>2026-03-23T09:00:15Z</time></trkpt><trkpt lat="45.59482694647848" lon="11.092274014681216"><ele>1029.0</ele><time>2026-03-23T09:00:16Z</time></trkpt><trkpt lat="45.594689467583734" lon="11.092144319773126"><ele>1029.0</ele><time>2026-03-23T09:00:17Z</time></trkpt><trkpt lat="45.594534169531315" lon="11.091964817616338"><ele>1029.0</ele><time>2026-03-23T09:00:18Z</time></trkpt><trkpt lat="45.594347463044876" lon="11.091781389019127"><ele>1026.6666666666667</ele><time>2026-03-23T09:00:19Z</time></trkpt><trkpt lat="45.594169910130134" lon="11.09160695324222"><ele>1024.3333333333335</ele><time>2026-03-23T09:00:20Z</time></trkpt><trkpt lat="45.59400807868214" lon="11.091447962976886"><ele>1022.0</ele><time>2026-03-23T09:00:21Z</time></trkpt><trkpt lat="45.59384960449659" lon="11.09130043275971"><ele>1022.0</ele><time>2026-03-23T09:00:22Z</time></trkpt><trkpt lat="45.59370360484995" lon="11.091154092594648"><ele>1022.0</ele><time>2026-03-23T09:00:23Z</time></trkpt><trkpt lat="45.59355544355911" lon="11.091022070898804"><ele>1022.0</ele><time>2026-03-23T09:00:24Z</time></trkpt><trkpt lat="45.593412820272775" lon="11.090865203212102"><ele>1017.6666666666667</ele><time>2026-03-23T09:00:25Z</time></trkpt><trkpt lat="45.593279048080255" lon="11.090684813765147"><ele>1013.3333333333333</ele><time>2026-03-23T09:00:26Z</time></trkpt><trkpt lat="45.593166229250556" lon="11.09049769846149"><ele>1009.0</ele><time>2026-03-23T09:00:27Z</time></trkpt><trkpt lat="45.59307757789578" lon="11.090281959315845"><ele>1009.0</ele><time>2026-03-23T09:00:28Z</time></trkpt><trkpt lat="45.59297800032029" lon="11.090074679012899"><ele>1009.0</ele><time>2026-03-23T09:00:29Z</time></trkpt><trkpt lat="45.59289537993668" lon="11.089840096813223"><ele>1009.0</ele><time>2026-03-23T09:00:30Z</time></trkpt><trkpt lat="45.59280802802972" lon="11.08961922435223"><ele>1003.3333333333333</ele><time>2026-03-23T09:00:31Z</time></trkpt><trkpt lat="45.5927215703205" lon="11.089409164098372"><ele>997.6666666666667</ele><time>2026-03-23T09:00:32Z</time></trkpt><trkpt lat="45.59264066088679" lon="11.089210810904742"><ele>992.0</ele><time>2026-03-23T09:00:33Z</time></trkpt><trkpt lat="45.59256291350149" lon="11.089015374993725"><ele>991.25</ele><time>2026-03-23T09:00:34Z</time></trkpt><trkpt lat="45.59248277829152" lon="11.088828319669386"><ele>990.5</ele><time>2026-03-23T09:00:35Z</time></trkpt><trkpt lat="45.5924226370111" lon="11.088640669892422"><ele>989.75</ele><time>2026-03-23T09:00:36Z</time></trkpt><trkpt lat="45.59235747680928" lon="11.088489543365403"><ele>989.0</ele><time>2026-03-23T09:00:37Z</time></trkpt><trkpt lat="45.59233058851949" lon="11.088323351996655"><ele>988.25</ele><time>2026-03-23T09:00:38Z</time></trkpt><trkpt lat="45.592341699229145" lon="11.088159682775535"><ele>987.5</ele><time>2026-03-23T09:00:39Z</time></trkpt><trkpt lat="45.592413841858914" lon="11.088015076147952"><ele>986.75</ele><time>2026-03-23T09:00:40Z</time></trkpt><trkpt lat="45.59248804889584" lon="11.087875829638856"><ele>986.0</ele><time>2026-03-23T09:00:41Z</time></trkpt><trkpt lat="45.59261744426348" lon="11.087838206419502"><ele>986.0</ele><time>2026-03-23T09:00:42Z</time></trkpt><trkpt lat="45.59272609363709" lon="11.087771488887318"><ele>985.9999999999999</ele><time>2026-03-23T09:00:43Z</time></trkpt><trkpt lat="45.592810831767984" lon="11.087706158243497"><ele>985.9999999999999</ele><time>2026-03-23T09:00:44Z</time></trkpt><trkpt lat="45.592847790403226" lon="11.087581221273307"><ele>986.0</ele><time>2026-03-23T09:00:45Z</time></trkpt><trkpt lat="45.592836666300975" lon="11.087435923441282"><ele>986.0</ele><time>2026-03-23T09:00:46Z</time></trkpt><trkpt lat="45.59276697465991" lon="11.087304207415771"><ele>988.6666666666667</ele><time>2026-03-23T09:00:47Z</time></trkpt><trkpt lat="45.592654314048495" lon="11.087210030515129"><ele>991.3333333333333</ele><time>2026-03-23T09:00:48Z</time></trkpt><trkpt lat="45.59249324081395" lon="11.08713641129184"><ele>994.0</ele><time>2026-03-23T09:00:49Z</time></trkpt><trkpt lat="45.59231037184207" lon="11.0870377937173"><ele>994.0</ele><time>2026-03-23T09:00:50Z</time></trkpt><trkpt lat="45.59213960614324" lon="11.086919684572733"><ele>994.0</ele><time>2026-03-23T09:00:51Z</time></trkpt><trkpt lat="45.59196470022985" lon="11.086817548157324"><ele>994.0</ele><time>2026-03-23T09:00:52Z</time></trkpt><trkpt lat="45.59178912672466" lon="11.086685691194822"><ele>992.3333333333333</ele><time>2026-03-23T09:00:53Z</time></trkpt><trkpt lat="45.591618914371224" lon="11.086569446365107"><ele>990.6666666666667</ele><time>2026-03-23T09:00:54Z</time></trkpt><trkpt lat="45.59145601394597" lon="11.086465311684254"><ele>989.0</ele><time>2026-03-23T09:00:55Z</time></trkpt><trkpt lat="45.59129930232379" lon="11.086337155441946"><ele>979.0</ele><time>2026-03-23T09:00:56Z</time></trkpt><trkpt lat="45.59115641221747" lon="11.086177292795893"><ele>969.0</ele><time>2026-03-23T09:00:57Z</time></trkpt><trkpt lat="45.591021224475924" lon="11.085987287753284"><ele>959.0</ele><time>2026-03-23T09:00:58Z</time></trkpt><trkpt lat="45.5908942156161" lon="11.085779624248259"><ele>964.6666666666667</ele><time>2026-03-23T09:00:59Z</time></trkpt><trkpt lat="45.590763308731056" lon="11.085586831260795"><ele>970.3333333333333</ele><time>2026-03-23T09:01:00Z</time></trkpt><trkpt lat="45.59062764460435" lon="11.085408946489636"><ele>976.0</ele><time>2026-03-23T09:01:01Z</time></trkpt><trkpt lat="45.59049912890778" lon="11.085238199576938"><ele>976.0</ele><time>2026-03-23T09:01:02Z</time></trkpt><trkpt lat="45.59039688855773" lon="11.085047182652009"><ele>976.0</ele><time>2026-03-23T09:01:03Z</time></trkpt><trkpt lat="45.5902974761359" lon="11.084855025133223"><ele>976.0</ele><time>2026-03-23T09:01:04Z</time></trkpt><trkpt lat="45.590190300685286" lon="11.084660488780548"><ele>966.6666666666666</ele><time>2026-03-23T09:01:05Z</time></trkpt><trkpt lat="45.590111855829555" lon="11.0844365502903"><ele>957.3333333333333</ele><time>2026-03-23T09:01:06Z</time></trkpt><trkpt lat="45.59004609201178" lon="11.084212157210038"><ele>948.0</ele><time>2026-03-23T09:01:07Z</time></trkpt><trkpt lat="45.590000024047114" lon="11.083989269014088"><ele>946.75</ele><time>2026-03-23T09:01:08Z</time></trkpt><trkpt lat="45.58997959573486" lon="11.083771145843858"><ele>945.5</ele><time>2026-03-23T09:01:09Z</time></trkpt><trkpt lat="45.58997539982674" lon="11.083553875170004"><ele>944.25</ele><time>2026-03-23T09:01:10Z</time></trkpt><trkpt lat="45.58999506623136" lon="11.083360807779272"><ele>943.0</ele><time>2026-03-23T09:01:11Z</time></trkpt><trkpt lat="45.59004479786482" lon="11.083192729250557"><ele>940.25</ele><time>2026-03-23T09:01:12Z</time></trkpt><trkpt lat="45.5901183244127" lon="11.083049185963233"><ele>937.5</ele><time>2026-03-23T09:01:13Z</time></trkpt><trkpt lat="45.59020006303677" lon="11.082942246098863"><ele>934.75</ele><time>2026-03-23T09:01:14Z</time></trkpt><trkpt lat="45.59026528503938" lon="11.082843363126658"><ele>932.0</ele><time>2026-03-23T09:01:15Z</time></trkpt><trkpt lat="45.59022957665133" lon="11.08267940184222"><ele>932.0</ele><time>2026-03-23T09:01:17Z</time></trkpt><trkpt lat="45.5901558424503" lon="11.082656644579417"><ele>932.0</ele><time>2026-03-23T09:01:18Z</time></trkpt><trkpt lat="45.59008679436238" lon="11.082674495635816"><ele>932.0</ele><time>2026-03-23T09:01:19Z</time></trkpt><trkpt lat="45.59003411248988" lon="11.082818415008617"><ele>932.0</ele><time>2026-03-23T09:01:20Z</time></trkpt><trkpt lat="45.58998404505535" lon="11.08298977534321"><ele>932.0</ele><time>2026-03-23T09:01:21Z</time></trkpt><trkpt lat="45.58991595632033" lon="11.083159635828439"><ele>934.75</ele><time>2026-03-23T09:01:22Z</time></trkpt><trkpt lat="45.589849020902925" lon="11.083328473409178"><ele>937.5</ele><time>2026-03-23T09:01:23Z</time></trkpt><trkpt lat="45.58978956625183" lon="11.08351183046984"><ele>940.25</ele><time>2026-03-23T09:01:24Z</time></trkpt><trkpt lat="45.589740164089704" lon="11.083682852990464"><ele>943.0</ele><time>2026-03-23T09:01:25Z</time></trkpt><trkpt lat="45.589697215273546" lon="11.083853666455479"><ele>943.0</ele><time>2026-03-23T09:01:26Z</time></trkpt><trkpt lat="45.589674969953336" lon="11.084040993402096"><ele>943.0</ele><time>2026-03-23T09:01:27Z</time></trkpt><trkpt lat="45.589665513212516" lon="11.084232301130708"><ele>943.0</ele><time>2026-03-23T09:01:28Z</time></trkpt><trkpt lat="45.58966820852354" lon="11.08441807247613"><ele>943.0</ele><time>2026-03-23T09:01:29Z</time></trkpt><trkpt lat="45.5896922287286" lon="11.084593382526307"><ele>942.5999999999999</ele><time>2026-03-23T09:01:30Z</time></trkpt><trkpt lat="45.58973056177098" lon="11.084756752153666"><ele>942.1999999999999</ele><time>2026-03-23T09:01:31Z</time></trkpt><trkpt lat="45.58975912596328" lon="11.084913578053872"><ele>941.8</ele><time>2026-03-23T09:01:32Z</time></trkpt><trkpt lat="45.58976846013967" lon="11.085053116093764"><ele>941.4</ele><time>2026-03-23T09:01:33Z</time></trkpt><trkpt lat="45.58977042196335" lon="11.085146786824872"><ele>941.0</ele><time>2026-03-23T09:01:34Z</time></trkpt><trkpt lat="45.58966471318718" lon="11.085266309357507"><ele>941.0000000000001</ele><time>2026-03-23T09:01:36Z</time></trkpt><trkpt lat="45.58959181474719" lon="11.085265882903759"><ele>941.0</ele><time>2026-03-23T09:01:37Z</time></trkpt><trkpt lat="45.589530009294556" lon="11.085222272951187"><ele>941.0</ele><time>2026-03-23T09:01:38Z</time></trkpt><trkpt lat="45.5894842006588" lon="11.085152255627047"><ele>941.0</ele><time>2026-03-23T09:01:39Z</time></trkpt><trkpt lat="45.58945387679105" lon="11.085043161559462"><ele>941.0000000000001</ele><time>2026-03-23T09:01:40Z</time></trkpt><trkpt lat="45.58943746528455" lon="11.084904752698634"><ele>941.0</ele><time>2026-03-23T09:01:41Z</time></trkpt><trkpt lat="45.589438820186686" lon="11.084739959633703"><ele>934.5</ele><time>2026-03-23T09:01:42Z</time></trkpt><trkpt lat="45.589441265903595" lon="11.084556594461455"><ele>928.0</ele><time>2026-03-23T09:01:43Z</time></trkpt><trkpt lat="45.58943960216844" lon="11.084376647827035"><ele>921.5</ele><time>2026-03-23T09:01:44Z</time></trkpt><trkpt lat="45.58944119071299" lon="11.084184368084468"><ele>915.0</ele><time>2026-03-23T09:01:45Z</time></trkpt><trkpt lat="45.58944594516293" lon="11.083982955331512"><ele>913.25</ele><time>2026-03-23T09:01:46Z</time></trkpt><trkpt lat="45.58944967078892" lon="11.083776118980637"><ele>911.5</ele><time>2026-03-23T09:01:47Z</time></trkpt><trkpt lat="45.589465230734405" lon="11.083586751122686"><ele>909.75</ele><time>2026-03-23T09:01:48Z</time></trkpt><trkpt lat="45.58947261733043" lon="11.08338715407002"><ele>908.0</ele><time>2026-03-23T09:01:49Z</time></trkpt><trkpt lat="45.58947560237866" lon="11.083206516270227"><ele>905.5</ele><time>2026-03-23T09:01:50Z</time></trkpt><trkpt lat="45.58949612481107" lon="11.083027949038453"><ele>903.0</ele><time>2026-03-23T09:01:51Z</time></trkpt><trkpt lat="45.58952510697998" lon="11.08284440067486"><ele>900.5</ele><time>2026-03-23T09:01:52Z</time></trkpt><trkpt lat="45.589568038730256" lon="11.082657582078047"><ele>898.0</ele><time>2026-03-23T09:01:53Z</time></trkpt><trkpt lat="45.589621247510365" lon="11.082473920211473"><ele>908.3333333333333</ele><time>2026-03-23T09:01:54Z</time></trkpt><trkpt lat="45.5896527341262" lon="11.082272734816556"><ele>918.6666666666667</ele><time>2026-03-23T09:01:55Z</time></trkpt><trkpt lat="45.58966295739768" lon="11.082052855795197"><ele>929.0</ele><time>2026-03-23T09:01:56Z</time></trkpt><trkpt lat="45.589659983671524" lon="11.081830732871401"><ele>929.0</ele><time>2026-03-23T09:01:57Z</time></trkpt><trkpt lat="45.58961297618103" lon="11.081624267230799"><ele>929.0</ele><time>2026-03-23T09:01:58Z</time></trkpt><trkpt lat="45.58952926837708" lon="11.08138933210943"><ele>929.0</ele><time>2026-03-23T09:01:59Z</time></trkpt><trkpt lat="45.58943759142466" lon="11.081163567731195"><ele>917.6666666666667</ele><time>2026-03-23T09:02:00Z</time></trkpt><trkpt lat="45.58936764834937" lon="11.080944592256756"><ele>906.3333333333333</ele><time>2026-03-23T09:02:01Z</time></trkpt><trkpt lat="45.58931803772713" lon="11.080729076217443"><ele>895.0</ele><time>2026-03-23T09:02:02Z</time></trkpt><trkpt lat="45.58927590281966" lon="11.080520079115733"><ele>894.75</ele><time>2026-03-23T09:02:03Z</time></trkpt><trkpt lat="45.5892560594713" lon="11.080308755644207"><ele>894.5</ele><time>2026-03-23T09:02:04Z</time></trkpt><trkpt lat="45.58924925922953" lon="11.080102668464606"><ele>894.25</ele><time>2026-03-23T09:02:05Z</time></trkpt><trkpt lat="45.58926187558648" lon="11.079882750984863"><ele>894.0</ele><time>2026-03-23T09:02:06Z</time></trkpt><trkpt lat="45.58930820784308" lon="11.079659396116853"><ele>889.6666666666667</ele><time>2026-03-23T09:02:07Z</time></trkpt><trkpt lat="45.58937761417546" lon="11.079438997076098"><ele>885.3333333333334</ele><time>2026-03-23T09:02:08Z</time></trkpt><trkpt lat="45.58945456584518" lon="11.079238087562315"><ele>881.0</ele><time>2026-03-23T09:02:09Z</time></trkpt><trkpt lat="45.58953171654959" lon="11.07903273789238"><ele>889.0</ele><time>2026-03-23T09:02:10Z</time></trkpt><trkpt lat="45.58958866663161" lon="11.078827631507007"><ele>897.0</ele><time>2026-03-23T09:02:11Z</time></trkpt><trkpt lat="45.58963428864692" lon="11.078631944427933"><ele>905.0</ele><time>2026-03-23T09:02:12Z</time></trkpt><trkpt lat="45.589663956041804" lon="11.078447115949983"><ele>913.0</ele><time>2026-03-23T09:02:13Z</time></trkpt><trkpt lat="45.58964788682338" lon="11.078274784432894"><ele>912.3333333333333</ele><time>2026-03-23T09:02:14Z</time></trkpt><trkpt lat="45.589602473826595" lon="11.078097960508375"><ele>911.6666666666667</ele><time>2026-03-23T09:02:15Z</time></trkpt><trkpt lat="45.58953466713995" lon="11.077889607705472"><ele>911.0</ele><time>2026-03-23T09:02:16Z</time></trkpt><trkpt lat="45.589492584309674" lon="11.077659281434505"><ele>899.0</ele><time>2026-03-23T09:02:17Z</time></trkpt><trkpt lat="45.58946827511431" lon="11.077455509679167"><ele>887.0</ele><time>2026-03-23T09:02:18Z</time></trkpt><trkpt lat="45.58946473326558" lon="11.077232555840009"><ele>875.0</ele><time>2026-03-23T09:02:19Z</time></trkpt><trkpt lat="45.58949805429128" lon="11.07700460377261"><ele>877.0</ele><time>2026-03-23T09:02:20Z</time></trkpt><trkpt lat="45.589556715845774" lon="11.076783858567435"><ele>879.0</ele><time>2026-03-23T09:02:21Z</time></trkpt><trkpt lat="45.589641291185025" lon="11.076563703750068"><ele>881.0</ele><time>2026-03-23T09:02:22Z</time></trkpt><trkpt lat="45.58974543100814" lon="11.076311866355926"><ele>881.0</ele><time>2026-03-23T09:02:23Z</time></trkpt><trkpt lat="45.589783352404766" lon="11.076180236175103"><ele>881.0</ele><time>2026-03-23T09:02:24Z</time></trkpt><trkpt lat="45.589851403805795" lon="11.075988017250019"><ele>881.0</ele><time>2026-03-23T09:02:25Z</time></trkpt><trkpt lat="45.589919907522216" lon="11.07579024094231"><ele>881.0</ele><time>2026-03-23T09:02:26Z</time></trkpt><trkpt lat="45.58999337206385" lon="11.075592990093671"><ele>876.6666666666667</ele><time>2026-03-23T09:02:27Z</time></trkpt><trkpt lat="45.590066064082684" lon="11.075385184070218"><ele>872.3333333333333</ele><time>2026-03-23T09:02:28Z</time></trkpt><trkpt lat="45.59014164327902" lon="11.075176956665088"><ele>868.0</ele><time>2026-03-23T09:02:29Z</time></trkpt><trkpt lat="45.59020594186348" lon="11.07497671582302"><ele>863.75</ele><time>2026-03-23T09:02:30Z</time></trkpt><trkpt lat="45.590279998323766" lon="11.074792993562392"><ele>859.5</ele><time>2026-03-23T09:02:31Z</time></trkpt><trkpt lat="45.590351100495745" lon="11.0746143604159"><ele>855.25</ele><time>2026-03-23T09:02:32Z</time></trkpt><trkpt lat="45.59041596264734" lon="11.074436701674093"><ele>851.0</ele><time>2026-03-23T09:02:33Z</time></trkpt><trkpt lat="45.59047391340361" lon="11.07424984034541"><ele>858.0</ele><time>2026-03-23T09:02:34Z</time></trkpt><trkpt lat="45.590519739962446" lon="11.074050608209422"><ele>865.0</ele><time>2026-03-23T09:02:35Z</time></trkpt><trkpt lat="45.59055404424192" lon="11.0738490476229"><ele>872.0</ele><time>2026-03-23T09:02:36Z</time></trkpt><trkpt lat="45.59059467721543" lon="11.073644928864633"><ele>879.0</ele><time>2026-03-23T09:02:37Z</time></trkpt><trkpt lat="45.59064381432452" lon="11.073441374989327"><ele>875.5</ele><time>2026-03-23T09:02:38Z</time></trkpt><trkpt lat="45.59069878931433" lon="11.07324267791574"><ele>872.0</ele><time>2026-03-23T09:02:39Z</time></trkpt><trkpt lat="45.59076218569508" lon="11.073050144120653"><ele>868.5</ele><time>2026-03-23T09:02:40Z</time></trkpt><trkpt lat="45.59082567342094" lon="11.07287966035054"><ele>865.0</ele><time>2026-03-23T09:02:41Z</time></trkpt><trkpt lat="45.590878613288794" lon="11.072694389207701"><ele>865.0</ele><time>2026-03-23T09:02:42Z</time></trkpt><trkpt lat="45.59091265486767" lon="11.072514166926807"><ele>865.0</ele><time>2026-03-23T09:02:43Z</time></trkpt><trkpt lat="45.59095551075221" lon="11.07234875057303"><ele>865.0</ele><time>2026-03-23T09:02:44Z</time></trkpt><trkpt lat="45.59101931077885" lon="11.072197066715733"><ele>865.0</ele><time>2026-03-23T09:02:45Z</time></trkpt><trkpt lat="45.59109076501648" lon="11.072059286729221"><ele>866.6666666666666</ele><time>2026-03-23T09:02:46Z</time></trkpt><trkpt lat="45.59115870994644" lon="11.07195051562563"><ele>868.3333333333333</ele><time>2026-03-23T09:02:47Z</time></trkpt><trkpt lat="45.59121796218217" lon="11.071840311744888"><ele>870.0</ele><time>2026-03-23T09:02:48Z</time></trkpt><trkpt lat="45.591239625884185" lon="11.071736903347167"><ele>871.6666666666667</ele><time>2026-03-23T09:02:49Z</time></trkpt><trkpt lat="45.59121222211661" lon="11.071647714232027"><ele>873.3333333333334</ele><time>2026-03-23T09:02:51Z</time></trkpt><trkpt lat="45.591139003045235" lon="11.071569244556288"><ele>875.0</ele><time>2026-03-23T09:02:54Z</time></trkpt><trkpt lat="45.59105409120207" lon="11.071571957634632"><ele>868.75</ele><time>2026-03-23T09:02:56Z</time></trkpt><trkpt lat="45.59099062828055" lon="11.071694057387846"><ele>862.5</ele><time>2026-03-23T09:02:58Z</time></trkpt><trkpt lat="45.5909454824897" lon="11.071805210115626"><ele>856.25</ele><time>2026-03-23T09:02:59Z</time></trkpt><trkpt lat="45.590899398182195" lon="11.071937814638446"><ele>850.0</ele><time>2026-03-23T09:03:00Z</time></trkpt><trkpt lat="45.59083244154946" lon="11.072145291627024"><ele>850.0</ele><time>2026-03-23T09:03:01Z</time></trkpt><trkpt lat="45.59076162847784" lon="11.072349415354445"><ele>850.0</ele><time>2026-03-23T09:03:02Z</time></trkpt><trkpt lat="45.59070244181685" lon="11.072529534716546"><ele>850.0</ele><time>2026-03-23T09:03:03Z</time></trkpt><trkpt lat="45.590640039903434" lon="11.072706542600587"><ele>850.0</ele><time>2026-03-23T09:03:04Z</time></trkpt><trkpt lat="45.59057125114256" lon="11.072883804618295"><ele>847.5</ele><time>2026-03-23T09:03:05Z</time></trkpt><trkpt lat="45.59049674558767" lon="11.0730549417825"><ele>845.0</ele><time>2026-03-23T09:03:06Z</time></trkpt><trkpt lat="45.59041273278215" lon="11.073212132196597"><ele>842.5</ele><time>2026-03-23T09:03:07Z</time></trkpt><trkpt lat="45.590324631150594" lon="11.073372894666148"><ele>840.0</ele><time>2026-03-23T09:03:08Z</time></trkpt><trkpt lat="45.59023560182308" lon="11.073536667084827"><ele>840.0</ele><time>2026-03-23T09:03:09Z</time></trkpt><trkpt lat="45.590146308577914" lon="11.073699485415924"><ele>840.0</ele><time>2026-03-23T09:03:10Z</time></trkpt><trkpt lat="45.59006261593014" lon="11.073859518200198"><ele>840.0</ele><time>2026-03-23T09:03:11Z</time></trkpt><trkpt lat="45.58997988482549" lon="11.07402169208948"><ele>840.0</ele><time>2026-03-23T09:03:12Z</time></trkpt><trkpt lat="45.58989491743023" lon="11.07417929886546"><ele>842.75</ele><time>2026-03-23T09:03:13Z</time></trkpt><trkpt lat="45.589809394090175" lon="11.074339005408511"><ele>845.5</ele><time>2026-03-23T09:03:14Z</time></trkpt><trkpt lat="45.58971884788234" lon="11.074498285156546"><ele>848.25</ele><time>2026-03-23T09:03:15Z</time></trkpt><trkpt lat="45.5896356809622" lon="11.074655665879876"><ele>851.0</ele><time>2026-03-23T09:03:16Z</time></trkpt><trkpt lat="45.58955147851305" lon="11.074812321047629"><ele>849.0</ele><time>2026-03-23T09:03:17Z</time></trkpt><trkpt lat="45.58946883982166" lon="11.07496787910483"><ele>847.0</ele><time>2026-03-23T09:03:18Z</time></trkpt><trkpt lat="45.58939043557632" lon="11.07508284316804"><ele>845.0</ele><time>2026-03-23T09:03:19Z</time></trkpt><trkpt lat="45.58930640778749" lon="11.07516510766542"><ele>843.0</ele><time>2026-03-23T09:03:20Z</time></trkpt><trkpt lat="45.58920975316306" lon="11.075180780143196"><ele>841.0</ele><time>2026-03-23T09:03:21Z</time></trkpt><trkpt lat="45.58913489765237" lon="11.075133646791388"><ele>841.0</ele><time>2026-03-23T09:03:22Z</time></trkpt><trkpt lat="45.58907060058338" lon="11.0750488072827"><ele>841.0</ele><time>2026-03-23T09:03:23Z</time></trkpt><trkpt lat="45.589013635096855" lon="11.074921443516748"><ele>841.0</ele><time>2026-03-23T09:03:24Z</time></trkpt><trkpt lat="45.589005102752" lon="11.074788858476728"><ele>841.0</ele><time>2026-03-23T09:03:25Z</time></trkpt><trkpt lat="45.58905671530967" lon="11.074639090653225"><ele>841.0</ele><time>2026-03-23T09:03:26Z</time></trkpt><trkpt lat="45.589142047430975" lon="11.07448477635191"><ele>839.6666666666666</ele><time>2026-03-23T09:03:27Z</time></trkpt><trkpt lat="45.589227316731716" lon="11.074294864569417"><ele>838.3333333333333</ele><time>2026-03-23T09:03:28Z</time></trkpt><trkpt lat="45.58931047660353" lon="11.074099740935363"><ele>837.0</ele><time>2026-03-23T09:03:29Z</time></trkpt><trkpt lat="45.5894007324842" lon="11.073865108125702"><ele>836.3333333333333</ele><time>2026-03-23T09:03:30Z</time></trkpt><trkpt lat="45.58949331674395" lon="11.073613515640014"><ele>835.6666666666666</ele><time>2026-03-23T09:03:31Z</time></trkpt><trkpt lat="45.5895704826214" lon="11.073360731675708"><ele>835.0</ele><time>2026-03-23T09:03:32Z</time></trkpt><trkpt lat="45.589633951346016" lon="11.07312488320184"><ele>833.3333333333333</ele><time>2026-03-23T09:03:33Z</time></trkpt><trkpt lat="45.58970159281529" lon="11.072889281893973"><ele>831.6666666666667</ele><time>2026-03-23T09:03:34Z</time></trkpt><trkpt lat="45.58977155595201" lon="11.072658403248953"><ele>830.0</ele><time>2026-03-23T09:03:35Z</time></trkpt><trkpt lat="45.589840437492455" lon="11.07244504431599"><ele>826.6666666666667</ele><time>2026-03-23T09:03:36Z</time></trkpt><trkpt lat="45.58988274714462" lon="11.072219443177925"><ele>823.3333333333333</ele><time>2026-03-23T09:03:37Z</time></trkpt><trkpt lat="45.58990931670981" lon="11.071991819591426"><ele>820.0</ele><time>2026-03-23T09:03:38Z</time></trkpt><trkpt lat="45.58993231222013" lon="11.07176305508612"><ele>818.3333333333333</ele><time>2026-03-23T09:03:39Z</time></trkpt><trkpt lat="45.589960542412655" lon="11.071527978135812"><ele>816.6666666666667</ele><time>2026-03-23T09:03:40Z</time></trkpt><trkpt lat="45.58999608909231" lon="11.071293896324992"><ele>815.0</ele><time>2026-03-23T09:03:41Z</time></trkpt><trkpt lat="45.59003323603238" lon="11.071067422793577"><ele>815.0</ele><time>2026-03-23T09:03:42Z</time></trkpt><trkpt lat="45.59006228921774" lon="11.070843597383238"><ele>815.0</ele><time>2026-03-23T09:03:43Z</time></trkpt><trkpt lat="45.59009146809831" lon="11.070625591384346"><ele>815.0</ele><time>2026-03-23T09:03:44Z</time></trkpt><trkpt lat="45.590130238791645" lon="11.070401189054236"><ele>813.6666666666667</ele><time>2026-03-23T09:03:45Z</time></trkpt><trkpt lat="45.59016967575567" lon="11.070162650570904"><ele>812.3333333333333</ele><time>2026-03-23T09:03:46Z</time></trkpt><trkpt lat="45.5902137671384" lon="11.069925870849252"><ele>811.0</ele><time>2026-03-23T09:03:47Z</time></trkpt><trkpt lat="45.59025517696269" lon="11.069718123891137"><ele>810.0</ele><time>2026-03-23T09:03:48Z</time></trkpt><trkpt lat="45.59029707510935" lon="11.06952235365272"><ele>809.0</ele><time>2026-03-23T09:03:49Z</time></trkpt><trkpt lat="45.590317881704635" lon="11.06932664426334"><ele>808.0</ele><time>2026-03-23T09:03:50Z</time></trkpt><trkpt lat="45.59031111595055" lon="11.069120928513708"><ele>807.0</ele><time>2026-03-23T09:03:51Z</time></trkpt><trkpt lat="45.59027320795558" lon="11.068882427940753"><ele>805.3333333333333</ele><time>2026-03-23T09:03:52Z</time></trkpt><trkpt lat="45.590220760420074" lon="11.068641943756006"><ele>803.6666666666666</ele><time>2026-03-23T09:03:53Z</time></trkpt><trkpt lat="45.59016075820715" lon="11.068424448162427"><ele>802.0</ele><time>2026-03-23T09:03:54Z</time></trkpt><trkpt lat="45.59011476011942" lon="11.068229983769863"><ele>799.5</ele><time>2026-03-23T09:03:55Z</time></trkpt><trkpt lat="45.59005430498551" lon="11.068042408994204"><ele>797.0</ele><time>2026-03-23T09:03:56Z</time></trkpt><trkpt lat="45.589963734545634" lon="11.067872943721449"><ele>794.5</ele><time>2026-03-23T09:03:57Z</time></trkpt><trkpt lat="45.58985167679248" lon="11.067755207012773"><ele>792.0</ele><time>2026-03-23T09:03:58Z</time></trkpt><trkpt lat="45.58973249683947" lon="11.06766853985486"><ele>792.0</ele><time>2026-03-23T09:03:59Z</time></trkpt><trkpt lat="45.58960962607772" lon="11.067632673369856"><ele>792.0</ele><time>2026-03-23T09:04:00Z</time></trkpt><trkpt lat="45.589490609250795" lon="11.067599155527294"><ele>792.0</ele><time>2026-03-23T09:04:01Z</time></trkpt><trkpt lat="45.58938518609986" lon="11.06754916070366"><ele>792.0</ele><time>2026-03-23T09:04:02Z</time></trkpt><trkpt lat="45.58928414422231" lon="11.067515992710048"><ele>792.8</ele><time>2026-03-23T09:04:03Z</time></trkpt><trkpt lat="45.589171544315086" lon="11.067481625872835"><ele>793.6</ele><time>2026-03-23T09:04:04Z</time></trkpt><trkpt lat="45.589064298757854" lon="11.067448798758747"><ele>794.4</ele><time>2026-03-23T09:04:05Z</time></trkpt><trkpt lat="45.588969719666615" lon="11.067419848755627"><ele>795.1999999999999</ele><time>2026-03-23T09:04:06Z</time></trkpt><trkpt lat="45.588896629506195" lon="11.067417931483957"><ele>796.0</ele><time>2026-03-23T09:04:07Z</time></trkpt><trkpt lat="45.58879256344382" lon="11.067373864327775"><ele>796.0</ele><time>2026-03-23T09:04:09Z</time></trkpt><trkpt lat="45.588682054801836" lon="11.067335050700693"><ele>796.0</ele><time>2026-03-23T09:04:11Z</time></trkpt><trkpt lat="45.58857449518068" lon="11.067312454860826"><ele>796.0</ele><time>2026-03-23T09:04:13Z</time></trkpt><trkpt lat="45.58847410348613" lon="11.06727204179941"><ele>796.0</ele><time>2026-03-23T09:04:15Z</time></trkpt><trkpt lat="45.58836953393898" lon="11.067225156123666"><ele>796.0</ele><time>2026-03-23T09:04:17Z</time></trkpt><trkpt lat="45.588306819420275" lon="11.067208720758256"><ele>795.8333333333333</ele><time>2026-03-23T09:04:18Z</time></trkpt><trkpt lat="45.58818222569435" lon="11.06717897002944"><ele>795.6666666666666</ele><time>2026-03-23T09:04:20Z</time></trkpt><trkpt lat="45.588119715274" lon="11.067155975250055"><ele>795.5</ele><time>2026-03-23T09:04:21Z</time></trkpt><trkpt lat="45.588054636772384" lon="11.067125970276658"><ele>795.3333333333333</ele><time>2026-03-23T09:04:22Z</time></trkpt><trkpt lat="45.587990870483786" lon="11.067095669985239"><ele>795.1666666666666</ele><time>2026-03-23T09:04:23Z</time></trkpt><trkpt lat="45.58792924615885" lon="11.067056369997855"><ele>795.0</ele><time>2026-03-23T09:04:24Z</time></trkpt><trkpt lat="45.587875130168534" lon="11.066998068525782"><ele>795.6666666666666</ele><time>2026-03-23T09:04:25Z</time></trkpt><trkpt lat="45.58783275169254" lon="11.066912175006005"><ele>796.3333333333333</ele><time>2026-03-23T09:04:26Z</time></trkpt><trkpt lat="45.58780046683649" lon="11.066821604407687"><ele>797.0</ele><time>2026-03-23T09:04:27Z</time></trkpt><trkpt lat="45.587789719712056" lon="11.066720202343213"><ele>797.6666666666666</ele><time>2026-03-23T09:04:28Z</time></trkpt><trkpt lat="45.58775214196581" lon="11.066526747703273"><ele>798.3333333333333</ele><time>2026-03-23T09:04:30Z</time></trkpt><trkpt lat="45.58771889786871" lon="11.066421513778906"><ele>799.0</ele><time>2026-03-23T09:04:31Z</time></trkpt><trkpt lat="45.587689766873936" lon="11.066306707036857"><ele>797.3333333333333</ele><time>2026-03-23T09:04:32Z</time></trkpt><trkpt lat="45.58765601771883" lon="11.066200118561815"><ele>795.6666666666666</ele><time>2026-03-23T09:04:33Z</time></trkpt><trkpt lat="45.58760409800884" lon="11.066101691005617"><ele>794.0</ele><time>2026-03-23T09:04:34Z</time></trkpt><trkpt lat="45.58754588075564" lon="11.066011463000772"><ele>792.3333333333333</ele><time>2026-03-23T09:04:35Z</time></trkpt><trkpt lat="45.58748289668353" lon="11.065943772205646"><ele>790.6666666666666</ele><time>2026-03-23T09:04:36Z</time></trkpt><trkpt lat="45.5874089671097" lon="11.065887987865525"><ele>789.0</ele><time>2026-03-23T09:04:37Z</time></trkpt><trkpt lat="45.58731888089874" lon="11.065825184555676"><ele>783.6666666666667</ele><time>2026-03-23T09:04:38Z</time></trkpt><trkpt lat="45.58716200176945" lon="11.065733413709115"><ele>778.3333333333334</ele><time>2026-03-23T09:04:39Z</time></trkpt><trkpt lat="45.58695256072694" lon="11.065636891116329"><ele>773.0</ele><time>2026-03-23T09:04:40Z</time></trkpt><trkpt lat="45.586738956487814" lon="11.065534949636964"><ele>773.0</ele><time>2026-03-23T09:04:41Z</time></trkpt><trkpt lat="45.586573935131" lon="11.065442961921644"><ele>773.0</ele><time>2026-03-23T09:04:42Z</time></trkpt><trkpt lat="45.58642019615802" lon="11.065372039300723"><ele>773.0</ele><time>2026-03-23T09:04:43Z</time></trkpt><trkpt lat="45.58627726954472" lon="11.065317459162713"><ele>775.5</ele><time>2026-03-23T09:04:44Z</time></trkpt><trkpt lat="45.586145241985186" lon="11.06525325441659"><ele>778.0</ele><time>2026-03-23T09:04:45Z</time></trkpt><trkpt lat="45.586026993440775" lon="11.065186741307615"><ele>780.5</ele><time>2026-03-23T09:04:46Z</time></trkpt><trkpt lat="45.585899703341205" lon="11.06515104568254"><ele>783.0</ele><time>2026-03-23T09:04:47Z</time></trkpt><trkpt lat="45.58575758632013" lon="11.06516715795665"><ele>783.0</ele><time>2026-03-23T09:04:48Z</time></trkpt><trkpt lat="45.58559405967905" lon="11.065213942420128"><ele>783.0</ele><time>2026-03-23T09:04:49Z</time></trkpt><trkpt lat="45.58544484561629" lon="11.065294164337613"><ele>783.0</ele><time>2026-03-23T09:04:50Z</time></trkpt><trkpt lat="45.5853103533967" lon="11.06535713369182"><ele>781.75</ele><time>2026-03-23T09:04:51Z</time></trkpt><trkpt lat="45.585180039739754" lon="11.065404217551043"><ele>780.5</ele><time>2026-03-23T09:04:52Z</time></trkpt><trkpt lat="45.58505969241881" lon="11.06544608347162"><ele>779.25</ele><time>2026-03-23T09:04:53Z</time></trkpt><trkpt lat="45.58495332033121" lon="11.065498789849231"><ele>778.0</ele><time>2026-03-23T09:04:54Z</time></trkpt><trkpt lat="45.584845499693856" lon="11.065478095843806"><ele>778.0</ele><time>2026-03-23T09:04:55Z</time></trkpt><trkpt lat="45.58472827595778" lon="11.065411928077964"><ele>778.0</ele><time>2026-03-23T09:04:56Z</time></trkpt><trkpt lat="45.58461986481828" lon="11.065288853999725"><ele>778.0</ele><time>2026-03-23T09:04:57Z</time></trkpt><trkpt lat="45.58453576051292" lon="11.065105833649657"><ele>778.0</ele><time>2026-03-23T09:04:58Z</time></trkpt><trkpt lat="45.58444427241494" lon="11.06490526579308"><ele>774.0</ele><time>2026-03-23T09:04:59Z</time></trkpt><trkpt lat="45.58435562674522" lon="11.064667248129458"><ele>770.0</ele><time>2026-03-23T09:05:00Z</time></trkpt><trkpt lat="45.58421242118128" lon="11.064434929616771"><ele>766.0</ele><time>2026-03-23T09:05:01Z</time></trkpt><trkpt lat="45.584063359565896" lon="11.064252402122861"><ele>766.6666666666667</ele><time>2026-03-23T09:05:02Z</time></trkpt><trkpt lat="45.58394004406778" lon="11.06407535562168"><ele>767.3333333333334</ele><time>2026-03-23T09:05:03Z</time></trkpt><trkpt lat="45.583825402115785" lon="11.063894624591729"><ele>768.0</ele><time>2026-03-23T09:05:04Z</time></trkpt><trkpt lat="45.583715712842235" lon="11.063717089116846"><ele>763.0</ele><time>2026-03-23T09:05:05Z</time></trkpt><trkpt lat="45.58361086126007" lon="11.063552972896833"><ele>758.0</ele><time>2026-03-23T09:05:06Z</time></trkpt><trkpt lat="45.58351299826922" lon="11.06338825183411"><ele>753.0</ele><time>2026-03-23T09:05:07Z</time></trkpt><trkpt lat="45.5834216085699" lon="11.063208396577469"><ele>753.0</ele><time>2026-03-23T09:05:08Z</time></trkpt><trkpt lat="45.583335757552895" lon="11.063006237785729"><ele>753.0</ele><time>2026-03-23T09:05:09Z</time></trkpt><trkpt lat="45.58325892914594" lon="11.062800284315411"><ele>753.0</ele><time>2026-03-23T09:05:10Z</time></trkpt><trkpt lat="45.58319196472062" lon="11.062601062657896"><ele>753.6666666666666</ele><time>2026-03-23T09:05:11Z</time></trkpt><trkpt lat="45.58312620740585" lon="11.062409492720787"><ele>754.3333333333333</ele><time>2026-03-23T09:05:12Z</time></trkpt><trkpt lat="45.5830571879782" lon="11.062219613494516"><ele>755.0</ele><time>2026-03-23T09:05:13Z</time></trkpt><trkpt lat="45.582977540429646" lon="11.06201988867987"><ele>755.0</ele><time>2026-03-23T09:05:14Z</time></trkpt><trkpt lat="45.582906474122815" lon="11.061829741323649"><ele>755.0</ele><time>2026-03-23T09:05:15Z</time></trkpt><trkpt lat="45.582849335124415" lon="11.06163644824127"><ele>755.0</ele><time>2026-03-23T09:05:16Z</time></trkpt><trkpt lat="45.58282170749968" lon="11.061438715502703"><ele>755.0</ele><time>2026-03-23T09:05:17Z</time></trkpt><trkpt lat="45.58282324163104" lon="11.061224856384671"><ele>752.0</ele><time>2026-03-23T09:05:18Z</time></trkpt><trkpt lat="45.58287722403476" lon="11.061032145076785"><ele>749.0</ele><time>2026-03-23T09:05:19Z</time></trkpt><trkpt lat="45.582950597215586" lon="11.060851079735805"><ele>746.0</ele><time>2026-03-23T09:05:20Z</time></trkpt><trkpt lat="45.58305121470748" lon="11.060694961899271"><ele>743.0</ele><time>2026-03-23T09:05:21Z</time></trkpt><trkpt lat="45.58317632548772" lon="11.060574434468009"><ele>736.3333333333333</ele><time>2026-03-23T09:05:22Z</time></trkpt><trkpt lat="45.583322417449736" lon="11.060484053303645"><ele>729.6666666666666</ele><time>2026-03-23T09:05:23Z</time></trkpt><trkpt lat="45.58347490074652" lon="11.060431080064737"><ele>723.0</ele><time>2026-03-23T09:05:24Z</time></trkpt><trkpt lat="45.583631452400624" lon="11.060360711726165"><ele>724.0</ele><time>2026-03-23T09:05:25Z</time></trkpt><trkpt lat="45.583785423968365" lon="11.060322452021431"><ele>725.0</ele><time>2026-03-23T09:05:26Z</time></trkpt><trkpt lat="45.58393436425282" lon="11.060267241640062"><ele>726.0</ele><time>2026-03-23T09:05:27Z</time></trkpt><trkpt lat="45.58407545391268" lon="11.060221530200103"><ele>726.0</ele><time>2026-03-23T09:05:28Z</time></trkpt><trkpt lat="45.584211566601844" lon="11.060176868347892"><ele>726.0</ele><time>2026-03-23T09:05:29Z</time></trkpt><trkpt lat="45.58434517241559" lon="11.06013183569214"><ele>726.0</ele><time>2026-03-23T09:05:30Z</time></trkpt><trkpt lat="45.584478532400816" lon="11.060125674539963"><ele>726.0</ele><time>2026-03-23T09:05:31Z</time></trkpt><trkpt lat="45.58462287667449" lon="11.060147746930474"><ele>724.75</ele><time>2026-03-23T09:05:32Z</time></trkpt><trkpt lat="45.58477427719281" lon="11.060154704609085"><ele>723.5</ele><time>2026-03-23T09:05:33Z</time></trkpt><trkpt lat="45.584917108221326" lon="11.0601966777613"><ele>722.25</ele><time>2026-03-23T09:05:34Z</time></trkpt><trkpt lat="45.58505666452947" lon="11.0602220070165"><ele>721.0</ele><time>2026-03-23T09:05:35Z</time></trkpt><trkpt lat="45.58519499626544" lon="11.060240265532391"><ele>721.0</ele><time>2026-03-23T09:05:36Z</time></trkpt><trkpt lat="45.58531842057032" lon="11.060275631301188"><ele>721.0</ele><time>2026-03-23T09:05:37Z</time></trkpt><trkpt lat="45.585434600546755" lon="11.060348942430709"><ele>721.0</ele><time>2026-03-23T09:05:38Z</time></trkpt><trkpt lat="45.585531185367486" lon="11.060461678893521"><ele>721.0</ele><time>2026-03-23T09:05:39Z</time></trkpt><trkpt lat="45.58560653148364" lon="11.060598097339868"><ele>720.0</ele><time>2026-03-23T09:05:40Z</time></trkpt><trkpt lat="45.58566457877927" lon="11.06073302467674"><ele>719.0</ele><time>2026-03-23T09:05:41Z</time></trkpt><trkpt lat="45.58572926787363" lon="11.060846240357318"><ele>718.0</ele><time>2026-03-23T09:05:42Z</time></trkpt><trkpt lat="45.58579019163206" lon="11.06092861810186"><ele>717.0</ele><time>2026-03-23T09:05:43Z</time></trkpt><trkpt lat="45.58586856312066" lon="11.060920777164496"><ele>716.0</ele><time>2026-03-23T09:05:44Z</time></trkpt><trkpt lat="45.585935484327436" lon="11.060857096068675"><ele>716.0</ele><time>2026-03-23T09:05:45Z</time></trkpt><trkpt lat="45.58596250897056" lon="11.060744328413474"><ele>716.0</ele><time>2026-03-23T09:05:46Z</time></trkpt><trkpt lat="45.585940860051295" lon="11.060595585474756"><ele>716.0</ele><time>2026-03-23T09:05:47Z</time></trkpt><trkpt lat="45.58588106216444" lon="11.060443811378637"><ele>716.0</ele><time>2026-03-23T09:05:48Z</time></trkpt><trkpt lat="45.58580977050843" lon="11.060279835516509"><ele>716.0</ele><time>2026-03-23T09:05:49Z</time></trkpt><trkpt lat="45.58576421688077" lon="11.06011059292631"><ele>715.25</ele><time>2026-03-23T09:05:50Z</time></trkpt><trkpt lat="45.58573549728738" lon="11.059949528452254"><ele>714.5</ele><time>2026-03-23T09:05:51Z</time></trkpt><trkpt lat="45.5857339846168" lon="11.059774525931518"><ele>713.75</ele><time>2026-03-23T09:05:52Z</time></trkpt><trkpt lat="45.58574852745613" lon="11.059555989340023"><ele>713.0</ele><time>2026-03-23T09:05:53Z</time></trkpt><trkpt lat="45.58576896391204" lon="11.059311172765161"><ele>711.6666666666666</ele><time>2026-03-23T09:05:54Z</time></trkpt><trkpt lat="45.58578163179841" lon="11.05906185822569"><ele>710.3333333333334</ele><time>2026-03-23T09:05:55Z</time></trkpt><trkpt lat="45.585794105819716" lon="11.058818003023356"><ele>709.0</ele><time>2026-03-23T09:05:56Z</time></trkpt><trkpt lat="45.58580360724799" lon="11.058597287633855"><ele>709.0</ele><time>2026-03-23T09:05:57Z</time></trkpt><trkpt lat="45.5858153052246" lon="11.058361376419997"><ele>709.0</ele><time>2026-03-23T09:05:58Z</time></trkpt><trkpt lat="45.58582737781825" lon="11.058145585974557"><ele>709.0</ele><time>2026-03-23T09:05:59Z</time></trkpt><trkpt lat="45.58584576048456" lon="11.057937077459536"><ele>708.0</ele><time>2026-03-23T09:06:00Z</time></trkpt><trkpt lat="45.585867959664206" lon="11.057728908396783"><ele>707.0</ele><time>2026-03-23T09:06:01Z</time></trkpt><trkpt lat="45.58593429062722" lon="11.057546576915081"><ele>706.0</ele><time>2026-03-23T09:06:02Z</time></trkpt><trkpt lat="45.58602063938843" lon="11.05744455045212"><ele>705.0</ele><time>2026-03-23T09:06:03Z</time></trkpt><trkpt lat="45.586129398358985" lon="11.057312616093505"><ele>702.6666666666666</ele><time>2026-03-23T09:06:04Z</time></trkpt><trkpt lat="45.586284723315075" lon="11.057134907419385"><ele>700.3333333333333</ele><time>2026-03-23T09:06:05Z</time></trkpt><trkpt lat="45.58646467802042" lon="11.056927956860042"><ele>698.0</ele><time>2026-03-23T09:06:06Z</time></trkpt><trkpt lat="45.586641487722666" lon="11.056721437994556"><ele>699.6666666666666</ele><time>2026-03-23T09:06:07Z</time></trkpt><trkpt lat="45.58677784198356" lon="11.05650391745213"><ele>701.3333333333334</ele><time>2026-03-23T09:06:08Z</time></trkpt><trkpt lat="45.58691956353446" lon="11.056312937998628"><ele>703.0</ele><time>2026-03-23T09:06:09Z</time></trkpt><trkpt lat="45.587023898513216" lon="11.056074386420786"><ele>692.0</ele><time>2026-03-23T09:06:10Z</time></trkpt><trkpt lat="45.58713150959827" lon="11.055769424535796"><ele>681.0</ele><time>2026-03-23T09:06:11Z</time></trkpt><trkpt lat="45.58726128689217" lon="11.055449145660331"><ele>681.0</ele><time>2026-03-23T09:06:12Z</time></trkpt><trkpt lat="45.58738443636179" lon="11.055178074733224"><ele>681.0</ele><time>2026-03-23T09:06:13Z</time></trkpt><trkpt lat="45.58749307526436" lon="11.054920433816864"><ele>681.0</ele><time>2026-03-23T09:06:14Z</time></trkpt><trkpt lat="45.587583535979874" lon="11.054678467766028"><ele>677.0</ele><time>2026-03-23T09:06:15Z</time></trkpt><trkpt lat="45.58768154623369" lon="11.054458323466289"><ele>673.0</ele><time>2026-03-23T09:06:16Z</time></trkpt><trkpt lat="45.5877634954345" lon="11.054255445013219"><ele>669.0</ele><time>2026-03-23T09:06:17Z</time></trkpt><trkpt lat="45.58779614304456" lon="11.054047039958643"><ele>666.25</ele><time>2026-03-23T09:06:18Z</time></trkpt><trkpt lat="45.58779430793959" lon="11.053816187543475"><ele>663.5</ele><time>2026-03-23T09:06:19Z</time></trkpt><trkpt lat="45.58777713122602" lon="11.053608479628192"><ele>660.75</ele><time>2026-03-23T09:06:20Z</time></trkpt><trkpt lat="45.587802445048915" lon="11.053453757823071"><ele>658.0</ele><time>2026-03-23T09:06:21Z</time></trkpt><trkpt lat="45.58786366860688" lon="11.053286828490643"><ele>658.0</ele><time>2026-03-23T09:06:22Z</time></trkpt><trkpt lat="45.587960838962" lon="11.053119916338447"><ele>658.0</ele><time>2026-03-23T09:06:23Z</time></trkpt><trkpt lat="45.588086719695724" lon="11.052965396830189"><ele>658.0</ele><time>2026-03-23T09:06:24Z</time></trkpt><trkpt lat="45.58820483518523" lon="11.052798787729701"><ele>658.0</ele><time>2026-03-23T09:06:25Z</time></trkpt><trkpt lat="45.58832214993212" lon="11.05269741021762"><ele>658.0</ele><time>2026-03-23T09:06:26Z</time></trkpt><trkpt lat="45.58845329938715" lon="11.0526780380054"><ele>658.0</ele><time>2026-03-23T09:06:27Z</time></trkpt><trkpt lat="45.58860796442006" lon="11.05262608897757"><ele>658.0</ele><time>2026-03-23T09:06:28Z</time></trkpt><trkpt lat="45.58877008511006" lon="11.05259376925086"><ele>659.75</ele><time>2026-03-23T09:06:29Z</time></trkpt><trkpt lat="45.58891894593799" lon="11.052547094590402"><ele>661.5</ele><time>2026-03-23T09:06:30Z</time></trkpt><trkpt lat="45.589057113501845" lon="11.052509507050923"><ele>663.25</ele><time>2026-03-23T09:06:31Z</time></trkpt><trkpt lat="45.58919579771286" lon="11.05248126832164"><ele>665.0</ele><time>2026-03-23T09:06:32Z</time></trkpt><trkpt lat="45.589325495736446" lon="11.052452498352936"><ele>660.2</ele><time>2026-03-23T09:06:33Z</time></trkpt><trkpt lat="45.5894560473876" lon="11.052411988626881"><ele>655.4</ele><time>2026-03-23T09:06:34Z</time></trkpt><trkpt lat="45.589581537991506" lon="11.052389924377776"><ele>650.5999999999999</ele><time>2026-03-23T09:06:35Z</time></trkpt><trkpt lat="45.58968988132242" lon="11.052396421817688"><ele>645.8</ele><time>2026-03-23T09:06:36Z</time></trkpt><trkpt lat="45.58976093831061" lon="11.052403181446055"><ele>641.0</ele><time>2026-03-23T09:06:37Z</time></trkpt><trkpt lat="45.58983320257434" lon="11.052380451305547"><ele>641.0</ele><time>2026-03-23T09:06:39Z</time></trkpt><trkpt lat="45.58993220333513" lon="11.052266437022139"><ele>641.0</ele><time>2026-03-23T09:07:12Z</time></trkpt><trkpt lat="45.58999897211893" lon="11.052172973752546"><ele>641.0</ele><time>2026-03-23T09:07:13Z</time></trkpt><trkpt lat="45.590085360864656" lon="11.051988365024643"><ele>641.0</ele><time>2026-03-23T09:07:14Z</time></trkpt><trkpt lat="45.59016367300717" lon="11.051798564402148"><ele>642.0</ele><time>2026-03-23T09:07:15Z</time></trkpt><trkpt lat="45.59023855042971" lon="11.051621704932996"><ele>643.0</ele><time>2026-03-23T09:07:16Z</time></trkpt><trkpt lat="45.59030575033886" lon="11.05146579117775"><ele>644.0</ele><time>2026-03-23T09:07:17Z</time></trkpt><trkpt lat="45.59036590749522" lon="11.051321538733845"><ele>645.0</ele><time>2026-03-23T09:07:18Z</time></trkpt><trkpt lat="45.59040083316919" lon="11.051182809413046"><ele>645.0</ele><time>2026-03-23T09:07:19Z</time></trkpt><trkpt lat="45.59043180797173" lon="11.05107576029837"><ele>645.0</ele><time>2026-03-23T09:07:20Z</time></trkpt><trkpt lat="45.59038515934694" lon="11.050959290046896"><ele>645.0</ele><time>2026-03-23T09:07:21Z</time></trkpt><trkpt lat="45.59030936181306" lon="11.05085041206378"><ele>645.0</ele><time>2026-03-23T09:07:22Z</time></trkpt><trkpt lat="45.590190905739476" lon="11.050744299723615"><ele>645.0</ele><time>2026-03-23T09:07:23Z</time></trkpt><trkpt lat="45.590058745162985" lon="11.050625816912333"><ele>645.0</ele><time>2026-03-23T09:07:24Z</time></trkpt><trkpt lat="45.58995086877286" lon="11.050495118262985"><ele>645.0</ele><time>2026-03-23T09:07:25Z</time></trkpt><trkpt lat="45.5898589094664" lon="11.0503908614946"><ele>645.0</ele><time>2026-03-23T09:07:26Z</time></trkpt><trkpt lat="45.589775671737854" lon="11.0503077434925"><ele>645.0</ele><time>2026-03-23T09:07:27Z</time></trkpt><trkpt lat="45.58971570305132" lon="11.050224136799777"><ele>645.0</ele><time>2026-03-23T09:07:28Z</time></trkpt><trkpt lat="45.589696610815174" lon="11.050102418094037"><ele>645.0</ele><time>2026-03-23T09:07:29Z</time></trkpt><trkpt lat="45.589727665366254" lon="11.049981760606485"><ele>645.0</ele><time>2026-03-23T09:07:30Z</time></trkpt><trkpt lat="45.589820640034425" lon="11.049842614438242"><ele>645.0</ele><time>2026-03-23T09:07:31Z</time></trkpt><trkpt lat="45.58991623977208" lon="11.049678921380542"><ele>645.0</ele><time>2026-03-23T09:07:32Z</time></trkpt><trkpt lat="45.59001372547953" lon="11.049511733058033"><ele>640.0</ele><time>2026-03-23T09:07:33Z</time></trkpt><trkpt lat="45.59009209352159" lon="11.049337106412002"><ele>635.0</ele><time>2026-03-23T09:07:34Z</time></trkpt><trkpt lat="45.59015908932602" lon="11.04916362443937"><ele>630.0</ele><time>2026-03-23T09:07:35Z</time></trkpt><trkpt lat="45.590250027616456" lon="11.04903082720793"><ele>625.0</ele><time>2026-03-23T09:07:36Z</time></trkpt><trkpt lat="45.59037868540632" lon="11.04892623149121"><ele>625.0</ele><time>2026-03-23T09:07:37Z</time></trkpt><trkpt lat="45.59052532793693" lon="11.04879750240723"><ele>625.0</ele><time>2026-03-23T09:07:38Z</time></trkpt><trkpt lat="45.59067999980814" lon="11.048698561034485"><ele>625.0</ele><time>2026-03-23T09:07:39Z</time></trkpt><trkpt lat="45.59082654256646" lon="11.048574996402495"><ele>625.0</ele><time>2026-03-23T09:07:40Z</time></trkpt><trkpt lat="45.59095449210941" lon="11.048449352716997"><ele>625.0</ele><time>2026-03-23T09:07:41Z</time></trkpt><trkpt lat="45.591058493092945" lon="11.04830460654197"><ele>625.0</ele><time>2026-03-23T09:07:42Z</time></trkpt><trkpt lat="45.591154992112166" lon="11.048144015658838"><ele>625.0</ele><time>2026-03-23T09:07:43Z</time></trkpt><trkpt lat="45.59128171023101" lon="11.04803135737981"><ele>625.25</ele><time>2026-03-23T09:07:44Z</time></trkpt><trkpt lat="45.59140575934867" lon="11.047938035678376"><ele>625.5</ele><time>2026-03-23T09:07:45Z</time></trkpt><trkpt lat="45.59152699777165" lon="11.04783435376567"><ele>625.75</ele><time>2026-03-23T09:07:46Z</time></trkpt><trkpt lat="45.59163957772242" lon="11.047717188775557"><ele>626.0</ele><time>2026-03-23T09:07:47Z</time></trkpt><trkpt lat="45.59174724355659" lon="11.04755125386137"><ele>624.75</ele><time>2026-03-23T09:07:48Z</time></trkpt><trkpt lat="45.591831554414696" lon="11.04737367873099"><ele>623.5</ele><time>2026-03-23T09:07:49Z</time></trkpt><trkpt lat="45.59189523408681" lon="11.047197898858899"><ele>622.25</ele><time>2026-03-23T09:07:50Z</time></trkpt><trkpt lat="45.59195065180708" lon="11.047026008958902"><ele>621.0</ele><time>2026-03-23T09:07:51Z</time></trkpt><trkpt lat="45.59199204575809" lon="11.04686489654867"><ele>624.8333333333334</ele><time>2026-03-23T09:07:52Z</time></trkpt><trkpt lat="45.592015518340936" lon="11.046730417561918"><ele>628.6666666666666</ele><time>2026-03-23T09:07:53Z</time></trkpt><trkpt lat="45.59199966842802" lon="11.046615868101947"><ele>632.5</ele><time>2026-03-23T09:07:54Z</time></trkpt><trkpt lat="45.59193280447555" lon="11.046528034361366"><ele>636.3333333333333</ele><time>2026-03-23T09:07:55Z</time></trkpt><trkpt lat="45.59183923655114" lon="11.04648818805493"><ele>640.1666666666666</ele><time>2026-03-23T09:07:56Z</time></trkpt><trkpt lat="45.59175787373636" lon="11.046489588778204"><ele>644.0</ele><time>2026-03-23T09:07:57Z</time></trkpt><trkpt lat="45.59167567987589" lon="11.046596372075468"><ele>639.4000000000001</ele><time>2026-03-23T09:07:58Z</time></trkpt><trkpt lat="45.59160300279573" lon="11.046711329293755"><ele>634.8000000000001</ele><time>2026-03-23T09:07:59Z</time></trkpt><trkpt lat="45.59152940559272" lon="11.046834809256966"><ele>630.2</ele><time>2026-03-23T09:08:00Z</time></trkpt><trkpt lat="45.59147417009157" lon="11.04696720469018"><ele>625.6</ele><time>2026-03-23T09:08:01Z</time></trkpt><trkpt lat="45.59140041856012" lon="11.047049834677388"><ele>621.0</ele><time>2026-03-23T09:08:02Z</time></trkpt><trkpt lat="45.59133527954261" lon="11.047146008192453"><ele>621.0</ele><time>2026-03-23T09:08:03Z</time></trkpt><trkpt lat="45.591227236857165" lon="11.047209314584846"><ele>621.0</ele><time>2026-03-23T09:08:04Z</time></trkpt><trkpt lat="45.591142721948486" lon="11.047267523115588"><ele>621.0</ele><time>2026-03-23T09:08:05Z</time></trkpt><trkpt lat="45.5910867044537" lon="11.04731054200686"><ele>621.0</ele><time>2026-03-23T09:08:06Z</time></trkpt><trkpt lat="45.59102066933992" lon="11.047363740156664"><ele>621.0</ele><time>2026-03-23T09:08:08Z</time></trkpt><trkpt lat="45.59115863821522" lon="11.04730777956519"><ele>621.0</ele><time>2026-03-23T09:08:14Z</time></trkpt><trkpt lat="45.59123011274576" lon="11.047242844796452"><ele>621.0</ele><time>2026-03-23T09:08:15Z</time></trkpt><trkpt lat="45.591333349372896" lon="11.047179885590563"><ele>621.0</ele><time>2026-03-23T09:08:16Z</time></trkpt><trkpt lat="45.5914689766131" lon="11.047048514918123"><ele>621.0</ele><time>2026-03-23T09:08:17Z</time></trkpt><trkpt lat="45.59159357903231" lon="11.046875675668469"><ele>621.0</ele><time>2026-03-23T09:08:18Z</time></trkpt><trkpt lat="45.59167965350277" lon="11.046689718432713"><ele>621.0</ele><time>2026-03-23T09:08:19Z</time></trkpt><trkpt lat="45.59175072175369" lon="11.046560190557699"><ele>621.0</ele><time>2026-03-23T09:08:20Z</time></trkpt><trkpt lat="45.591832543128604" lon="11.046519664244876"><ele>621.0</ele><time>2026-03-23T09:08:21Z</time></trkpt><trkpt lat="45.59190439017447" lon="11.046552007185243"><ele>621.0</ele><time>2026-03-23T09:08:22Z</time></trkpt><trkpt lat="45.5919648712373" lon="11.046602711885743"><ele>623.8</ele><time>2026-03-23T09:08:23Z</time></trkpt><trkpt lat="45.592015252434095" lon="11.046659151145782"><ele>626.6</ele><time>2026-03-23T09:08:24Z</time></trkpt><trkpt lat="45.59207857024727" lon="11.046653528567985"><ele>629.4</ele><time>2026-03-23T09:08:25Z</time></trkpt><trkpt lat="45.59215470518476" lon="11.046589250814492"><ele>632.2</ele><time>2026-03-23T09:08:26Z</time></trkpt><trkpt lat="45.592258375677474" lon="11.046477268919363"><ele>635.0</ele><time>2026-03-23T09:08:27Z</time></trkpt><trkpt lat="45.59240428326782" lon="11.04634071365174"><ele>635.0</ele><time>2026-03-23T09:08:28Z</time></trkpt><trkpt lat="45.59256029879104" lon="11.046197639387"><ele>635.0</ele><time>2026-03-23T09:08:29Z</time></trkpt><trkpt lat="45.59271619651797" lon="11.046029624838168"><ele>635.0</ele><time>2026-03-23T09:08:30Z</time></trkpt><trkpt lat="45.592887730130705" lon="11.045875221111093"><ele>637.75</ele><time>2026-03-23T09:08:31Z</time></trkpt><trkpt lat="45.593013331914186" lon="11.045743668606066"><ele>640.5</ele><time>2026-03-23T09:08:32Z</time></trkpt><trkpt lat="45.5931435001378" lon="11.04565075896112"><ele>643.25</ele><time>2026-03-23T09:08:33Z</time></trkpt><trkpt lat="45.59326706109522" lon="11.045542224294053"><ele>646.0</ele><time>2026-03-23T09:08:34Z</time></trkpt><trkpt lat="45.59340131541665" lon="11.045434366590479"><ele>646.0</ele><time>2026-03-23T09:08:35Z</time></trkpt><trkpt lat="45.593520201044406" lon="11.045359333591023"><ele>646.0</ele><time>2026-03-23T09:08:36Z</time></trkpt><trkpt lat="45.593620508768154" lon="11.045303180125162"><ele>646.0</ele><time>2026-03-23T09:08:37Z</time></trkpt><trkpt lat="45.59369633008774" lon="11.04524834659902"><ele>646.0</ele><time>2026-03-23T09:08:38Z</time></trkpt><trkpt lat="45.59379197846989" lon="11.045240184590833"><ele>646.0</ele><time>2026-03-23T09:08:39Z</time></trkpt><trkpt lat="45.593970963226056" lon="11.04523067596588"><ele>645.0</ele><time>2026-03-23T09:08:40Z</time></trkpt><trkpt lat="45.59411388037843" lon="11.045207758819734"><ele>644.0</ele><time>2026-03-23T09:08:41Z</time></trkpt><trkpt lat="45.59425376496768" lon="11.045184733317324"><ele>643.0</ele><time>2026-03-23T09:08:42Z</time></trkpt><trkpt lat="45.594365345818275" lon="11.045224120223134"><ele>642.0</ele><time>2026-03-23T09:08:43Z</time></trkpt><trkpt lat="45.59450485235968" lon="11.045284374137333"><ele>641.6</ele><time>2026-03-23T09:08:44Z</time></trkpt><trkpt lat="45.594641710956274" lon="11.045334693216311"><ele>641.2</ele><time>2026-03-23T09:08:45Z</time></trkpt><trkpt lat="45.59473605215794" lon="11.045358961397309"><ele>640.8</ele><time>2026-03-23T09:08:46Z</time></trkpt><trkpt lat="45.59483285695706" lon="11.0453816463965"><ele>640.4</ele><time>2026-03-23T09:08:47Z</time></trkpt><trkpt lat="45.594940013319295" lon="11.045414866252004"><ele>640.0</ele><time>2026-03-23T09:08:48Z</time></trkpt><trkpt lat="45.59505589445558" lon="11.045421409160989"><ele>640.0</ele><time>2026-03-23T09:08:49Z</time></trkpt><trkpt lat="45.59518411866328" lon="11.045418831034832"><ele>640.0</ele><time>2026-03-23T09:08:50Z</time></trkpt><trkpt lat="45.595302537075725" lon="11.045385326377712"><ele>640.0</ele><time>2026-03-23T09:08:51Z</time></trkpt><trkpt lat="45.59543248699042" lon="11.045341931446737"><ele>640.0</ele><time>2026-03-23T09:08:52Z</time></trkpt><trkpt lat="45.595557232205806" lon="11.045248687182015"><ele>642.25</ele><time>2026-03-23T09:08:53Z</time></trkpt><trkpt lat="45.59570237642607" lon="11.045193363027327"><ele>644.5</ele><time>2026-03-23T09:08:54Z</time></trkpt><trkpt lat="45.59584375088891" lon="11.045166147223556"><ele>646.75</ele><time>2026-03-23T09:08:55Z</time></trkpt><trkpt lat="45.59596926265124" lon="11.045118769273369"><ele>649.0</ele><time>2026-03-23T09:08:56Z</time></trkpt><trkpt lat="45.596081417059345" lon="11.045063062005358"><ele>649.5</ele><time>2026-03-23T09:08:57Z</time></trkpt><trkpt lat="45.59619544616628" lon="11.04498513662265"><ele>650.0</ele><time>2026-03-23T09:08:58Z</time></trkpt><trkpt lat="45.59630292829931" lon="11.044887883154816"><ele>650.5</ele><time>2026-03-23T09:08:59Z</time></trkpt><trkpt lat="45.59640602499129" lon="11.044782749606433"><ele>651.0</ele><time>2026-03-23T09:09:00Z</time></trkpt><trkpt lat="45.59651462842784" lon="11.044697688090043"><ele>651.0</ele><time>2026-03-23T09:09:01Z</time></trkpt><trkpt lat="45.596628856119395" lon="11.044635098006857"><ele>651.0</ele><time>2026-03-23T09:09:02Z</time></trkpt><trkpt lat="45.59674837827393" lon="11.044587340164213"><ele>651.0</ele><time>2026-03-23T09:09:03Z</time></trkpt><trkpt lat="45.596863952346624" lon="11.044543286232695"><ele>651.0</ele><time>2026-03-23T09:09:04Z</time></trkpt><trkpt lat="45.596975764285055" lon="11.044488082924207"><ele>654.25</ele><time>2026-03-23T09:09:05Z</time></trkpt><trkpt lat="45.597088353327536" lon="11.044423910525074"><ele>657.5</ele><time>2026-03-23T09:09:06Z</time></trkpt><trkpt lat="45.59719107848905" lon="11.04434285584435"><ele>660.75</ele><time>2026-03-23T09:09:07Z</time></trkpt><trkpt lat="45.59732231826442" lon="11.044265661082363"><ele>664.0</ele><time>2026-03-23T09:09:08Z</time></trkpt><trkpt lat="45.597443851302934" lon="11.044158157062803"><ele>666.0</ele><time>2026-03-23T09:09:09Z</time></trkpt><trkpt lat="45.59755427118533" lon="11.044088580090385"><ele>668.0</ele><time>2026-03-23T09:09:10Z</time></trkpt><trkpt lat="45.597667296058226" lon="11.044059227853579"><ele>670.0</ele><time>2026-03-23T09:09:11Z</time></trkpt><trkpt lat="45.59779336361217" lon="11.044060891735175"><ele>672.0</ele><time>2026-03-23T09:09:12Z</time></trkpt><trkpt lat="45.59791932562319" lon="11.044055705798439"><ele>672.25</ele><time>2026-03-23T09:09:13Z</time></trkpt><trkpt lat="45.598030459389776" lon="11.044004676462267"><ele>672.5</ele><time>2026-03-23T09:09:14Z</time></trkpt><trkpt lat="45.598134761245696" lon="11.043920254315806"><ele>672.75</ele><time>2026-03-23T09:09:15Z</time></trkpt><trkpt lat="45.59824561482467" lon="11.043823793371095"><ele>673.0</ele><time>2026-03-23T09:09:16Z</time></trkpt><trkpt lat="45.59837364431261" lon="11.043762337871678"><ele>673.0</ele><time>2026-03-23T09:09:17Z</time></trkpt><trkpt lat="45.59850890524281" lon="11.0437317528715"><ele>673.0</ele><time>2026-03-23T09:09:18Z</time></trkpt><trkpt lat="45.59865067381126" lon="11.043723147874584"><ele>673.0</ele><time>2026-03-23T09:09:19Z</time></trkpt><trkpt lat="45.598791690047015" lon="11.043716944955461"><ele>673.0</ele><time>2026-03-23T09:09:20Z</time></trkpt><trkpt lat="45.598941253419895" lon="11.043713991889218"><ele>673.0</ele><time>2026-03-23T09:09:21Z</time></trkpt><trkpt lat="45.59908300621465" lon="11.043720215739"><ele>673.0</ele><time>2026-03-23T09:09:22Z</time></trkpt><trkpt lat="45.599237970176716" lon="11.043768432814057"><ele>673.0</ele><time>2026-03-23T09:09:24Z</time></trkpt><trkpt lat="45.599345475119414" lon="11.043809581042213"><ele>673.0</ele><time>2026-03-23T09:09:25Z</time></trkpt><trkpt lat="45.59942534795901" lon="11.043849309121278"><ele>673.0</ele><time>2026-03-23T09:09:26Z</time></trkpt><trkpt lat="45.59947264435689" lon="11.043945007821264"><ele>673.0</ele><time>2026-03-23T09:09:28Z</time></trkpt><trkpt lat="45.599451635786416" lon="11.044063412625025"><ele>673.0</ele><time>2026-03-23T09:09:30Z</time></trkpt><trkpt lat="45.599376302125734" lon="11.044186202474581"><ele>673.0</ele><time>2026-03-23T09:09:32Z</time></trkpt><trkpt lat="45.59926617989447" lon="11.04428664475641"><ele>673.0</ele><time>2026-03-23T09:09:34Z</time></trkpt><trkpt lat="45.59919485262645" lon="11.044352069372051"><ele>674.5999999999999</ele><time>2026-03-23T09:09:35Z</time></trkpt><trkpt lat="45.59911234812633" lon="11.04442774629935"><ele>676.1999999999999</ele><time>2026-03-23T09:09:36Z</time></trkpt><trkpt lat="45.59905240936194" lon="11.044480907095782"><ele>677.8</ele><time>2026-03-23T09:09:37Z</time></trkpt><trkpt lat="45.59896561956536" lon="11.044568500896611"><ele>679.4</ele><time>2026-03-23T09:09:39Z</time></trkpt><trkpt lat="45.598906199292976" lon="11.044672825117603"><ele>681.0</ele><time>2026-03-23T09:09:41Z</time></trkpt><trkpt lat="45.598804811200296" lon="11.04475798548291"><ele>681.0</ele><time>2026-03-23T09:09:43Z</time></trkpt><trkpt lat="45.59873302182226" lon="11.044801553604957"><ele>681.0</ele><time>2026-03-23T09:09:44Z</time></trkpt><trkpt lat="45.59865808135363" lon="11.044861686022115"><ele>681.0</ele><time>2026-03-23T09:09:45Z</time></trkpt><trkpt lat="45.59857126494868" lon="11.04488763973575"><ele>681.0</ele><time>2026-03-23T09:09:46Z</time></trkpt><trkpt lat="45.598482819495274" lon="11.044935452331275"><ele>681.0</ele><time>2026-03-23T09:09:47Z</time></trkpt><trkpt lat="45.59839594447272" lon="11.045001780374355"><ele>681.0</ele><time>2026-03-23T09:09:48Z</time></trkpt><trkpt lat="45.598328870295624" lon="11.04509947334785"><ele>682.0</ele><time>2026-03-23T09:09:49Z</time></trkpt><trkpt lat="45.59823625167049" lon="11.045189754936002"><ele>683.0</ele><time>2026-03-23T09:09:50Z</time></trkpt><trkpt lat="45.59813402890612" lon="11.045267288859531"><ele>684.0</ele><time>2026-03-23T09:09:51Z</time></trkpt><trkpt lat="45.59805486584752" lon="11.045379518168707"><ele>685.0</ele><time>2026-03-23T09:09:52Z</time></trkpt><trkpt lat="45.59796756201827" lon="11.045464920746328"><ele>686.0</ele><time>2026-03-23T09:09:53Z</time></trkpt><trkpt lat="45.59788552255679" lon="11.04555018090831"><ele>687.0</ele><time>2026-03-23T09:09:54Z</time></trkpt><trkpt lat="45.59780518077885" lon="11.045631292284616"><ele>688.0</ele><time>2026-03-23T09:09:55Z</time></trkpt><trkpt lat="45.59772114239756" lon="11.045661221630201"><ele>689.0</ele><time>2026-03-23T09:09:56Z</time></trkpt><trkpt lat="45.59765540257404" lon="11.045697819494448"><ele>690.0</ele><time>2026-03-23T09:09:57Z</time></trkpt><trkpt lat="45.5975024757692" lon="11.045801368203858"><ele>691.0</ele><time>2026-03-23T09:09:58Z</time></trkpt><trkpt lat="45.59741761302627" lon="11.045846724961589"><ele>691.0</ele><time>2026-03-23T09:09:59Z</time></trkpt><trkpt lat="45.5973215478548" lon="11.045923393019791"><ele>691.0</ele><time>2026-03-23T09:10:00Z</time></trkpt><trkpt lat="45.59721282497083" lon="11.045991463892628"><ele>691.0</ele><time>2026-03-23T09:10:01Z</time></trkpt><trkpt lat="45.597101966131" lon="11.046067802154267"><ele>691.0</ele><time>2026-03-23T09:10:02Z</time></trkpt><trkpt lat="45.5969831364947" lon="11.046125296582503"><ele>688.25</ele><time>2026-03-23T09:10:03Z</time></trkpt><trkpt lat="45.59685957966399" lon="11.046155590433633"><ele>685.5</ele><time>2026-03-23T09:10:04Z</time></trkpt><trkpt lat="45.59676446499377" lon="11.046214347241552"><ele>682.75</ele><time>2026-03-23T09:10:05Z</time></trkpt><trkpt lat="45.59666436451225" lon="11.046268844455847"><ele>680.0</ele><time>2026-03-23T09:10:06Z</time></trkpt><trkpt lat="45.596562717272555" lon="11.046358594478685"><ele>680.0</ele><time>2026-03-23T09:10:07Z</time></trkpt><trkpt lat="45.59646575057176" lon="11.046481987544007"><ele>680.0</ele><time>2026-03-23T09:10:08Z</time></trkpt><trkpt lat="45.596374530843484" lon="11.046608421741926"><ele>680.0</ele><time>2026-03-23T09:10:09Z</time></trkpt><trkpt lat="45.59629466705579" lon="11.046762996515765"><ele>680.0</ele><time>2026-03-23T09:10:10Z</time></trkpt><trkpt lat="45.596202640324805" lon="11.046898767334731"><ele>682.5</ele><time>2026-03-23T09:10:11Z</time></trkpt><trkpt lat="45.596095470316534" lon="11.046990421016016"><ele>685.0</ele><time>2026-03-23T09:10:12Z</time></trkpt><trkpt lat="45.59599337755292" lon="11.047097299579656"><ele>687.5</ele><time>2026-03-23T09:10:13Z</time></trkpt><trkpt lat="45.59589370070582" lon="11.047198580763558"><ele>690.0</ele><time>2026-03-23T09:10:14Z</time></trkpt><trkpt lat="45.59579470424028" lon="11.047291639430593"><ele>690.0</ele><time>2026-03-23T09:10:15Z</time></trkpt><trkpt lat="45.59569670302324" lon="11.04737885924971"><ele>690.0</ele><time>2026-03-23T09:10:16Z</time></trkpt><trkpt lat="45.59560123040611" lon="11.047465209266722"><ele>690.0</ele><time>2026-03-23T09:10:17Z</time></trkpt><trkpt lat="45.59552537150904" lon="11.047564677550392"><ele>690.0</ele><time>2026-03-23T09:10:18Z</time></trkpt><trkpt lat="45.59545239500147" lon="11.047693676082254"><ele>690.0</ele><time>2026-03-23T09:10:19Z</time></trkpt><trkpt lat="45.59537310080112" lon="11.047840056263684"><ele>692.0</ele><time>2026-03-23T09:10:20Z</time></trkpt><trkpt lat="45.59529783771489" lon="11.048012899753436"><ele>694.0</ele><time>2026-03-23T09:10:21Z</time></trkpt><trkpt lat="45.595198254702076" lon="11.048097253089276"><ele>696.0</ele><time>2026-03-23T09:10:22Z</time></trkpt><trkpt lat="45.59509348583761" lon="11.048158887257653"><ele>698.0</ele><time>2026-03-23T09:10:23Z</time></trkpt><trkpt lat="45.59498540567591" lon="11.048235987000677"><ele>701.75</ele><time>2026-03-23T09:10:24Z</time></trkpt><trkpt lat="45.5948752925456" lon="11.048322958882466"><ele>705.5</ele><time>2026-03-23T09:10:25Z</time></trkpt><trkpt lat="45.59475793784397" lon="11.04839112803859"><ele>709.25</ele><time>2026-03-23T09:10:26Z</time></trkpt><trkpt lat="45.59465586717777" lon="11.048473229277187"><ele>713.0</ele><time>2026-03-23T09:10:27Z</time></trkpt><trkpt lat="45.59456577151675" lon="11.04854532364583"><ele>713.0</ele><time>2026-03-23T09:10:28Z</time></trkpt><trkpt lat="45.594497964907106" lon="11.048603805590943"><ele>713.0</ele><time>2026-03-23T09:10:29Z</time></trkpt><trkpt lat="45.59450365781906" lon="11.049058977073848"><ele>713.0</ele><time>2026-03-23T09:10:37Z</time></trkpt><trkpt lat="45.59474606211905" lon="11.04905455465467"><ele>713.0</ele><time>2026-03-23T09:10:38Z</time></trkpt><trkpt lat="45.594858256474055" lon="11.049030268286014"><ele>713.0</ele><time>2026-03-23T09:10:39Z</time></trkpt><trkpt lat="45.59498651534378" lon="11.049015579272135"><ele>713.0</ele><time>2026-03-23T09:10:40Z</time></trkpt><trkpt lat="45.5951166316649" lon="11.049012625425169"><ele>713.0</ele><time>2026-03-23T09:10:41Z</time></trkpt><trkpt lat="45.59542049110473" lon="11.047839361936303"><ele>712.8</ele><time>2026-03-23T09:10:45Z</time></trkpt><trkpt lat="45.5954690624299" lon="11.047703565655437"><ele>712.5999999999999</ele><time>2026-03-23T09:10:46Z</time></trkpt><trkpt lat="45.59553227610082" lon="11.04757928042264"><ele>712.4000000000001</ele><time>2026-03-23T09:10:47Z</time></trkpt><trkpt lat="45.59560668325797" lon="11.047484588468038"><ele>712.2</ele><time>2026-03-23T09:10:48Z</time></trkpt><trkpt lat="45.59568613405261" lon="11.047398169193396"><ele>712.0</ele><time>2026-03-23T09:10:49Z</time></trkpt><trkpt lat="45.59578632722066" lon="11.047311650491944"><ele>709.25</ele><time>2026-03-23T09:10:50Z</time></trkpt><trkpt lat="45.5959018864914" lon="11.047220343268314"><ele>706.5</ele><time>2026-03-23T09:10:51Z</time></trkpt><trkpt lat="45.59601140430206" lon="11.047120312480278"><ele>703.75</ele><time>2026-03-23T09:10:52Z</time></trkpt><trkpt lat="45.59611204106677" lon="11.047026684996112"><ele>701.0</ele><time>2026-03-23T09:10:53Z</time></trkpt><trkpt lat="45.59621177995054" lon="11.046935729162396"><ele>701.0</ele><time>2026-03-23T09:10:54Z</time></trkpt><trkpt lat="45.59629589507261" lon="11.046827949875764"><ele>701.0</ele><time>2026-03-23T09:10:55Z</time></trkpt><trkpt lat="45.59637172266752" lon="11.046696166736453"><ele>701.0</ele><time>2026-03-23T09:10:56Z</time></trkpt><trkpt lat="45.59644197212998" lon="11.046559328255888"><ele>701.0</ele><time>2026-03-23T09:10:57Z</time></trkpt><trkpt lat="45.59652539610237" lon="11.046453080865838"><ele>699.0</ele><time>2026-03-23T09:10:58Z</time></trkpt><trkpt lat="45.59661650566761" lon="11.046363502104628"><ele>697.0</ele><time>2026-03-23T09:10:59Z</time></trkpt><trkpt lat="45.59671302977248" lon="11.046280809179198"><ele>695.0</ele><time>2026-03-23T09:11:00Z</time></trkpt><trkpt lat="45.59681105881175" lon="11.046213101826998"><ele>693.0</ele><time>2026-03-23T09:11:01Z</time></trkpt><trkpt lat="45.59691682847709" lon="11.046161351711831"><ele>691.0</ele><time>2026-03-23T09:11:02Z</time></trkpt><trkpt lat="45.5970400693852" lon="11.046125917646824"><ele>691.0</ele><time>2026-03-23T09:11:03Z</time></trkpt><trkpt lat="45.59716657991601" lon="11.046064938122202"><ele>691.0</ele><time>2026-03-23T09:11:04Z</time></trkpt><trkpt lat="45.59728180595086" lon="11.04598173816142"><ele>691.0</ele><time>2026-03-23T09:11:05Z</time></trkpt><trkpt lat="45.59739460087143" lon="11.045896669086481"><ele>691.0</ele><time>2026-03-23T09:11:06Z</time></trkpt><trkpt lat="45.59750173428371" lon="11.045832907398497"><ele>689.75</ele><time>2026-03-23T09:11:07Z</time></trkpt><trkpt lat="45.597607868216784" lon="11.045772013718025"><ele>688.5</ele><time>2026-03-23T09:11:08Z</time></trkpt><trkpt lat="45.597715996985656" lon="11.045706356178354"><ele>687.25</ele><time>2026-03-23T09:11:09Z</time></trkpt><trkpt lat="45.5978153618347" lon="11.045638132127799"><ele>686.0</ele><time>2026-03-23T09:11:10Z</time></trkpt><trkpt lat="45.59791034089619" lon="11.045552350554413"><ele>686.0</ele><time>2026-03-23T09:11:11Z</time></trkpt><trkpt lat="45.598003793183686" lon="11.045454136308951"><ele>686.0</ele><time>2026-03-23T09:11:12Z</time></trkpt><trkpt lat="45.59809939877109" lon="11.045357391323394"><ele>686.0</ele><time>2026-03-23T09:11:13Z</time></trkpt><trkpt lat="45.598192662670584" lon="11.045262361284927"><ele>686.0</ele><time>2026-03-23T09:11:14Z</time></trkpt><trkpt lat="45.598286235431644" lon="11.045171759860233"><ele>686.0</ele><time>2026-03-23T09:11:15Z</time></trkpt><trkpt lat="45.59837892154376" lon="11.045080828381042"><ele>686.0</ele><time>2026-03-23T09:11:16Z</time></trkpt><trkpt lat="45.598473572738754" lon="11.04499845390833"><ele>686.0</ele><time>2026-03-23T09:11:17Z</time></trkpt><trkpt lat="45.598568184594164" lon="11.04493708238268"><ele>686.0</ele><time>2026-03-23T09:11:18Z</time></trkpt><trkpt lat="45.59864809030314" lon="11.044892180761067"><ele>686.0</ele><time>2026-03-23T09:11:19Z</time></trkpt><trkpt lat="45.59872237364589" lon="11.044849149044392"><ele>684.75</ele><time>2026-03-23T09:11:20Z</time></trkpt><trkpt lat="45.598829740915384" lon="11.044778989132242"><ele>683.5</ele><time>2026-03-23T09:11:22Z</time></trkpt><trkpt lat="45.59893081157895" lon="11.04469220067127"><ele>682.25</ele><time>2026-03-23T09:11:24Z</time></trkpt><trkpt lat="45.599018434760126" lon="11.04456317842038"><ele>681.0</ele><time>2026-03-23T09:11:26Z</time></trkpt><trkpt lat="45.59910687947815" lon="11.044471160626614"><ele>681.0</ele><time>2026-03-23T09:11:28Z</time></trkpt><trkpt lat="45.59921515555873" lon="11.044375245106004"><ele>681.0</ele><time>2026-03-23T09:11:30Z</time></trkpt><trkpt lat="45.599275654762685" lon="11.044328341110253"><ele>681.0</ele><time>2026-03-23T09:11:31Z</time></trkpt><trkpt lat="45.59933331079864" lon="11.044282795222307"><ele>681.0</ele><time>2026-03-23T09:11:32Z</time></trkpt><trkpt lat="45.599421828034586" lon="11.044166104009076"><ele>681.0</ele><time>2026-03-23T09:11:34Z</time></trkpt><trkpt lat="45.59948549620166" lon="11.044045650321637"><ele>679.4</ele><time>2026-03-23T09:11:36Z</time></trkpt><trkpt lat="45.59947240347827" lon="11.04389335228339"><ele>677.8</ele><time>2026-03-23T09:11:38Z</time></trkpt><trkpt lat="45.59937609401264" lon="11.043771314927156"><ele>676.1999999999999</ele><time>2026-03-23T09:11:40Z</time></trkpt><trkpt lat="45.59930167134341" lon="11.043733122054418"><ele>674.5999999999999</ele><time>2026-03-23T09:11:41Z</time></trkpt><trkpt lat="45.59921423866087" lon="11.043705933129017"><ele>673.0</ele><time>2026-03-23T09:11:42Z</time></trkpt><trkpt lat="45.59911861776677" lon="11.043689957631441"><ele>673.0</ele><time>2026-03-23T09:11:43Z</time></trkpt><trkpt lat="45.59902407697656" lon="11.04367901331909"><ele>673.0</ele><time>2026-03-23T09:11:44Z</time></trkpt><trkpt lat="45.59892221617625" lon="11.043690817081782"><ele>673.0</ele><time>2026-03-23T09:11:45Z</time></trkpt><trkpt lat="45.59881456958898" lon="11.04368230042583"><ele>673.0</ele><time>2026-03-23T09:11:46Z</time></trkpt><trkpt lat="45.598707809793844" lon="11.043690673108754"><ele>673.0</ele><time>2026-03-23T09:11:47Z</time></trkpt><trkpt lat="45.59860328493484" lon="11.043701267845591"><ele>673.0</ele><time>2026-03-23T09:11:48Z</time></trkpt><trkpt lat="45.59849721882117" lon="11.043714816835195"><ele>673.0</ele><time>2026-03-23T09:11:49Z</time></trkpt><trkpt lat="45.59838627533525" lon="11.043730511435234"><ele>673.0</ele><time>2026-03-23T09:11:50Z</time></trkpt><trkpt lat="45.598284205619514" lon="11.043754857646077"><ele>673.0</ele><time>2026-03-23T09:11:51Z</time></trkpt><trkpt lat="45.59818797732523" lon="11.043846436899027"><ele>673.0</ele><time>2026-03-23T09:11:52Z</time></trkpt><trkpt lat="45.598085237204586" lon="11.043925185302763"><ele>673.0</ele><time>2026-03-23T09:11:53Z</time></trkpt><trkpt lat="45.59797811533551" lon="11.04399893792238"><ele>673.0</ele><time>2026-03-23T09:11:54Z</time></trkpt><trkpt lat="45.59786305400792" lon="11.044038053891857"><ele>673.0</ele><time>2026-03-23T09:11:55Z</time></trkpt><trkpt lat="45.597743199959815" lon="11.044017017086524"><ele>673.0</ele><time>2026-03-23T09:11:56Z</time></trkpt><trkpt lat="45.59762548835959" lon="11.044040815695363"><ele>672.75</ele><time>2026-03-23T09:11:57Z</time></trkpt><trkpt lat="45.597516055165165" lon="11.044064786617373"><ele>672.5</ele><time>2026-03-23T09:11:58Z</time></trkpt><trkpt lat="45.59740759368606" lon="11.044152213056721"><ele>672.25</ele><time>2026-03-23T09:11:59Z</time></trkpt><trkpt lat="45.597298172471355" lon="11.04425939061117"><ele>672.0</ele><time>2026-03-23T09:12:00Z</time></trkpt><trkpt lat="45.59718716066159" lon="11.044337475140196"><ele>670.0</ele><time>2026-03-23T09:12:01Z</time></trkpt><trkpt lat="45.59707674210068" lon="11.044403949706163"><ele>668.0</ele><time>2026-03-23T09:12:02Z</time></trkpt><trkpt lat="45.59696355569937" lon="11.044467030302313"><ele>666.0</ele><time>2026-03-23T09:12:03Z</time></trkpt><trkpt lat="45.5968479809356" lon="11.04450094447154"><ele>664.0</ele><time>2026-03-23T09:12:04Z</time></trkpt><trkpt lat="45.59673582445132" lon="11.044574486804088"><ele>660.75</ele><time>2026-03-23T09:12:05Z</time></trkpt><trkpt lat="45.596613151172605" lon="11.04462802015885"><ele>657.5</ele><time>2026-03-23T09:12:06Z</time></trkpt><trkpt lat="45.59649054115743" lon="11.044684203652146"><ele>654.25</ele><time>2026-03-23T09:12:07Z</time></trkpt><trkpt lat="45.596382208420515" lon="11.044754506062807"><ele>651.0</ele><time>2026-03-23T09:12:08Z</time></trkpt><trkpt lat="45.59627749263419" lon="11.044849815914834"><ele>650.5</ele><time>2026-03-23T09:12:09Z</time></trkpt><trkpt lat="45.596192315673704" lon="11.04496337984792"><ele>650.0</ele><time>2026-03-23T09:12:10Z</time></trkpt><trkpt lat="45.596074622737866" lon="11.045021273725576"><ele>649.5</ele><time>2026-03-23T09:12:11Z</time></trkpt><trkpt lat="45.59595991582192" lon="11.045079776237122"><ele>649.0</ele><time>2026-03-23T09:12:12Z</time></trkpt><trkpt lat="45.59583140741714" lon="11.045124353986926"><ele>649.0</ele><time>2026-03-23T09:12:13Z</time></trkpt><trkpt lat="45.59571102255185" lon="11.045179608741334"><ele>649.0</ele><time>2026-03-23T09:12:14Z</time></trkpt><trkpt lat="45.59558944571588" lon="11.045211001780709"><ele>649.0</ele><time>2026-03-23T09:12:15Z</time></trkpt><trkpt lat="45.595468056839145" lon="11.045261417280502"><ele>649.0</ele><time>2026-03-23T09:12:16Z</time></trkpt><trkpt lat="45.595351735331555" lon="11.045322401640153"><ele>646.75</ele><time>2026-03-23T09:12:17Z</time></trkpt><trkpt lat="45.595230238467394" lon="11.045358329756983"><ele>644.5</ele><time>2026-03-23T09:12:18Z</time></trkpt><trkpt lat="45.59511450047201" lon="11.045359824558862"><ele>642.25</ele><time>2026-03-23T09:12:19Z</time></trkpt><trkpt lat="45.594987563530644" lon="11.045346028542106"><ele>640.0</ele><time>2026-03-23T09:12:20Z</time></trkpt><trkpt lat="45.59485726226454" lon="11.045314995095215"><ele>640.0</ele><time>2026-03-23T09:12:21Z</time></trkpt><trkpt lat="45.59473401041365" lon="11.045286312964079"><ele>640.0</ele><time>2026-03-23T09:12:22Z</time></trkpt><trkpt lat="45.59461900315604" lon="11.045255351628377"><ele>640.0</ele><time>2026-03-23T09:12:23Z</time></trkpt><trkpt lat="45.594494531921086" lon="11.045218592046938"><ele>640.0</ele><time>2026-03-23T09:12:24Z</time></trkpt><trkpt lat="45.5943782500307" lon="11.045184250960487"><ele>640.5</ele><time>2026-03-23T09:12:25Z</time></trkpt><trkpt lat="45.59426917240708" lon="11.045157203730842"><ele>641.0</ele><time>2026-03-23T09:12:26Z</time></trkpt><trkpt lat="45.59417237553858" lon="11.045143204571573"><ele>641.5</ele><time>2026-03-23T09:12:27Z</time></trkpt><trkpt lat="45.594063117623286" lon="11.045160951019083"><ele>642.0</ele><time>2026-03-23T09:12:28Z</time></trkpt><trkpt lat="45.593924414189416" lon="11.045156493581318"><ele>642.0</ele><time>2026-03-23T09:12:29Z</time></trkpt><trkpt lat="45.59380568475963" lon="11.045194188692882"><ele>642.0</ele><time>2026-03-23T09:12:30Z</time></trkpt><trkpt lat="45.59370956264452" lon="11.045213073296626"><ele>642.0</ele><time>2026-03-23T09:12:31Z</time></trkpt><trkpt lat="45.59360917748631" lon="11.045236297865722"><ele>642.0</ele><time>2026-03-23T09:12:32Z</time></trkpt><trkpt lat="45.59350801410658" lon="11.045302315776748"><ele>642.0</ele><time>2026-03-23T09:12:33Z</time></trkpt><trkpt lat="45.59340236857672" lon="11.04536690711079"><ele>643.0</ele><time>2026-03-23T09:12:34Z</time></trkpt><trkpt lat="45.593293110056784" lon="11.045453982059417"><ele>644.0</ele><time>2026-03-23T09:12:35Z</time></trkpt><trkpt lat="45.59318174387106" lon="11.045545044601324"><ele>645.0</ele><time>2026-03-23T09:12:36Z</time></trkpt><trkpt lat="45.593071959927464" lon="11.04564741646066"><ele>646.0</ele><time>2026-03-23T09:12:37Z</time></trkpt><trkpt lat="45.592972802574025" lon="11.045744069306975"><ele>646.0</ele><time>2026-03-23T09:12:38Z</time></trkpt><trkpt lat="45.59287952522293" lon="11.045840177571751"><ele>646.0</ele><time>2026-03-23T09:12:39Z</time></trkpt><trkpt lat="45.59277946687386" lon="11.045938152720558"><ele>646.0</ele><time>2026-03-23T09:12:40Z</time></trkpt><trkpt lat="45.5926751271103" lon="11.046028164852954"><ele>646.0</ele><time>2026-03-23T09:12:41Z</time></trkpt><trkpt lat="45.592577003778736" lon="11.046113534914515"><ele>643.8</ele><time>2026-03-23T09:12:42Z</time></trkpt><trkpt lat="45.59248789640307" lon="11.046202047565055"><ele>641.5999999999999</ele><time>2026-03-23T09:12:43Z</time></trkpt><trkpt lat="45.592399827539886" lon="11.046283766941276"><ele>639.4</ele><time>2026-03-23T09:12:44Z</time></trkpt><trkpt lat="45.59230385895793" lon="11.046377940020282"><ele>637.2</ele><time>2026-03-23T09:12:45Z</time></trkpt><trkpt lat="45.592229406797316" lon="11.046453401721925"><ele>635.0</ele><time>2026-03-23T09:12:46Z</time></trkpt><trkpt lat="45.59217045782712" lon="11.046545040748668"><ele>635.0</ele><time>2026-03-23T09:12:47Z</time></trkpt><trkpt lat="45.592103130803814" lon="11.046610416407985"><ele>635.0</ele><time>2026-03-23T09:12:48Z</time></trkpt><trkpt lat="45.59204087521132" lon="11.046629029695186"><ele>635.0</ele><time>2026-03-23T09:12:49Z</time></trkpt><trkpt lat="45.591955914263856" lon="11.046668641848084"><ele>635.0</ele><time>2026-03-23T09:12:51Z</time></trkpt><trkpt lat="45.59185638870799" lon="11.046514663218261"><ele>635.0</ele><time>2026-03-23T09:12:52Z</time></trkpt><trkpt lat="45.59177286209242" lon="11.046534846347722"><ele>631.5</ele><time>2026-03-23T09:12:53Z</time></trkpt><trkpt lat="45.59168031240453" lon="11.046629291762741"><ele>628.0</ele><time>2026-03-23T09:12:54Z</time></trkpt><trkpt lat="45.59158503232509" lon="11.046705773956084"><ele>624.5</ele><time>2026-03-23T09:12:55Z</time></trkpt><trkpt lat="45.591495181341976" lon="11.046891090219827"><ele>621.0</ele><time>2026-03-23T09:12:56Z</time></trkpt><trkpt lat="45.59140060844191" lon="11.047079353897889"><ele>621.0</ele><time>2026-03-23T09:12:57Z</time></trkpt><trkpt lat="45.59124997047343" lon="11.047196375404093"><ele>621.0</ele><time>2026-03-23T09:12:58Z</time></trkpt><trkpt lat="45.591107646200925" lon="11.047313191568845"><ele>621.0</ele><time>2026-03-23T09:12:59Z</time></trkpt><trkpt lat="45.59093973273239" lon="11.04739857378626"><ele>619.0</ele><time>2026-03-23T09:13:00Z</time></trkpt><trkpt lat="45.59077945487125" lon="11.04751487409036"><ele>617.0</ele><time>2026-03-23T09:13:01Z</time></trkpt><trkpt lat="45.59062571610391" lon="11.047619871497258"><ele>615.0</ele><time>2026-03-23T09:13:02Z</time></trkpt><trkpt lat="45.59048202567683" lon="11.047725532081962"><ele>615.0</ele><time>2026-03-23T09:13:03Z</time></trkpt><trkpt lat="45.59034919099159" lon="11.047781013796174"><ele>615.0</ele><time>2026-03-23T09:13:04Z</time></trkpt><trkpt lat="45.59020007140032" lon="11.047796790020067"><ele>615.0</ele><time>2026-03-23T09:13:05Z</time></trkpt><trkpt lat="45.590020944269035" lon="11.04781711340492"><ele>624.6666666666666</ele><time>2026-03-23T09:13:06Z</time></trkpt><trkpt lat="45.58984338972452" lon="11.04785400474189"><ele>634.3333333333333</ele><time>2026-03-23T09:13:07Z</time></trkpt><trkpt lat="45.589682281136746" lon="11.047873967713622"><ele>644.0</ele><time>2026-03-23T09:13:08Z</time></trkpt><trkpt lat="45.58954098605686" lon="11.04793535915237"><ele>641.3333333333333</ele><time>2026-03-23T09:13:09Z</time></trkpt><trkpt lat="45.58939203754146" lon="11.048056504442176"><ele>638.6666666666666</ele><time>2026-03-23T09:13:10Z</time></trkpt><trkpt lat="45.58924106700843" lon="11.048188415700603"><ele>636.0</ele><time>2026-03-23T09:13:11Z</time></trkpt><trkpt lat="45.589119863463964" lon="11.048309038130439"><ele>636.0</ele><time>2026-03-23T09:13:12Z</time></trkpt><trkpt lat="45.58903969094079" lon="11.048456443885865"><ele>636.0</ele><time>2026-03-23T09:13:13Z</time></trkpt><trkpt lat="45.58896633406135" lon="11.04862222617192"><ele>636.0</ele><time>2026-03-23T09:13:14Z</time></trkpt><trkpt lat="45.58885713983052" lon="11.048729495216733"><ele>636.0</ele><time>2026-03-23T09:13:15Z</time></trkpt><trkpt lat="45.58870527194475" lon="11.048807797036451"><ele>638.6666666666666</ele><time>2026-03-23T09:13:16Z</time></trkpt><trkpt lat="45.58854738114647" lon="11.048883049725074"><ele>641.3333333333333</ele><time>2026-03-23T09:13:17Z</time></trkpt><trkpt lat="45.58840675229956" lon="11.049029216135425"><ele>644.0</ele><time>2026-03-23T09:13:18Z</time></trkpt><trkpt lat="45.58829328436992" lon="11.049222411824344"><ele>644.0</ele><time>2026-03-23T09:13:19Z</time></trkpt><trkpt lat="45.58819214653074" lon="11.04938486842742"><ele>644.0</ele><time>2026-03-23T09:13:20Z</time></trkpt><trkpt lat="45.5880985993631" lon="11.049518909312766"><ele>644.0</ele><time>2026-03-23T09:13:21Z</time></trkpt><trkpt lat="45.58799814943185" lon="11.04962075287888"><ele>644.0</ele><time>2026-03-23T09:13:22Z</time></trkpt><trkpt lat="45.587850376083274" lon="11.049682351757054"><ele>651.3333333333333</ele><time>2026-03-23T09:13:23Z</time></trkpt><trkpt lat="45.58769107415334" lon="11.04977010521052"><ele>658.6666666666666</ele><time>2026-03-23T09:13:24Z</time></trkpt><trkpt lat="45.58753064828015" lon="11.049814546793403"><ele>666.0</ele><time>2026-03-23T09:13:25Z</time></trkpt><trkpt lat="45.58737845837664" lon="11.04985227234422"><ele>666.0</ele><time>2026-03-23T09:13:26Z</time></trkpt><trkpt lat="45.58723188836475" lon="11.049813573729718"><ele>666.0</ele><time>2026-03-23T09:13:27Z</time></trkpt><trkpt lat="45.58706173640957" lon="11.049770839468778"><ele>666.0</ele><time>2026-03-23T09:13:28Z</time></trkpt><trkpt lat="45.58688474020923" lon="11.04969567228756"><ele>670.6666666666666</ele><time>2026-03-23T09:13:29Z</time></trkpt><trkpt lat="45.5867211896136" lon="11.049650255856275"><ele>675.3333333333333</ele><time>2026-03-23T09:13:30Z</time></trkpt><trkpt lat="45.58656800842008" lon="11.049623115269126"><ele>680.0</ele><time>2026-03-23T09:13:31Z</time></trkpt><trkpt lat="45.58640940086009" lon="11.049600424910446"><ele>680.0</ele><time>2026-03-23T09:13:32Z</time></trkpt><trkpt lat="45.586252241295725" lon="11.049598978508026"><ele>680.0</ele><time>2026-03-23T09:13:33Z</time></trkpt><trkpt lat="45.58610347926647" lon="11.049629096564255"><ele>680.0</ele><time>2026-03-23T09:13:34Z</time></trkpt><trkpt lat="45.58595855588026" lon="11.049682127432614"><ele>683.3333333333333</ele><time>2026-03-23T09:13:35Z</time></trkpt><trkpt lat="45.585812974089244" lon="11.049756906245529"><ele>686.6666666666666</ele><time>2026-03-23T09:13:36Z</time></trkpt><trkpt lat="45.58566819249776" lon="11.049843343685149"><ele>690.0</ele><time>2026-03-23T09:13:37Z</time></trkpt><trkpt lat="45.58554182463793" lon="11.04993897825373"><ele>687.25</ele><time>2026-03-23T09:13:38Z</time></trkpt><trkpt lat="45.58544049474236" lon="11.050029362936373"><ele>684.5</ele><time>2026-03-23T09:13:39Z</time></trkpt><trkpt lat="45.58533729797554" lon="11.05006503824214"><ele>681.75</ele><time>2026-03-23T09:13:40Z</time></trkpt><trkpt lat="45.58521155726362" lon="11.050038387229096"><ele>679.0</ele><time>2026-03-23T09:13:41Z</time></trkpt><trkpt lat="45.58510980934209" lon="11.049943404516101"><ele>679.0</ele><time>2026-03-23T09:13:42Z</time></trkpt><trkpt lat="45.58503267767523" lon="11.04980688050699"><ele>679.0</ele><time>2026-03-23T09:13:43Z</time></trkpt><trkpt lat="45.584927640359204" lon="11.049646758435832"><ele>679.0</ele><time>2026-03-23T09:13:44Z</time></trkpt><trkpt lat="45.58484221341244" lon="11.049464951286506"><ele>679.0</ele><time>2026-03-23T09:13:45Z</time></trkpt><trkpt lat="45.584796396949656" lon="11.0492600926749"><ele>685.3333333333334</ele><time>2026-03-23T09:13:46Z</time></trkpt><trkpt lat="45.584743913866504" lon="11.049055147116684"><ele>691.6666666666666</ele><time>2026-03-23T09:13:47Z</time></trkpt><trkpt lat="45.584715195082566" lon="11.048838236065924"><ele>698.0</ele><time>2026-03-23T09:13:48Z</time></trkpt><trkpt lat="45.58467230594722" lon="11.04859727850732"><ele>698.0</ele><time>2026-03-23T09:13:49Z</time></trkpt><trkpt lat="45.58462466777139" lon="11.048339847677024"><ele>698.0</ele><time>2026-03-23T09:13:50Z</time></trkpt><trkpt lat="45.58458301567039" lon="11.048097044153007"><ele>698.0</ele><time>2026-03-23T09:13:51Z</time></trkpt><trkpt lat="45.58454377249136" lon="11.047865620577808"><ele>693.6666666666666</ele><time>2026-03-23T09:13:52Z</time></trkpt><trkpt lat="45.58450301420282" lon="11.047641804863405"><ele>689.3333333333334</ele><time>2026-03-23T09:13:53Z</time></trkpt><trkpt lat="45.584458387008276" lon="11.047424122792965"><ele>685.0</ele><time>2026-03-23T09:13:54Z</time></trkpt><trkpt lat="45.584412029120486" lon="11.047211972928059"><ele>685.0</ele><time>2026-03-23T09:13:55Z</time></trkpt><trkpt lat="45.584381501877054" lon="11.047001066776454"><ele>685.0</ele><time>2026-03-23T09:13:56Z</time></trkpt><trkpt lat="45.58437651400674" lon="11.046786521374603"><ele>685.0</ele><time>2026-03-23T09:13:57Z</time></trkpt><trkpt lat="45.584403330791176" lon="11.04656878781182"><ele>687.6666666666667</ele><time>2026-03-23T09:13:58Z</time></trkpt><trkpt lat="45.58444710415453" lon="11.046346600692281"><ele>690.3333333333334</ele><time>2026-03-23T09:13:59Z</time></trkpt><trkpt lat="45.5844494018302" lon="11.046132038046066"><ele>693.0</ele><time>2026-03-23T09:14:00Z</time></trkpt><trkpt lat="45.58440770237853" lon="11.045937844624593"><ele>696.5</ele><time>2026-03-23T09:14:01Z</time></trkpt><trkpt lat="45.58432831349732" lon="11.045768992494942"><ele>700.0</ele><time>2026-03-23T09:14:02Z</time></trkpt><trkpt lat="45.58421956830868" lon="11.0456373201003"><ele>703.5</ele><time>2026-03-23T09:14:03Z</time></trkpt><trkpt lat="45.5840923687882" lon="11.045531119494814"><ele>707.0</ele><time>2026-03-23T09:14:04Z</time></trkpt><trkpt lat="45.58395718391823" lon="11.045454163855256"><ele>707.0</ele><time>2026-03-23T09:14:05Z</time></trkpt><trkpt lat="45.58383304656275" lon="11.04536433321756"><ele>707.0</ele><time>2026-03-23T09:14:06Z</time></trkpt><trkpt lat="45.58372477334209" lon="11.045245968889807"><ele>707.0</ele><time>2026-03-23T09:14:07Z</time></trkpt><trkpt lat="45.58362770637646" lon="11.045116546636626"><ele>707.0</ele><time>2026-03-23T09:14:08Z</time></trkpt><trkpt lat="45.583556184760006" lon="11.044959909840772"><ele>707.75</ele><time>2026-03-23T09:14:09Z</time></trkpt><trkpt lat="45.58349916150816" lon="11.044778342280432"><ele>708.5</ele><time>2026-03-23T09:14:10Z</time></trkpt><trkpt lat="45.58344710514795" lon="11.044579005971856"><ele>709.25</ele><time>2026-03-23T09:14:11Z</time></trkpt><trkpt lat="45.583392336598216" lon="11.044396690821017"><ele>710.0</ele><time>2026-03-23T09:14:12Z</time></trkpt><trkpt lat="45.58332563465757" lon="11.044226001726319"><ele>711.75</ele><time>2026-03-23T09:14:13Z</time></trkpt><trkpt lat="45.583242361190315" lon="11.044065174639776"><ele>713.5</ele><time>2026-03-23T09:14:14Z</time></trkpt><trkpt lat="45.58314181295143" lon="11.043923422104285"><ele>715.25</ele><time>2026-03-23T09:14:15Z</time></trkpt><trkpt lat="45.58302616787267" lon="11.0438088206966"><ele>717.0</ele><time>2026-03-23T09:14:16Z</time></trkpt><trkpt lat="45.582892985914704" lon="11.043718202028845"><ele>718.0</ele><time>2026-03-23T09:14:17Z</time></trkpt><trkpt lat="45.58274607999899" lon="11.043659871022337"><ele>719.0</ele><time>2026-03-23T09:14:18Z</time></trkpt><trkpt lat="45.58259587726109" lon="11.043617525728171"><ele>720.0</ele><time>2026-03-23T09:14:19Z</time></trkpt><trkpt lat="45.58244480562561" lon="11.043561799713355"><ele>720.0</ele><time>2026-03-23T09:14:20Z</time></trkpt><trkpt lat="45.58229535751906" lon="11.04350039719335"><ele>720.0</ele><time>2026-03-23T09:14:21Z</time></trkpt><trkpt lat="45.582145154081836" lon="11.04344223517772"><ele>720.0</ele><time>2026-03-23T09:14:22Z</time></trkpt><trkpt lat="45.58199296561839" lon="11.043380062495556"><ele>720.0</ele><time>2026-03-23T09:14:23Z</time></trkpt><trkpt lat="45.58184045640716" lon="11.043317191890285"><ele>720.0</ele><time>2026-03-23T09:14:24Z</time></trkpt><trkpt lat="45.58168817875982" lon="11.043254540337495"><ele>720.0</ele><time>2026-03-23T09:14:25Z</time></trkpt><trkpt lat="45.58153584077287" lon="11.043190078327411"><ele>725.0</ele><time>2026-03-23T09:14:26Z</time></trkpt><trkpt lat="45.58138212179966" lon="11.043130290367138"><ele>730.0</ele><time>2026-03-23T09:14:27Z</time></trkpt><trkpt lat="45.58123012390595" lon="11.043072786654832"><ele>735.0</ele><time>2026-03-23T09:14:28Z</time></trkpt><trkpt lat="45.58108822275376" lon="11.043005276663724"><ele>735.0</ele><time>2026-03-23T09:14:29Z</time></trkpt><trkpt lat="45.58094003628141" lon="11.04295838413332"><ele>735.0</ele><time>2026-03-23T09:14:30Z</time></trkpt><trkpt lat="45.58078987630506" lon="11.042929244191901"><ele>735.0</ele><time>2026-03-23T09:14:31Z</time></trkpt><trkpt lat="45.58063038858058" lon="11.0429289218498"><ele>735.0</ele><time>2026-03-23T09:14:32Z</time></trkpt><trkpt lat="45.58047253961897" lon="11.04295336445403"><ele>735.0</ele><time>2026-03-23T09:14:33Z</time></trkpt><trkpt lat="45.58031915955029" lon="11.042976289080638"><ele>735.0</ele><time>2026-03-23T09:14:34Z</time></trkpt><trkpt lat="45.58018338931742" lon="11.042985375656261"><ele>735.0</ele><time>2026-03-23T09:14:35Z</time></trkpt><trkpt lat="45.580059517714226" lon="11.042994377584796"><ele>735.5</ele><time>2026-03-23T09:14:36Z</time></trkpt><trkpt lat="45.579955370403084" lon="11.043003686555302"><ele>736.0</ele><time>2026-03-23T09:14:37Z</time></trkpt><trkpt lat="45.579887854033274" lon="11.042993793631256"><ele>736.5</ele><time>2026-03-23T09:14:38Z</time></trkpt><trkpt lat="45.57978707895462" lon="11.042913098190972"><ele>737.0</ele><time>2026-03-23T09:14:40Z</time></trkpt><trkpt lat="45.57973470066241" lon="11.042850740073622"><ele>737.5</ele><time>2026-03-23T09:14:41Z</time></trkpt><trkpt lat="45.57968821610816" lon="11.042778706386217"><ele>738.0</ele><time>2026-03-23T09:14:42Z</time></trkpt><trkpt lat="45.579646785415974" lon="11.04265368752772"><ele>738.0</ele><time>2026-03-23T09:14:44Z</time></trkpt><trkpt lat="45.57959389770676" lon="11.042562365785397"><ele>738.0</ele><time>2026-03-23T09:14:48Z</time></trkpt><trkpt lat="45.57946314054165" lon="11.042599161936785"><ele>738.0</ele><time>2026-03-23T09:14:50Z</time></trkpt><trkpt lat="45.57938309132115" lon="11.042681895001412"><ele>738.0</ele><time>2026-03-23T09:14:51Z</time></trkpt><trkpt lat="45.57929608124615" lon="11.042772543570331"><ele>738.0</ele><time>2026-03-23T09:14:52Z</time></trkpt><trkpt lat="45.579203222570186" lon="11.042852811394601"><ele>737.25</ele><time>2026-03-23T09:14:53Z</time></trkpt><trkpt lat="45.57911449367323" lon="11.042933897331137"><ele>736.5</ele><time>2026-03-23T09:14:54Z</time></trkpt><trkpt lat="45.57901144236387" lon="11.043035444383177"><ele>735.75</ele><time>2026-03-23T09:14:55Z</time></trkpt><trkpt lat="45.57889431723302" lon="11.043139923373841"><ele>735.0</ele><time>2026-03-23T09:14:56Z</time></trkpt><trkpt lat="45.57877615044362" lon="11.043224747739167"><ele>736.0</ele><time>2026-03-23T09:14:57Z</time></trkpt><trkpt lat="45.5786628083593" lon="11.043293200604642"><ele>737.0</ele><time>2026-03-23T09:14:58Z</time></trkpt><trkpt lat="45.57857218015693" lon="11.04345335732479"><ele>738.0</ele><time>2026-03-23T09:14:59Z</time></trkpt><trkpt lat="45.57839512302087" lon="11.043346705922682"><ele>738.0</ele><time>2026-03-23T09:15:00Z</time></trkpt><trkpt lat="45.578255238845664" lon="11.043313603223467"><ele>738.0</ele><time>2026-03-23T09:15:01Z</time></trkpt><trkpt lat="45.578108283195306" lon="11.043241586148984"><ele>738.0</ele><time>2026-03-23T09:15:02Z</time></trkpt><trkpt lat="45.5779722334228" lon="11.043136215735007"><ele>736.0</ele><time>2026-03-23T09:15:03Z</time></trkpt><trkpt lat="45.57785715327872" lon="11.04298891713862"><ele>734.0</ele><time>2026-03-23T09:15:04Z</time></trkpt><trkpt lat="45.577779057034085" lon="11.042804325349376"><ele>732.0</ele><time>2026-03-23T09:15:05Z</time></trkpt><trkpt lat="45.57771014416266" lon="11.042609984434693"><ele>730.25</ele><time>2026-03-23T09:15:06Z</time></trkpt><trkpt lat="45.577656609366514" lon="11.04240686008037"><ele>728.5</ele><time>2026-03-23T09:15:07Z</time></trkpt><trkpt lat="45.577606020564254" lon="11.04221711987947"><ele>726.75</ele><time>2026-03-23T09:15:08Z</time></trkpt><trkpt lat="45.57756170128822" lon="11.042029746736826"><ele>725.0</ele><time>2026-03-23T09:15:09Z</time></trkpt><trkpt lat="45.57751161215839" lon="11.041851827499782"><ele>725.0</ele><time>2026-03-23T09:15:10Z</time></trkpt><trkpt lat="45.57746105477826" lon="11.041688569004533"><ele>725.0</ele><time>2026-03-23T09:15:11Z</time></trkpt><trkpt lat="45.57739553060432" lon="11.041551580518163"><ele>725.0</ele><time>2026-03-23T09:15:12Z</time></trkpt><trkpt lat="45.577311488938136" lon="11.041436017448174"><ele>725.0</ele><time>2026-03-23T09:15:13Z</time></trkpt><trkpt lat="45.577222482266265" lon="11.041345809337528"><ele>723.8</ele><time>2026-03-23T09:15:14Z</time></trkpt><trkpt lat="45.577131456209784" lon="11.041276285397352"><ele>722.6</ele><time>2026-03-23T09:15:15Z</time></trkpt><trkpt lat="45.57703651360066" lon="11.04123887476518"><ele>721.4000000000001</ele><time>2026-03-23T09:15:16Z</time></trkpt><trkpt lat="45.57693925502095" lon="11.041221436529117"><ele>720.2</ele><time>2026-03-23T09:15:17Z</time></trkpt><trkpt lat="45.57684901636493" lon="11.041219815081666"><ele>719.0</ele><time>2026-03-23T09:15:18Z</time></trkpt><trkpt lat="45.576743611582586" lon="11.041224089810296"><ele>719.0</ele><time>2026-03-23T09:15:19Z</time></trkpt><trkpt lat="45.57664262531556" lon="11.041242955179285"><ele>719.0</ele><time>2026-03-23T09:15:20Z</time></trkpt><trkpt lat="45.57655003328547" lon="11.041259718543696"><ele>719.0</ele><time>2026-03-23T09:15:21Z</time></trkpt><trkpt lat="45.576461771683746" lon="11.041270674863584"><ele>719.0</ele><time>2026-03-23T09:15:22Z</time></trkpt><trkpt lat="45.576376125914656" lon="11.041281390009845"><ele>719.0</ele><time>2026-03-23T09:15:23Z</time></trkpt><trkpt lat="45.57629018948642" lon="11.041295754701535"><ele>719.0</ele><time>2026-03-23T09:15:24Z</time></trkpt><trkpt lat="45.57620914396952" lon="11.041309807486252"><ele>719.0</ele><time>2026-03-23T09:15:25Z</time></trkpt><trkpt lat="45.57612647875527" lon="11.041319459560544"><ele>719.0</ele><time>2026-03-23T09:15:26Z</time></trkpt><trkpt lat="45.576045906925806" lon="11.041334273429989"><ele>719.0</ele><time>2026-03-23T09:15:27Z</time></trkpt><trkpt lat="45.57597017001158" lon="11.04134968795271"><ele>719.0</ele><time>2026-03-23T09:15:28Z</time></trkpt><trkpt lat="45.5758860984224" lon="11.041354689772524"><ele>719.0</ele><time>2026-03-23T09:15:29Z</time></trkpt><trkpt lat="45.57578673378484" lon="11.041357838842705"><ele>719.3333333333333</ele><time>2026-03-23T09:15:30Z</time></trkpt><trkpt lat="45.57569333771936" lon="11.041361809390558"><ele>719.6666666666666</ele><time>2026-03-23T09:15:31Z</time></trkpt><trkpt lat="45.57560475798467" lon="11.041364119758128"><ele>720.0</ele><time>2026-03-23T09:15:32Z</time></trkpt><trkpt lat="45.57552005867392" lon="11.041328390591687"><ele>720.3333333333334</ele><time>2026-03-23T09:15:33Z</time></trkpt><trkpt lat="45.57544147666415" lon="11.041299572093408"><ele>720.6666666666667</ele><time>2026-03-23T09:15:34Z</time></trkpt><trkpt lat="45.57537667832058" lon="11.041246889009571"><ele>721.0</ele><time>2026-03-23T09:15:35Z</time></trkpt><trkpt lat="45.575312571851214" lon="11.041154048500024"><ele>721.0</ele><time>2026-03-23T09:15:36Z</time></trkpt><trkpt lat="45.575245199906206" lon="11.041047825643554"><ele>721.0</ele><time>2026-03-23T09:15:37Z</time></trkpt><trkpt lat="45.57519710433299" lon="11.040900738265247"><ele>721.0</ele><time>2026-03-23T09:15:38Z</time></trkpt><trkpt lat="45.57515641213187" lon="11.040756714924072"><ele>721.0</ele><time>2026-03-23T09:15:39Z</time></trkpt><trkpt lat="45.5751081275712" lon="11.040614903328343"><ele>721.0</ele><time>2026-03-23T09:15:40Z</time></trkpt><trkpt lat="45.575056275532184" lon="11.040472193925469"><ele>719.4</ele><time>2026-03-23T09:15:41Z</time></trkpt><trkpt lat="45.575011494913355" lon="11.040334944085394"><ele>717.8</ele><time>2026-03-23T09:15:42Z</time></trkpt><trkpt lat="45.574968943924624" lon="11.040198410386347"><ele>716.1999999999999</ele><time>2026-03-23T09:15:43Z</time></trkpt><trkpt lat="45.574928977719665" lon="11.040056475704544"><ele>714.5999999999999</ele><time>2026-03-23T09:15:44Z</time></trkpt><trkpt lat="45.574882936171115" lon="11.039905231643168"><ele>713.0</ele><time>2026-03-23T09:15:45Z</time></trkpt><trkpt lat="45.57483503514206" lon="11.039750014799953"><ele>712.0</ele><time>2026-03-23T09:15:46Z</time></trkpt><trkpt lat="45.57478521156071" lon="11.039598008349566"><ele>711.0</ele><time>2026-03-23T09:15:47Z</time></trkpt><trkpt lat="45.574738687960725" lon="11.039442597036475"><ele>710.0</ele><time>2026-03-23T09:15:48Z</time></trkpt><trkpt lat="45.57468498634132" lon="11.039287716939997"><ele>709.0</ele><time>2026-03-23T09:15:49Z</time></trkpt><trkpt lat="45.574634805475654" lon="11.039143827352932"><ele>709.4000000000001</ele><time>2026-03-23T09:15:50Z</time></trkpt><trkpt lat="45.574579896102065" lon="11.039005628267697"><ele>709.8</ele><time>2026-03-23T09:15:51Z</time></trkpt><trkpt lat="45.57453075574359" lon="11.038873059549449"><ele>710.2</ele><time>2026-03-23T09:15:52Z</time></trkpt><trkpt lat="45.57446916912512" lon="11.038754979417465"><ele>710.5999999999999</ele><time>2026-03-23T09:15:53Z</time></trkpt><trkpt lat="45.57437687146425" lon="11.038669661036188"><ele>711.0</ele><time>2026-03-23T09:15:54Z</time></trkpt><trkpt lat="45.57426013590783" lon="11.03859956223713"><ele>711.25</ele><time>2026-03-23T09:15:55Z</time></trkpt><trkpt lat="45.57413779058806" lon="11.03854643724375"><ele>711.5</ele><time>2026-03-23T09:15:56Z</time></trkpt><trkpt lat="45.57401327537306" lon="11.038511846642505"><ele>711.75</ele><time>2026-03-23T09:15:57Z</time></trkpt><trkpt lat="45.57388298493094" lon="11.03851174952491"><ele>712.0</ele><time>2026-03-23T09:15:58Z</time></trkpt><trkpt lat="45.573754207806715" lon="11.038539942235765"><ele>709.75</ele><time>2026-03-23T09:15:59Z</time></trkpt><trkpt lat="45.573630354280006" lon="11.038602629719291"><ele>707.5</ele><time>2026-03-23T09:16:00Z</time></trkpt><trkpt lat="45.57352405259022" lon="11.038691336711178"><ele>705.25</ele><time>2026-03-23T09:16:01Z</time></trkpt><trkpt lat="45.5734311588507" lon="11.03878788495554"><ele>703.0</ele><time>2026-03-23T09:16:02Z</time></trkpt><trkpt lat="45.57334439384228" lon="11.038890522102863"><ele>703.0</ele><time>2026-03-23T09:16:03Z</time></trkpt><trkpt lat="45.57326351555817" lon="11.039017636017665"><ele>703.0</ele><time>2026-03-23T09:16:04Z</time></trkpt><trkpt lat="45.57319255670765" lon="11.039173005854696"><ele>703.0</ele><time>2026-03-23T09:16:05Z</time></trkpt><trkpt lat="45.57314657596425" lon="11.039355447408534"><ele>703.0</ele><time>2026-03-23T09:16:06Z</time></trkpt><trkpt lat="45.57309986755183" lon="11.039514543716727"><ele>702.2</ele><time>2026-03-23T09:16:07Z</time></trkpt><trkpt lat="45.57305137831696" lon="11.039659180318395"><ele>701.4</ele><time>2026-03-23T09:16:08Z</time></trkpt><trkpt lat="45.573003458553785" lon="11.0397855277722"><ele>700.6</ele><time>2026-03-23T09:16:09Z</time></trkpt><trkpt lat="45.57295034502478" lon="11.039910737215937"><ele>699.8000000000001</ele><time>2026-03-23T09:16:10Z</time></trkpt><trkpt lat="45.572889993536045" lon="11.04003098523625"><ele>699.0</ele><time>2026-03-23T09:16:11Z</time></trkpt><trkpt lat="45.572805436331656" lon="11.040120571645394"><ele>699.0</ele><time>2026-03-23T09:16:12Z</time></trkpt><trkpt lat="45.57273646051511" lon="11.040227204849824"><ele>699.0</ele><time>2026-03-23T09:16:13Z</time></trkpt><trkpt lat="45.572657025875756" lon="11.040318814867074"><ele>699.0</ele><time>2026-03-23T09:16:14Z</time></trkpt><trkpt lat="45.57257899744522" lon="11.04041225822214"><ele>699.0</ele><time>2026-03-23T09:16:15Z</time></trkpt><trkpt lat="45.57250293891515" lon="11.040505234416692"><ele>699.0</ele><time>2026-03-23T09:16:16Z</time></trkpt><trkpt lat="45.57242019974228" lon="11.040592159648442"><ele>699.0</ele><time>2026-03-23T09:16:17Z</time></trkpt><trkpt lat="45.572336521632295" lon="11.040678273469954"><ele>699.0</ele><time>2026-03-23T09:16:18Z</time></trkpt><trkpt lat="45.572246711234705" lon="11.040792945646485"><ele>699.0</ele><time>2026-03-23T09:16:19Z</time></trkpt><trkpt lat="45.57215371010935" lon="11.04092003235771"><ele>699.0</ele><time>2026-03-23T09:16:20Z</time></trkpt><trkpt lat="45.57206209656729" lon="11.041059731565797"><ele>700.0</ele><time>2026-03-23T09:16:21Z</time></trkpt><trkpt lat="45.57200244721146" lon="11.041212198681588"><ele>701.0</ele><time>2026-03-23T09:16:22Z</time></trkpt><trkpt lat="45.57195400105102" lon="11.041384419394516"><ele>702.0</ele><time>2026-03-23T09:16:23Z</time></trkpt><trkpt lat="45.571919950003554" lon="11.041569590073994"><ele>703.0</ele><time>2026-03-23T09:16:24Z</time></trkpt><trkpt lat="45.57190842618957" lon="11.041760940647992"><ele>703.0</ele><time>2026-03-23T09:16:25Z</time></trkpt><trkpt lat="45.571904658304575" lon="11.041951816935327"><ele>703.0</ele><time>2026-03-23T09:16:26Z</time></trkpt><trkpt lat="45.5719019791597" lon="11.04212501726026"><ele>703.0</ele><time>2026-03-23T09:16:27Z</time></trkpt><trkpt lat="45.57189432699331" lon="11.042291740602971"><ele>703.0</ele><time>2026-03-23T09:16:28Z</time></trkpt><trkpt lat="45.571881928825135" lon="11.042448748237838"><ele>703.75</ele><time>2026-03-23T09:16:29Z</time></trkpt><trkpt lat="45.57186463659263" lon="11.04259721820932"><ele>704.5</ele><time>2026-03-23T09:16:30Z</time></trkpt><trkpt lat="45.571830824670656" lon="11.042744169274512"><ele>705.25</ele><time>2026-03-23T09:16:31Z</time></trkpt><trkpt lat="45.57179142794211" lon="11.042901446207033"><ele>706.0</ele><time>2026-03-23T09:16:32Z</time></trkpt><trkpt lat="45.57173882760435" lon="11.043056109303992"><ele>706.0</ele><time>2026-03-23T09:16:33Z</time></trkpt><trkpt lat="45.57168072373522" lon="11.04322198641335"><ele>706.0</ele><time>2026-03-23T09:16:34Z</time></trkpt><trkpt lat="45.571618792582036" lon="11.04338224888938"><ele>706.0</ele><time>2026-03-23T09:16:35Z</time></trkpt><trkpt lat="45.571558947256804" lon="11.043536307868955"><ele>706.0</ele><time>2026-03-23T09:16:36Z</time></trkpt><trkpt lat="45.57150239108905" lon="11.043681495037903"><ele>705.5</ele><time>2026-03-23T09:16:37Z</time></trkpt><trkpt lat="45.571444763760084" lon="11.043822824221582"><ele>705.0</ele><time>2026-03-23T09:16:38Z</time></trkpt><trkpt lat="45.571381180004316" lon="11.043968468221264"><ele>704.5</ele><time>2026-03-23T09:16:39Z</time></trkpt><trkpt lat="45.571307572194904" lon="11.044110160136423"><ele>704.0</ele><time>2026-03-23T09:16:40Z</time></trkpt><trkpt lat="45.571231540946386" lon="11.044242774781601"><ele>705.5</ele><time>2026-03-23T09:16:41Z</time></trkpt><trkpt lat="45.57113940887091" lon="11.04435950336675"><ele>707.0</ele><time>2026-03-23T09:16:42Z</time></trkpt><trkpt lat="45.57103697365148" lon="11.044459729270553"><ele>708.5</ele><time>2026-03-23T09:16:43Z</time></trkpt><trkpt lat="45.570925147097945" lon="11.044537278056655"><ele>710.0</ele><time>2026-03-23T09:16:44Z</time></trkpt><trkpt lat="45.570805648718185" lon="11.044588445132657"><ele>710.0</ele><time>2026-03-23T09:16:45Z</time></trkpt><trkpt lat="45.57068442642354" lon="11.044609295197876"><ele>710.0</ele><time>2026-03-23T09:16:46Z</time></trkpt><trkpt lat="45.570563642244984" lon="11.044609215637498"><ele>710.0</ele><time>2026-03-23T09:16:47Z</time></trkpt><trkpt lat="45.57044641944767" lon="11.04458244399235"><ele>710.0</ele><time>2026-03-23T09:16:48Z</time></trkpt><trkpt lat="45.570326216397845" lon="11.044541230526672"><ele>710.0</ele><time>2026-03-23T09:16:49Z</time></trkpt><trkpt lat="45.57020660028644" lon="11.044507131179433"><ele>710.0</ele><time>2026-03-23T09:16:50Z</time></trkpt><trkpt lat="45.57008579547935" lon="11.044463019415879"><ele>710.0</ele><time>2026-03-23T09:16:51Z</time></trkpt><trkpt lat="45.56996507452933" lon="11.044424411559548"><ele>710.0</ele><time>2026-03-23T09:16:52Z</time></trkpt><trkpt lat="45.569844545118826" lon="11.044371377624921"><ele>710.0</ele><time>2026-03-23T09:16:53Z</time></trkpt><trkpt lat="45.56972565376514" lon="11.044308401858354"><ele>710.0</ele><time>2026-03-23T09:16:54Z</time></trkpt><trkpt lat="45.56960859326611" lon="11.044231083095182"><ele>710.0</ele><time>2026-03-23T09:16:55Z</time></trkpt><trkpt lat="45.56949258673227" lon="11.044152932124847"><ele>710.0</ele><time>2026-03-23T09:16:56Z</time></trkpt><trkpt lat="45.569379681337736" lon="11.044060395784639"><ele>711.5</ele><time>2026-03-23T09:16:57Z</time></trkpt><trkpt lat="45.56927071474826" lon="11.043957724888061"><ele>713.0</ele><time>2026-03-23T09:16:58Z</time></trkpt><trkpt lat="45.569171254740965" lon="11.043857041829115"><ele>714.5</ele><time>2026-03-23T09:16:59Z</time></trkpt><trkpt lat="45.5690798635065" lon="11.043759828584427"><ele>716.0</ele><time>2026-03-23T09:17:00Z</time></trkpt><trkpt lat="45.569008323542214" lon="11.043666426263695"><ele>716.0</ele><time>2026-03-23T09:17:01Z</time></trkpt><trkpt lat="45.568940355807825" lon="11.043591577873126"><ele>716.0</ele><time>2026-03-23T09:17:02Z</time></trkpt><trkpt lat="45.56887656947209" lon="11.043517849575663"><ele>716.0</ele><time>2026-03-23T09:17:03Z</time></trkpt><trkpt lat="45.56882353804706" lon="11.04345562907799"><ele>716.0</ele><time>2026-03-23T09:17:04Z</time></trkpt><trkpt lat="45.56874120321095" lon="11.043362368505747"><ele>716.0</ele><time>2026-03-23T09:17:06Z</time></trkpt><trkpt lat="45.56866535185056" lon="11.043301820865878"><ele>716.0</ele><time>2026-03-23T09:18:39Z</time></trkpt><trkpt lat="45.568602399973656" lon="11.043209068290636"><ele>715.8</ele><time>2026-03-23T09:18:41Z</time></trkpt><trkpt lat="45.56852875654037" lon="11.043123362833217"><ele>715.5999999999999</ele><time>2026-03-23T09:18:43Z</time></trkpt><trkpt lat="45.56844758117637" lon="11.04302889174284"><ele>715.4</ele><time>2026-03-23T09:18:45Z</time></trkpt><trkpt lat="45.56834485147099" lon="11.042909335949037"><ele>715.2</ele><time>2026-03-23T09:18:47Z</time></trkpt><trkpt lat="45.56827795725793" lon="11.042831485083022"><ele>715.0</ele><time>2026-03-23T09:18:48Z</time></trkpt><trkpt lat="45.56821711847346" lon="11.042760681526858"><ele>715.0</ele><time>2026-03-23T09:18:49Z</time></trkpt><trkpt lat="45.56815705985313" lon="11.042690785941266"><ele>715.0</ele><time>2026-03-23T09:18:50Z</time></trkpt><trkpt lat="45.568087778280265" lon="11.042621014648109"><ele>715.0</ele><time>2026-03-23T09:18:51Z</time></trkpt><trkpt lat="45.56802214273671" lon="11.042528004100257"><ele>715.0</ele><time>2026-03-23T09:18:52Z</time></trkpt><trkpt lat="45.56793782928773" lon="11.04243404792744"><ele>715.0</ele><time>2026-03-23T09:18:53Z</time></trkpt><trkpt lat="45.567848739493826" lon="11.042333326502337"><ele>714.5</ele><time>2026-03-23T09:18:54Z</time></trkpt><trkpt lat="45.56774800443889" lon="11.042220748875277"><ele>714.0</ele><time>2026-03-23T09:18:55Z</time></trkpt><trkpt lat="45.56766309435734" lon="11.042128142918608"><ele>713.5</ele><time>2026-03-23T09:18:56Z</time></trkpt><trkpt lat="45.56755946601069" lon="11.042010065946524"><ele>713.0</ele><time>2026-03-23T09:18:57Z</time></trkpt><trkpt lat="45.56744870103896" lon="11.041867417386904"><ele>713.0</ele><time>2026-03-23T09:18:58Z</time></trkpt><trkpt lat="45.5673115016069" lon="11.041700030565504"><ele>713.0</ele><time>2026-03-23T09:19:00Z</time></trkpt><trkpt lat="45.567225036379604" lon="11.04160009390923"><ele>713.0</ele><time>2026-03-23T09:19:01Z</time></trkpt><trkpt lat="45.56713528793779" lon="11.041495784404603"><ele>713.0</ele><time>2026-03-23T09:19:02Z</time></trkpt><trkpt lat="45.56703642521079" lon="11.041393880121888"><ele>712.5</ele><time>2026-03-23T09:19:03Z</time></trkpt><trkpt lat="45.5669251574626" lon="11.041306803174558"><ele>712.0</ele><time>2026-03-23T09:19:04Z</time></trkpt><trkpt lat="45.56679931175288" lon="11.04124716547778"><ele>711.5</ele><time>2026-03-23T09:19:05Z</time></trkpt><trkpt lat="45.56666916709641" lon="11.041214354933716"><ele>711.0</ele><time>2026-03-23T09:19:06Z</time></trkpt><trkpt lat="45.566535900597344" lon="11.041215967317354"><ele>711.0</ele><time>2026-03-23T09:19:07Z</time></trkpt><trkpt lat="45.566399870035674" lon="11.041210400324092"><ele>711.0</ele><time>2026-03-23T09:19:08Z</time></trkpt><trkpt lat="45.56625854798595" lon="11.04120472390415"><ele>711.0</ele><time>2026-03-23T09:19:09Z</time></trkpt><trkpt lat="45.566114280618514" lon="11.041197290243911"><ele>711.0</ele><time>2026-03-23T09:19:10Z</time></trkpt><trkpt lat="45.56598281801394" lon="11.041190681490745"><ele>708.0</ele><time>2026-03-23T09:19:11Z</time></trkpt><trkpt lat="45.56583972154172" lon="11.041187166470062"><ele>705.0</ele><time>2026-03-23T09:19:12Z</time></trkpt><trkpt lat="45.56569373498417" lon="11.041184204224626"><ele>702.0</ele><time>2026-03-23T09:19:13Z</time></trkpt><trkpt lat="45.56554486411724" lon="11.041186495305013"><ele>699.0</ele><time>2026-03-23T09:19:14Z</time></trkpt><trkpt lat="45.565391867540264" lon="11.041203226953307"><ele>697.0</ele><time>2026-03-23T09:19:15Z</time></trkpt><trkpt lat="45.56524157423189" lon="11.041240422619067"><ele>695.0</ele><time>2026-03-23T09:19:16Z</time></trkpt><trkpt lat="45.56509155122276" lon="11.041282013661199"><ele>693.0</ele><time>2026-03-23T09:19:17Z</time></trkpt><trkpt lat="45.564954611912064" lon="11.041324372910791"><ele>691.0</ele><time>2026-03-23T09:19:18Z</time></trkpt><trkpt lat="45.56481930996417" lon="11.04137104979219"><ele>691.0</ele><time>2026-03-23T09:19:19Z</time></trkpt><trkpt lat="45.56468068230624" lon="11.04141016912117"><ele>691.0</ele><time>2026-03-23T09:19:20Z</time></trkpt><trkpt lat="45.564538155712455" lon="11.041447782124648"><ele>691.0</ele><time>2026-03-23T09:19:21Z</time></trkpt><trkpt lat="45.56439391669299" lon="11.041481365332015"><ele>691.0</ele><time>2026-03-23T09:19:22Z</time></trkpt><trkpt lat="45.56425553452316" lon="11.041527345995762"><ele>687.75</ele><time>2026-03-23T09:19:23Z</time></trkpt><trkpt lat="45.564121458981994" lon="11.041578832896775"><ele>684.5</ele><time>2026-03-23T09:19:24Z</time></trkpt><trkpt lat="45.5639867818409" lon="11.041657714050144"><ele>681.25</ele><time>2026-03-23T09:19:25Z</time></trkpt><trkpt lat="45.56385949508021" lon="11.041775458257092"><ele>678.0</ele><time>2026-03-23T09:19:26Z</time></trkpt><trkpt lat="45.56375342602728" lon="11.0419289585334"><ele>681.0</ele><time>2026-03-23T09:19:27Z</time></trkpt><trkpt lat="45.56363981473328" lon="11.042041140850415"><ele>684.0</ele><time>2026-03-23T09:19:28Z</time></trkpt><trkpt lat="45.56353050840587" lon="11.042138023268672"><ele>687.0</ele><time>2026-03-23T09:19:29Z</time></trkpt><trkpt lat="45.56339518181171" lon="11.042208801477162"><ele>690.0</ele><time>2026-03-23T09:19:30Z</time></trkpt><trkpt lat="45.56324486856096" lon="11.04226118565612"><ele>690.0</ele><time>2026-03-23T09:19:31Z</time></trkpt><trkpt lat="45.5630905180973" lon="11.04223017176005"><ele>690.0</ele><time>2026-03-23T09:19:32Z</time></trkpt><trkpt lat="45.562961166581815" lon="11.042232069016867"><ele>690.0</ele><time>2026-03-23T09:19:33Z</time></trkpt><trkpt lat="45.562818231085174" lon="11.042209140307385"><ele>690.0</ele><time>2026-03-23T09:19:34Z</time></trkpt><trkpt lat="45.562668982562435" lon="11.042193204598904"><ele>690.5</ele><time>2026-03-23T09:19:35Z</time></trkpt><trkpt lat="45.56252321112202" lon="11.042187205775154"><ele>691.0</ele><time>2026-03-23T09:19:36Z</time></trkpt><trkpt lat="45.56238571957583" lon="11.042175367394577"><ele>691.5</ele><time>2026-03-23T09:19:37Z</time></trkpt><trkpt lat="45.562250480694615" lon="11.042177494919262"><ele>692.0</ele><time>2026-03-23T09:19:38Z</time></trkpt><trkpt lat="45.56211126646494" lon="11.04220950947114"><ele>693.5</ele><time>2026-03-23T09:19:39Z</time></trkpt><trkpt lat="45.56198080343262" lon="11.042265237507186"><ele>695.0</ele><time>2026-03-23T09:19:40Z</time></trkpt><trkpt lat="45.56185573229176" lon="11.042347648889484"><ele>696.5</ele><time>2026-03-23T09:19:41Z</time></trkpt><trkpt lat="45.56172946590434" lon="11.042430554105964"><ele>698.0</ele><time>2026-03-23T09:19:42Z</time></trkpt><trkpt lat="45.56160162252048" lon="11.0424662898483"><ele>698.0</ele><time>2026-03-23T09:19:43Z</time></trkpt><trkpt lat="45.5614719408271" lon="11.042466514337764"><ele>698.0</ele><time>2026-03-23T09:19:44Z</time></trkpt><trkpt lat="45.56134548531225" lon="11.042418945607851"><ele>698.0</ele><time>2026-03-23T09:19:45Z</time></trkpt><trkpt lat="45.56121041275404" lon="11.04233605298289"><ele>698.0</ele><time>2026-03-23T09:19:46Z</time></trkpt><trkpt lat="45.561077140966006" lon="11.04224526763136"><ele>690.0</ele><time>2026-03-23T09:19:47Z</time></trkpt><trkpt lat="45.560922722649565" lon="11.042169201291372"><ele>682.0</ele><time>2026-03-23T09:19:48Z</time></trkpt><trkpt lat="45.5607228400142" lon="11.04207636759997"><ele>674.0</ele><time>2026-03-23T09:19:49Z</time></trkpt><trkpt lat="45.56049506534658" lon="11.042005035294714"><ele>677.6666666666666</ele><time>2026-03-23T09:19:50Z</time></trkpt><trkpt lat="45.56027282095906" lon="11.041942965968932"><ele>681.3333333333334</ele><time>2026-03-23T09:19:51Z</time></trkpt><trkpt lat="45.560075723944806" lon="11.04186685915973"><ele>685.0</ele><time>2026-03-23T09:19:52Z</time></trkpt><trkpt lat="45.55989060265921" lon="11.041798026171456"><ele>685.0</ele><time>2026-03-23T09:19:53Z</time></trkpt><trkpt lat="45.55970807414189" lon="11.041678687174276"><ele>685.0</ele><time>2026-03-23T09:19:54Z</time></trkpt><trkpt lat="45.55953142036421" lon="11.041524940787662"><ele>685.0</ele><time>2026-03-23T09:19:55Z</time></trkpt><trkpt lat="45.55935144687657" lon="11.041358367423218"><ele>682.0</ele><time>2026-03-23T09:19:56Z</time></trkpt><trkpt lat="45.55917987030051" lon="11.041205982888549"><ele>679.0</ele><time>2026-03-23T09:19:57Z</time></trkpt><trkpt lat="45.559035804695284" lon="11.041033161217793"><ele>676.0</ele><time>2026-03-23T09:19:58Z</time></trkpt><trkpt lat="45.558930082619355" lon="11.040811365625629"><ele>675.3333333333334</ele><time>2026-03-23T09:19:59Z</time></trkpt><trkpt lat="45.55885079624383" lon="11.040563694729412"><ele>674.6666666666666</ele><time>2026-03-23T09:20:00Z</time></trkpt><trkpt lat="45.55877689848337" lon="11.040326882402269"><ele>674.0</ele><time>2026-03-23T09:20:01Z</time></trkpt><trkpt lat="45.55867193760276" lon="11.040139279247894"><ele>674.0</ele><time>2026-03-23T09:20:02Z</time></trkpt><trkpt lat="45.55853070777244" lon="11.039989395095839"><ele>674.0</ele><time>2026-03-23T09:20:03Z</time></trkpt><trkpt lat="45.55835630304074" lon="11.039877337031152"><ele>674.0</ele><time>2026-03-23T09:20:04Z</time></trkpt><trkpt lat="45.55815402684342" lon="11.039826898575024"><ele>671.3333333333333</ele><time>2026-03-23T09:20:05Z</time></trkpt><trkpt lat="45.55794242448945" lon="11.039804155087996"><ele>668.6666666666666</ele><time>2026-03-23T09:20:06Z</time></trkpt><trkpt lat="45.55775093790688" lon="11.03974343142909"><ele>666.0</ele><time>2026-03-23T09:20:07Z</time></trkpt><trkpt lat="45.557585817430905" lon="11.0396732832024"><ele>666.0</ele><time>2026-03-23T09:20:08Z</time></trkpt><trkpt lat="45.557422831460315" lon="11.03954062821663"><ele>666.0</ele><time>2026-03-23T09:20:09Z</time></trkpt><trkpt lat="45.5572739201251" lon="11.039349055919178"><ele>666.0</ele><time>2026-03-23T09:20:10Z</time></trkpt><trkpt lat="45.557139453718854" lon="11.039126931631342"><ele>661.6666666666666</ele><time>2026-03-23T09:20:11Z</time></trkpt><trkpt lat="45.55703169539383" lon="11.03890762508101"><ele>657.3333333333333</ele><time>2026-03-23T09:20:12Z</time></trkpt><trkpt lat="45.556924998691024" lon="11.038701882167972"><ele>653.0</ele><time>2026-03-23T09:20:13Z</time></trkpt><trkpt lat="45.55681689872695" lon="11.03851751247122"><ele>653.0</ele><time>2026-03-23T09:20:14Z</time></trkpt><trkpt lat="45.55675617366851" lon="11.038354840593763"><ele>653.0</ele><time>2026-03-23T09:20:15Z</time></trkpt><trkpt lat="45.556749197240876" lon="11.038194285406936"><ele>653.0</ele><time>2026-03-23T09:20:16Z</time></trkpt><trkpt lat="45.55679399439813" lon="11.03803657461527"><ele>653.0</ele><time>2026-03-23T09:20:17Z</time></trkpt><trkpt lat="45.55690100743217" lon="11.037908363945716"><ele>651.6666666666666</ele><time>2026-03-23T09:20:18Z</time></trkpt><trkpt lat="45.55703427610224" lon="11.03782516733962"><ele>650.3333333333334</ele><time>2026-03-23T09:20:19Z</time></trkpt><trkpt lat="45.557192975966665" lon="11.037707813832366"><ele>649.0</ele><time>2026-03-23T09:20:20Z</time></trkpt><trkpt lat="45.557374009399865" lon="11.037624915888482"><ele>649.0</ele><time>2026-03-23T09:20:21Z</time></trkpt><trkpt lat="45.557548894953825" lon="11.037606412136778"><ele>649.0</ele><time>2026-03-23T09:20:22Z</time></trkpt><trkpt lat="45.5577102722113" lon="11.037696848155244"><ele>649.0</ele><time>2026-03-23T09:20:23Z</time></trkpt><trkpt lat="45.5578794390791" lon="11.037773041163609"><ele>648.0</ele><time>2026-03-23T09:20:24Z</time></trkpt><trkpt lat="45.55801885142223" lon="11.03787285976633"><ele>647.0</ele><time>2026-03-23T09:20:25Z</time></trkpt><trkpt lat="45.55813571881445" lon="11.03789729748465"><ele>646.0</ele><time>2026-03-23T09:20:26Z</time></trkpt><trkpt lat="45.55823817497413" lon="11.037859993561959"><ele>645.0</ele><time>2026-03-23T09:20:27Z</time></trkpt><trkpt lat="45.55832334342631" lon="11.037757581691304"><ele>645.0</ele><time>2026-03-23T09:20:28Z</time></trkpt><trkpt lat="45.55837299988877" lon="11.037604758944251"><ele>645.0</ele><time>2026-03-23T09:20:29Z</time></trkpt><trkpt lat="45.55837066773336" lon="11.037426594897118"><ele>645.0</ele><time>2026-03-23T09:20:30Z</time></trkpt><trkpt lat="45.5583215696675" lon="11.037254252070536"><ele>645.0</ele><time>2026-03-23T09:20:31Z</time></trkpt><trkpt lat="45.55822034310672" lon="11.037130970439218"><ele>641.6666666666666</ele><time>2026-03-23T09:20:32Z</time></trkpt><trkpt lat="45.55808215935555" lon="11.037061461432458"><ele>638.3333333333333</ele><time>2026-03-23T09:20:33Z</time></trkpt><trkpt lat="45.55790630734586" lon="11.037038377973577"><ele>635.0</ele><time>2026-03-23T09:20:34Z</time></trkpt><trkpt lat="45.55770402522209" lon="11.036998975025632"><ele>635.0</ele><time>2026-03-23T09:20:35Z</time></trkpt><trkpt lat="45.557510527403025" lon="11.036933382240923"><ele>635.0</ele><time>2026-03-23T09:20:36Z</time></trkpt><trkpt lat="45.55733614116339" lon="11.03688064359338"><ele>635.0</ele><time>2026-03-23T09:20:37Z</time></trkpt><trkpt lat="45.55717198159386" lon="11.036826841815962"><ele>635.3333333333333</ele><time>2026-03-23T09:20:38Z</time></trkpt><trkpt lat="45.557030152715484" lon="11.036708301523511"><ele>635.6666666666666</ele><time>2026-03-23T09:20:39Z</time></trkpt><trkpt lat="45.55690220642559" lon="11.036554901146223"><ele>636.0</ele><time>2026-03-23T09:20:40Z</time></trkpt><trkpt lat="45.556758262540676" lon="11.036373549896481"><ele>636.6666666666666</ele><time>2026-03-23T09:20:41Z</time></trkpt><trkpt lat="45.55661941851406" lon="11.036186332651933"><ele>637.3333333333333</ele><time>2026-03-23T09:20:42Z</time></trkpt><trkpt lat="45.55643535051665" lon="11.036082515558094"><ele>638.0</ele><time>2026-03-23T09:20:43Z</time></trkpt><trkpt lat="45.55620982956582" lon="11.036039362651323"><ele>636.0</ele><time>2026-03-23T09:20:44Z</time></trkpt><trkpt lat="45.55595603684723" lon="11.035990681192766"><ele>634.0</ele><time>2026-03-23T09:20:45Z</time></trkpt><trkpt lat="45.555709718300704" lon="11.035909981452365"><ele>634.0</ele><time>2026-03-23T09:20:46Z</time></trkpt><trkpt lat="45.555490619780294" lon="11.035836331491097"><ele>634.0</ele><time>2026-03-23T09:20:47Z</time></trkpt><trkpt lat="45.5552816598661" lon="11.035778605031467"><ele>634.0</ele><time>2026-03-23T09:20:48Z</time></trkpt><trkpt lat="45.55508005655122" lon="11.035723581993876"><ele>632.6666666666667</ele><time>2026-03-23T09:20:49Z</time></trkpt><trkpt lat="45.55489031277169" lon="11.035661033089117"><ele>631.3333333333334</ele><time>2026-03-23T09:20:50Z</time></trkpt><trkpt lat="45.55470604698239" lon="11.035599729785233"><ele>630.0</ele><time>2026-03-23T09:20:51Z</time></trkpt><trkpt lat="45.55450856655407" lon="11.035535178427313"><ele>630.0</ele><time>2026-03-23T09:20:52Z</time></trkpt><trkpt lat="45.55431377231759" lon="11.035430944067484"><ele>630.0</ele><time>2026-03-23T09:20:53Z</time></trkpt><trkpt lat="45.55412663512924" lon="11.03530583791463"><ele>630.0</ele><time>2026-03-23T09:20:54Z</time></trkpt><trkpt lat="45.553941204992746" lon="11.035173160827707"><ele>630.0</ele><time>2026-03-23T09:20:55Z</time></trkpt><trkpt lat="45.55375760133886" lon="11.03502480542139"><ele>630.0</ele><time>2026-03-23T09:20:56Z</time></trkpt><trkpt lat="45.55357937169533" lon="11.034875062190688"><ele>630.0</ele><time>2026-03-23T09:20:57Z</time></trkpt><trkpt lat="45.55340839405663" lon="11.034734969704862"><ele>628.3333333333334</ele><time>2026-03-23T09:20:58Z</time></trkpt><trkpt lat="45.553242661321306" lon="11.034599304899086"><ele>626.6666666666667</ele><time>2026-03-23T09:20:59Z</time></trkpt><trkpt lat="45.55309025654267" lon="11.034480712175197"><ele>625.0</ele><time>2026-03-23T09:21:00Z</time></trkpt><trkpt lat="45.552934625274865" lon="11.03435684808075"><ele>620.3333333333334</ele><time>2026-03-23T09:21:01Z</time></trkpt><trkpt lat="45.552779619124045" lon="11.034214675624998"><ele>615.6666666666666</ele><time>2026-03-23T09:21:02Z</time></trkpt><trkpt lat="45.55265627849705" lon="11.0340435420505"><ele>611.0</ele><time>2026-03-23T09:21:03Z</time></trkpt><trkpt lat="45.552573116402776" lon="11.033848971909975"><ele>609.6666666666666</ele><time>2026-03-23T09:21:04Z</time></trkpt><trkpt lat="45.55254425380085" lon="11.033595554830889"><ele>608.3333333333334</ele><time>2026-03-23T09:21:05Z</time></trkpt><trkpt lat="45.55249702230918" lon="11.03331373179842"><ele>607.0</ele><time>2026-03-23T09:21:06Z</time></trkpt><trkpt lat="45.55248527722595" lon="11.033011660971482"><ele>607.0</ele><time>2026-03-23T09:21:07Z</time></trkpt><trkpt lat="45.55245857994632" lon="11.03270069747074"><ele>607.0</ele><time>2026-03-23T09:21:08Z</time></trkpt><trkpt lat="45.55240676698714" lon="11.032418296347037"><ele>607.0</ele><time>2026-03-23T09:21:09Z</time></trkpt><trkpt lat="45.55231643267056" lon="11.03214412913875"><ele>608.6666666666667</ele><time>2026-03-23T09:21:10Z</time></trkpt><trkpt lat="45.55219291318038" lon="11.031880261933521"><ele>610.3333333333334</ele><time>2026-03-23T09:21:11Z</time></trkpt><trkpt lat="45.55205821219345" lon="11.03163564103605"><ele>612.0</ele><time>2026-03-23T09:21:12Z</time></trkpt><trkpt lat="45.55195152003225" lon="11.031379270459613"><ele>606.6666666666666</ele><time>2026-03-23T09:21:13Z</time></trkpt><trkpt lat="45.55184396365586" lon="11.031147678098948"><ele>601.3333333333333</ele><time>2026-03-23T09:21:14Z</time></trkpt><trkpt lat="45.551777877205176" lon="11.030892861482348"><ele>596.0</ele><time>2026-03-23T09:21:15Z</time></trkpt><trkpt lat="45.55173126820054" lon="11.030641892949342"><ele>596.0</ele><time>2026-03-23T09:21:16Z</time></trkpt><trkpt lat="45.55167829695396" lon="11.030396586703196"><ele>596.0</ele><time>2026-03-23T09:21:17Z</time></trkpt><trkpt lat="45.551623646210096" lon="11.030159287346784"><ele>596.0</ele><time>2026-03-23T09:21:18Z</time></trkpt><trkpt lat="45.5515429034869" lon="11.02994501357976"><ele>595.6666666666666</ele><time>2026-03-23T09:21:19Z</time></trkpt><trkpt lat="45.551424213484296" lon="11.029774624527846"><ele>595.3333333333334</ele><time>2026-03-23T09:21:20Z</time></trkpt><trkpt lat="45.551265185821386" lon="11.029656183394593"><ele>595.0</ele><time>2026-03-23T09:21:21Z</time></trkpt><trkpt lat="45.551085618607516" lon="11.02958457282629"><ele>595.0</ele><time>2026-03-23T09:21:22Z</time></trkpt><trkpt lat="45.55091469836873" lon="11.029535468767078"><ele>595.0</ele><time>2026-03-23T09:21:23Z</time></trkpt><trkpt lat="45.55075710072732" lon="11.029477896185975"><ele>595.0</ele><time>2026-03-23T09:21:24Z</time></trkpt><trkpt lat="45.55061397392992" lon="11.029417334347551"><ele>595.0</ele><time>2026-03-23T09:21:25Z</time></trkpt><trkpt lat="45.55048475680444" lon="11.029354511670762"><ele>595.0</ele><time>2026-03-23T09:21:26Z</time></trkpt><trkpt lat="45.5503732661274" lon="11.02930119193594"><ele>595.0</ele><time>2026-03-23T09:21:27Z</time></trkpt><trkpt lat="45.55028130157771" lon="11.029235156873026"><ele>595.0</ele><time>2026-03-23T09:21:28Z</time></trkpt><trkpt lat="45.550210800838606" lon="11.02915422674667"><ele>595.0</ele><time>2026-03-23T09:21:29Z</time></trkpt><trkpt lat="45.55009049146293" lon="11.029099091065834"><ele>592.0</ele><time>2026-03-23T09:21:31Z</time></trkpt><trkpt lat="45.54995951398742" lon="11.029077486289436"><ele>589.0</ele><time>2026-03-23T09:21:33Z</time></trkpt><trkpt lat="45.54987870417752" lon="11.029038897306037"><ele>586.0</ele><time>2026-03-23T09:21:34Z</time></trkpt><trkpt lat="45.549788074617965" lon="11.028953696677517"><ele>583.0</ele><time>2026-03-23T09:21:35Z</time></trkpt><trkpt lat="45.54968684942878" lon="11.028800678628732"><ele>583.0</ele><time>2026-03-23T09:21:36Z</time></trkpt><trkpt lat="45.54960196451046" lon="11.028636439739614"><ele>583.0</ele><time>2026-03-23T09:21:37Z</time></trkpt><trkpt lat="45.54952395488195" lon="11.028441307296092"><ele>583.0</ele><time>2026-03-23T09:21:38Z</time></trkpt><trkpt lat="45.5494764338107" lon="11.028219705507324"><ele>581.3333333333334</ele><time>2026-03-23T09:21:39Z</time></trkpt><trkpt lat="45.54947211973363" lon="11.027989372146674"><ele>579.6666666666666</ele><time>2026-03-23T09:21:40Z</time></trkpt><trkpt lat="45.54950099198615" lon="11.027751926061315"><ele>578.0</ele><time>2026-03-23T09:21:41Z</time></trkpt><trkpt lat="45.54957299221712" lon="11.027513496097155"><ele>571.0</ele><time>2026-03-23T09:21:42Z</time></trkpt><trkpt lat="45.549674860289706" lon="11.02729638431163"><ele>564.0</ele><time>2026-03-23T09:21:43Z</time></trkpt><trkpt lat="45.549818598130436" lon="11.027126996159376"><ele>557.0</ele><time>2026-03-23T09:21:44Z</time></trkpt><trkpt lat="45.549989886959104" lon="11.026999299597565"><ele>557.0</ele><time>2026-03-23T09:21:45Z</time></trkpt><trkpt lat="45.55015609357166" lon="11.026889026954262"><ele>557.0</ele><time>2026-03-23T09:21:46Z</time></trkpt><trkpt lat="45.550288599365835" lon="11.026784423482004"><ele>557.0</ele><time>2026-03-23T09:21:47Z</time></trkpt><trkpt lat="45.5503972532546" lon="11.026692617967484"><ele>560.0</ele><time>2026-03-23T09:21:48Z</time></trkpt><trkpt lat="45.5504827865922" lon="11.026476517350044"><ele>563.0</ele><time>2026-03-23T09:21:49Z</time></trkpt><trkpt lat="45.550589150742496" lon="11.02627327645484"><ele>566.0</ele><time>2026-03-23T09:21:50Z</time></trkpt><trkpt lat="45.55065105242976" lon="11.02606520461107"><ele>566.0</ele><time>2026-03-23T09:21:51Z</time></trkpt><trkpt lat="45.55065515729044" lon="11.025832746102731"><ele>566.0</ele><time>2026-03-23T09:21:52Z</time></trkpt><trkpt lat="45.55060506747209" lon="11.02558960787416"><ele>566.0</ele><time>2026-03-23T09:21:53Z</time></trkpt><trkpt lat="45.55050654175473" lon="11.02534946153335"><ele>563.3333333333333</ele><time>2026-03-23T09:21:54Z</time></trkpt><trkpt lat="45.550360016376416" lon="11.025139555967185"><ele>560.6666666666666</ele><time>2026-03-23T09:21:55Z</time></trkpt><trkpt lat="45.55016994209554" lon="11.024980819724787"><ele>558.0</ele><time>2026-03-23T09:21:56Z</time></trkpt><trkpt lat="45.54995173202278" lon="11.024834882850488"><ele>558.0</ele><time>2026-03-23T09:21:57Z</time></trkpt><trkpt lat="45.54974386784792" lon="11.024681945729277"><ele>558.0</ele><time>2026-03-23T09:21:58Z</time></trkpt><trkpt lat="45.54956832292023" lon="11.024508814459628"><ele>558.0</ele><time>2026-03-23T09:21:59Z</time></trkpt><trkpt lat="45.549394013595936" lon="11.02436149752985"><ele>550.5</ele><time>2026-03-23T09:22:00Z</time></trkpt><trkpt lat="45.54920147448878" lon="11.02419755159266"><ele>543.0</ele><time>2026-03-23T09:22:01Z</time></trkpt><trkpt lat="45.549022607921025" lon="11.024000922892368"><ele>543.0</ele><time>2026-03-23T09:22:02Z</time></trkpt><trkpt lat="45.54886561505006" lon="11.023812352109724"><ele>543.0</ele><time>2026-03-23T09:22:03Z</time></trkpt><trkpt lat="45.54870597920145" lon="11.023654022522662"><ele>543.0</ele><time>2026-03-23T09:22:04Z</time></trkpt><trkpt lat="45.548543227093816" lon="11.02351804990534"><ele>539.3333333333334</ele><time>2026-03-23T09:22:05Z</time></trkpt><trkpt lat="45.54835035480663" lon="11.023433343862324"><ele>535.6666666666667</ele><time>2026-03-23T09:22:06Z</time></trkpt><trkpt lat="45.54811843475768" lon="11.023420655975947"><ele>532.0</ele><time>2026-03-23T09:22:07Z</time></trkpt><trkpt lat="45.54786802738133" lon="11.023493491355412"><ele>528.0</ele><time>2026-03-23T09:22:08Z</time></trkpt><trkpt lat="45.547617523895134" lon="11.023594628539717"><ele>524.0</ele><time>2026-03-23T09:22:09Z</time></trkpt><trkpt lat="45.547407459301944" lon="11.023625601899859"><ele>524.0</ele><time>2026-03-23T09:22:10Z</time></trkpt><trkpt lat="45.54720913534316" lon="11.023557192435764"><ele>524.0</ele><time>2026-03-23T09:22:11Z</time></trkpt><trkpt lat="45.54698788723107" lon="11.023452620962086"><ele>524.0</ele><time>2026-03-23T09:22:12Z</time></trkpt><trkpt lat="45.5467303798602" lon="11.023312704518986"><ele>522.5</ele><time>2026-03-23T09:22:13Z</time></trkpt><trkpt lat="45.546440760666385" lon="11.023147268992314"><ele>521.0</ele><time>2026-03-23T09:22:14Z</time></trkpt><trkpt lat="45.546180353977036" lon="11.023021388706287"><ele>514.0</ele><time>2026-03-23T09:22:15Z</time></trkpt><trkpt lat="45.5459391086175" lon="11.022888693813785"><ele>507.0</ele><time>2026-03-23T09:22:16Z</time></trkpt><trkpt lat="45.545714439098944" lon="11.022735901622125"><ele>507.0</ele><time>2026-03-23T09:22:17Z</time></trkpt><trkpt lat="45.54548779890462" lon="11.022631910686046"><ele>507.0</ele><time>2026-03-23T09:22:18Z</time></trkpt><trkpt lat="45.545278230800385" lon="11.022509000308602"><ele>504.66666666666663</ele><time>2026-03-23T09:22:19Z</time></trkpt><trkpt lat="45.54508267276093" lon="11.022377927421775"><ele>502.3333333333333</ele><time>2026-03-23T09:22:20Z</time></trkpt><trkpt lat="45.54489584983398" lon="11.022269268555135"><ele>500.0</ele><time>2026-03-23T09:22:21Z</time></trkpt><trkpt lat="45.54472132835685" lon="11.022149430661594"><ele>500.0</ele><time>2026-03-23T09:22:22Z</time></trkpt><trkpt lat="45.5445614746587" lon="11.022016618140896"><ele>500.0</ele><time>2026-03-23T09:22:23Z</time></trkpt><trkpt lat="45.54442318753463" lon="11.021859573674185"><ele>500.0</ele><time>2026-03-23T09:22:24Z</time></trkpt><trkpt lat="45.54430623511851" lon="11.021674587626597"><ele>495.3333333333333</ele><time>2026-03-23T09:22:25Z</time></trkpt><trkpt lat="45.54415889860545" lon="11.021479892958592"><ele>490.66666666666663</ele><time>2026-03-23T09:22:26Z</time></trkpt><trkpt lat="45.544046844550074" lon="11.021231374655654"><ele>486.0</ele><time>2026-03-23T09:22:27Z</time></trkpt><trkpt lat="45.54392691897581" lon="11.020947120223187"><ele>486.66666666666663</ele><time>2026-03-23T09:22:28Z</time></trkpt><trkpt lat="45.543811315492256" lon="11.0206587012678"><ele>487.3333333333333</ele><time>2026-03-23T09:22:29Z</time></trkpt><trkpt lat="45.54369667981384" lon="11.020405632812341"><ele>488.0</ele><time>2026-03-23T09:22:30Z</time></trkpt><trkpt lat="45.5435791702628" lon="11.020155632427572"><ele>483.0</ele><time>2026-03-23T09:22:31Z</time></trkpt><trkpt lat="45.543459804356345" lon="11.019892942600825"><ele>478.0</ele><time>2026-03-23T09:22:32Z</time></trkpt><trkpt lat="45.54336136575883" lon="11.019631966405235"><ele>473.0</ele><time>2026-03-23T09:22:33Z</time></trkpt><trkpt lat="45.543289530898726" lon="11.019357385520877"><ele>472.0</ele><time>2026-03-23T09:22:34Z</time></trkpt><trkpt lat="45.543248693356716" lon="11.019052570064115"><ele>471.0</ele><time>2026-03-23T09:22:35Z</time></trkpt><trkpt lat="45.54322055334395" lon="11.018738144351493"><ele>470.0</ele><time>2026-03-23T09:22:36Z</time></trkpt><trkpt lat="45.543171322831725" lon="11.018425828040465"><ele>471.66666666666663</ele><time>2026-03-23T09:22:37Z</time></trkpt><trkpt lat="45.54309477414912" lon="11.018141284796096"><ele>473.33333333333337</ele><time>2026-03-23T09:22:38Z</time></trkpt><trkpt lat="45.54299404863901" lon="11.017876683865413"><ele>475.0</ele><time>2026-03-23T09:22:39Z</time></trkpt><trkpt lat="45.542865778957456" lon="11.017617881659858"><ele>469.5</ele><time>2026-03-23T09:22:40Z</time></trkpt><trkpt lat="45.542708136204666" lon="11.017383965154092"><ele>464.0</ele><time>2026-03-23T09:22:41Z</time></trkpt><trkpt lat="45.54252416026675" lon="11.017179524546247"><ele>464.0</ele><time>2026-03-23T09:22:42Z</time></trkpt><trkpt lat="45.54231050754772" lon="11.017012141178668"><ele>464.0</ele><time>2026-03-23T09:22:43Z</time></trkpt><trkpt lat="45.542075748623034" lon="11.016868982232715"><ele>461.3333333333333</ele><time>2026-03-23T09:22:44Z</time></trkpt><trkpt lat="45.54186153712785" lon="11.016755312832835"><ele>458.66666666666663</ele><time>2026-03-23T09:22:45Z</time></trkpt><trkpt lat="45.54169154635826" lon="11.016598755241416"><ele>456.0</ele><time>2026-03-23T09:22:46Z</time></trkpt><trkpt lat="45.541528529045806" lon="11.016433571771932"><ele>456.0</ele><time>2026-03-23T09:22:47Z</time></trkpt><trkpt lat="45.54135989811098" lon="11.016245909420133"><ele>456.0</ele><time>2026-03-23T09:22:48Z</time></trkpt><trkpt lat="45.54120760445341" lon="11.015990625840418"><ele>456.0</ele><time>2026-03-23T09:22:49Z</time></trkpt><trkpt lat="45.54106024036372" lon="11.015723509913174"><ele>448.0</ele><time>2026-03-23T09:22:50Z</time></trkpt><trkpt lat="45.54090697501782" lon="11.01544643513713"><ele>440.0</ele><time>2026-03-23T09:22:51Z</time></trkpt><trkpt lat="45.54075584918116" lon="11.01518566155073"><ele>441.5</ele><time>2026-03-23T09:22:52Z</time></trkpt><trkpt lat="45.540605622772965" lon="11.014932709762084"><ele>443.0</ele><time>2026-03-23T09:22:53Z</time></trkpt><trkpt lat="45.54045612222013" lon="11.014675760620294"><ele>435.0</ele><time>2026-03-23T09:22:54Z</time></trkpt><trkpt lat="45.54029942317107" lon="11.014411820949919"><ele>427.0</ele><time>2026-03-23T09:22:55Z</time></trkpt><trkpt lat="45.54014898339899" lon="11.014142449838689"><ele>427.0</ele><time>2026-03-23T09:22:56Z</time></trkpt><trkpt lat="45.53999478781807" lon="11.013884876956666"><ele>427.0</ele><time>2026-03-23T09:22:57Z</time></trkpt><trkpt lat="45.53984166588614" lon="11.01362695353881"><ele>427.0</ele><time>2026-03-23T09:22:58Z</time></trkpt><trkpt lat="45.539688352555736" lon="11.013365775776599"><ele>427.0</ele><time>2026-03-23T09:22:59Z</time></trkpt><trkpt lat="45.53952771283854" lon="11.01311208695894"><ele>420.0</ele><time>2026-03-23T09:23:00Z</time></trkpt><trkpt lat="45.53934937755683" lon="11.0128777311845"><ele>413.0</ele><time>2026-03-23T09:23:01Z</time></trkpt><trkpt lat="45.53918619924957" lon="11.012633022255462"><ele>417.0</ele><time>2026-03-23T09:23:02Z</time></trkpt><trkpt lat="45.53896322098468" lon="11.012462782532337"><ele>421.0</ele><time>2026-03-23T09:23:03Z</time></trkpt><trkpt lat="45.538759002547444" lon="11.012283786039406"><ele>416.33333333333337</ele><time>2026-03-23T09:23:04Z</time></trkpt><trkpt lat="45.53855701867082" lon="11.012133036432052"><ele>411.66666666666663</ele><time>2026-03-23T09:23:05Z</time></trkpt><trkpt lat="45.53836058422544" lon="11.011988410821715"><ele>407.0</ele><time>2026-03-23T09:23:06Z</time></trkpt><trkpt lat="45.53818045670704" lon="11.01184092691823"><ele>407.0</ele><time>2026-03-23T09:23:07Z</time></trkpt><trkpt lat="45.538008756329816" lon="11.01170165382956"><ele>407.0</ele><time>2026-03-23T09:23:08Z</time></trkpt><trkpt lat="45.53786106840386" lon="11.011546244827379"><ele>407.0</ele><time>2026-03-23T09:23:09Z</time></trkpt><trkpt lat="45.53775530021284" lon="11.01133910575509"><ele>400.0</ele><time>2026-03-23T09:23:10Z</time></trkpt><trkpt lat="45.537677182030926" lon="11.01108368034784"><ele>393.0</ele><time>2026-03-23T09:23:11Z</time></trkpt><trkpt lat="45.53763561111576" lon="11.0108055534075"><ele>386.0</ele><time>2026-03-23T09:23:12Z</time></trkpt><trkpt lat="45.53764275940737" lon="11.01053959740307"><ele>383.3333333333333</ele><time>2026-03-23T09:23:13Z</time></trkpt><trkpt lat="45.53768257730009" lon="11.010276377401865"><ele>380.66666666666663</ele><time>2026-03-23T09:23:14Z</time></trkpt><trkpt lat="45.537760829852246" lon="11.010044377320709"><ele>378.0</ele><time>2026-03-23T09:23:15Z</time></trkpt><trkpt lat="45.53787304651114" lon="11.009849957354897"><ele>376.6666666666667</ele><time>2026-03-23T09:23:16Z</time></trkpt><trkpt lat="45.53803077352461" lon="11.009679629930295"><ele>375.33333333333337</ele><time>2026-03-23T09:23:17Z</time></trkpt><trkpt lat="45.538208800150436" lon="11.009549727917472"><ele>374.0</ele><time>2026-03-23T09:23:18Z</time></trkpt><trkpt lat="45.538399965802455" lon="11.009498860802546"><ele>374.0</ele><time>2026-03-23T09:23:19Z</time></trkpt><trkpt lat="45.53859600096957" lon="11.009508849010157"><ele>374.0</ele><time>2026-03-23T09:23:20Z</time></trkpt><trkpt lat="45.53880672610197" lon="11.00956911329365"><ele>374.0</ele><time>2026-03-23T09:23:21Z</time></trkpt><trkpt lat="45.53906342935843" lon="11.009681828277225"><ele>369.0</ele><time>2026-03-23T09:23:22Z</time></trkpt><trkpt lat="45.53930851278766" lon="11.009782142167731"><ele>364.0</ele><time>2026-03-23T09:23:23Z</time></trkpt><trkpt lat="45.539523154348494" lon="11.009841929125129"><ele>363.3333333333333</ele><time>2026-03-23T09:23:24Z</time></trkpt><trkpt lat="45.539722763305775" lon="11.009834215458083"><ele>362.6666666666667</ele><time>2026-03-23T09:23:25Z</time></trkpt><trkpt lat="45.539920592574994" lon="11.009758767818512"><ele>362.0</ele><time>2026-03-23T09:23:26Z</time></trkpt><trkpt lat="45.54009727357273" lon="11.009612614859"><ele>362.0</ele><time>2026-03-23T09:23:27Z</time></trkpt><trkpt lat="45.54026584358015" lon="11.00940598742912"><ele>362.0</ele><time>2026-03-23T09:23:28Z</time></trkpt><trkpt lat="45.540420058564045" lon="11.009143691975094"><ele>358.0</ele><time>2026-03-23T09:23:29Z</time></trkpt><trkpt lat="45.54056478102646" lon="11.008922210551974"><ele>354.0</ele><time>2026-03-23T09:23:30Z</time></trkpt><trkpt lat="45.54074063875727" lon="11.008777593839989"><ele>350.0</ele><time>2026-03-23T09:23:31Z</time></trkpt><trkpt lat="45.54094200384363" lon="11.008668643669175"><ele>350.0</ele><time>2026-03-23T09:23:32Z</time></trkpt><trkpt lat="45.54118513951502" lon="11.008595831434242"><ele>350.0</ele><time>2026-03-23T09:23:33Z</time></trkpt><trkpt lat="45.54141652899204" lon="11.008521172935678"><ele>349.0</ele><time>2026-03-23T09:23:34Z</time></trkpt><trkpt lat="45.541629673727755" lon="11.008456309026347"><ele>348.0</ele><time>2026-03-23T09:23:35Z</time></trkpt><trkpt lat="45.54182958863253" lon="11.008402462736099"><ele>347.0</ele><time>2026-03-23T09:23:36Z</time></trkpt><trkpt lat="45.542028882571294" lon="11.008380758616836"><ele>343.6666666666667</ele><time>2026-03-23T09:23:37Z</time></trkpt><trkpt lat="45.54224525091434" lon="11.008396171824852"><ele>340.3333333333333</ele><time>2026-03-23T09:23:38Z</time></trkpt><trkpt lat="45.542465059146714" lon="11.008448246837451"><ele>337.0</ele><time>2026-03-23T09:23:39Z</time></trkpt><trkpt lat="45.542669470315616" lon="11.008525737199554"><ele>337.0</ele><time>2026-03-23T09:23:40Z</time></trkpt><trkpt lat="45.542860410389714" lon="11.008646770100974"><ele>337.0</ele><time>2026-03-23T09:23:41Z</time></trkpt><trkpt lat="45.54304559771738" lon="11.008818260778568"><ele>337.0</ele><time>2026-03-23T09:23:42Z</time></trkpt><trkpt lat="45.543210910828165" lon="11.009019555702077"><ele>335.66666666666663</ele><time>2026-03-23T09:23:43Z</time></trkpt><trkpt lat="45.543358085808876" lon="11.00921440756015"><ele>334.3333333333333</ele><time>2026-03-23T09:23:44Z</time></trkpt><trkpt lat="45.54348828387049" lon="11.009429153830798"><ele>333.0</ele><time>2026-03-23T09:23:45Z</time></trkpt><trkpt lat="45.543606510726235" lon="11.009634669167296"><ele>336.0</ele><time>2026-03-23T09:23:46Z</time></trkpt><trkpt lat="45.543720828290525" lon="11.009813703579312"><ele>339.0</ele><time>2026-03-23T09:23:47Z</time></trkpt><trkpt lat="45.543839851400335" lon="11.009949126610207"><ele>342.0</ele><time>2026-03-23T09:23:48Z</time></trkpt><trkpt lat="45.543985659974254" lon="11.010034427457814"><ele>342.0</ele><time>2026-03-23T09:23:49Z</time></trkpt><trkpt lat="45.54415352913053" lon="11.010058811802635"><ele>342.0</ele><time>2026-03-23T09:23:50Z</time></trkpt><trkpt lat="45.54431675699912" lon="11.010008411946643"><ele>342.0</ele><time>2026-03-23T09:23:51Z</time></trkpt><trkpt lat="45.54447446201159" lon="11.009896197806071"><ele>340.6666666666667</ele><time>2026-03-23T09:23:52Z</time></trkpt><trkpt lat="45.54461242659833" lon="11.009717595436314"><ele>339.33333333333337</ele><time>2026-03-23T09:23:53Z</time></trkpt><trkpt lat="45.54471545446945" lon="11.009480311734434"><ele>338.0</ele><time>2026-03-23T09:23:54Z</time></trkpt><trkpt lat="45.5447863939819" lon="11.009188942551711"><ele>328.0</ele><time>2026-03-23T09:23:55Z</time></trkpt><trkpt lat="45.54484091486461" lon="11.00884654207762"><ele>318.0</ele><time>2026-03-23T09:23:56Z</time></trkpt><trkpt lat="45.54491752811602" lon="11.008506165830823"><ele>312.6666666666667</ele><time>2026-03-23T09:23:57Z</time></trkpt><trkpt lat="45.54498740566632" lon="11.008217128118252"><ele>307.33333333333337</ele><time>2026-03-23T09:23:58Z</time></trkpt><trkpt lat="45.54504727791662" lon="11.007968174480139"><ele>302.0</ele><time>2026-03-23T09:23:59Z</time></trkpt><trkpt lat="45.54510649861452" lon="11.00772915190993"><ele>302.0</ele><time>2026-03-23T09:24:00Z</time></trkpt><trkpt lat="45.54519286490226" lon="11.007511638867346"><ele>302.0</ele><time>2026-03-23T09:24:01Z</time></trkpt><trkpt lat="45.54531961588168" lon="11.007305836923752"><ele>302.0</ele><time>2026-03-23T09:24:02Z</time></trkpt><trkpt lat="45.54548308111756" lon="11.007131275768993"><ele>301.0</ele><time>2026-03-23T09:24:03Z</time></trkpt><trkpt lat="45.54568186225766" lon="11.00697879498645"><ele>300.0</ele><time>2026-03-23T09:24:04Z</time></trkpt><trkpt lat="45.545922107944435" lon="11.006812594150876"><ele>291.0</ele><time>2026-03-23T09:24:05Z</time></trkpt><trkpt lat="45.5461407012336" lon="11.006648709787715"><ele>282.0</ele><time>2026-03-23T09:24:06Z</time></trkpt><trkpt lat="45.54633776783601" lon="11.00648892893589"><ele>282.0</ele><time>2026-03-23T09:24:07Z</time></trkpt><trkpt lat="45.5465221839393" lon="11.00633051814886"><ele>282.0</ele><time>2026-03-23T09:24:08Z</time></trkpt><trkpt lat="45.54670236406837" lon="11.006182210331412"><ele>282.0</ele><time>2026-03-23T09:24:09Z</time></trkpt><trkpt lat="45.54687810526636" lon="11.006044224828447"><ele>276.0</ele><time>2026-03-23T09:24:10Z</time></trkpt><trkpt lat="45.54705054293455" lon="11.005917914761921"><ele>270.0</ele><time>2026-03-23T09:24:11Z</time></trkpt><trkpt lat="45.54721462514012" lon="11.005786362736869"><ele>264.0</ele><time>2026-03-23T09:24:12Z</time></trkpt><trkpt lat="45.54738136625222" lon="11.005642328453487"><ele>264.0</ele><time>2026-03-23T09:24:13Z</time></trkpt><trkpt lat="45.54755762041327" lon="11.005508567542417"><ele>264.0</ele><time>2026-03-23T09:24:14Z</time></trkpt><trkpt lat="45.547731868776566" lon="11.0054069988654"><ele>264.0</ele><time>2026-03-23T09:24:15Z</time></trkpt><trkpt lat="45.547916133804165" lon="11.005322409200806"><ele>266.0</ele><time>2026-03-23T09:24:16Z</time></trkpt><trkpt lat="45.54810726145515" lon="11.005252936087285"><ele>268.0</ele><time>2026-03-23T09:24:17Z</time></trkpt><trkpt lat="45.54829441153162" lon="11.005200821770709"><ele>270.0</ele><time>2026-03-23T09:24:18Z</time></trkpt><trkpt lat="45.548478542238534" lon="11.005152203839229"><ele>270.0</ele><time>2026-03-23T09:24:19Z</time></trkpt><trkpt lat="45.54865277659235" lon="11.005104552511474"><ele>270.0</ele><time>2026-03-23T09:24:20Z</time></trkpt><trkpt lat="45.54882778938507" lon="11.00507833430564"><ele>270.0</ele><time>2026-03-23T09:24:21Z</time></trkpt><trkpt lat="45.548998419076014" lon="11.005078999636478"><ele>269.0</ele><time>2026-03-23T09:24:22Z</time></trkpt><trkpt lat="45.549180026097694" lon="11.005119044972156"><ele>268.0</ele><time>2026-03-23T09:24:23Z</time></trkpt><trkpt lat="45.54937449282521" lon="11.005178778230373"><ele>267.0</ele><time>2026-03-23T09:24:24Z</time></trkpt><trkpt lat="45.54957907016995" lon="11.005245099733648"><ele>263.3333333333333</ele><time>2026-03-23T09:24:25Z</time></trkpt><trkpt lat="45.54977229470188" lon="11.005289709797804"><ele>259.66666666666663</ele><time>2026-03-23T09:24:26Z</time></trkpt><trkpt lat="45.54995190367273" lon="11.005337424762104"><ele>256.0</ele><time>2026-03-23T09:24:27Z</time></trkpt><trkpt lat="45.55012570239867" lon="11.005388159556734"><ele>256.0</ele><time>2026-03-23T09:24:28Z</time></trkpt><trkpt lat="45.55030976986614" lon="11.005431078856494"><ele>256.0</ele><time>2026-03-23T09:24:29Z</time></trkpt><trkpt lat="45.55049116773382" lon="11.005475986049687"><ele>256.0</ele><time>2026-03-23T09:24:30Z</time></trkpt><trkpt lat="45.550653678982854" lon="11.00552123133499"><ele>254.33333333333331</ele><time>2026-03-23T09:24:31Z</time></trkpt><trkpt lat="45.55081096533114" lon="11.005561420419083"><ele>252.66666666666669</ele><time>2026-03-23T09:24:32Z</time></trkpt><trkpt lat="45.550968957272914" lon="11.00558368160093"><ele>251.0</ele><time>2026-03-23T09:24:33Z</time></trkpt><trkpt lat="45.551135032486826" lon="11.005547219293186"><ele>252.33333333333334</ele><time>2026-03-23T09:24:34Z</time></trkpt><trkpt lat="45.551298386566415" lon="11.005457755980572"><ele>253.66666666666669</ele><time>2026-03-23T09:24:35Z</time></trkpt><trkpt lat="45.55143053382222" lon="11.005337974133859"><ele>255.0</ele><time>2026-03-23T09:24:36Z</time></trkpt><trkpt lat="45.551545761736" lon="11.005175837239722"><ele>253.33333333333331</ele><time>2026-03-23T09:24:37Z</time></trkpt><trkpt lat="45.551644897157715" lon="11.004984431086433"><ele>251.66666666666666</ele><time>2026-03-23T09:24:38Z</time></trkpt><trkpt lat="45.551713040304016" lon="11.004782494117356"><ele>250.0</ele><time>2026-03-23T09:24:39Z</time></trkpt><trkpt lat="45.55173963382151" lon="11.00457373518649"><ele>250.0</ele><time>2026-03-23T09:24:40Z</time></trkpt><trkpt lat="45.5517463632388" lon="11.00434243104037"><ele>250.0</ele><time>2026-03-23T09:24:41Z</time></trkpt><trkpt lat="45.55172208540147" lon="11.004119729374331"><ele>250.0</ele><time>2026-03-23T09:24:42Z</time></trkpt><trkpt lat="45.55167048430442" lon="11.00389630871321"><ele>250.33333333333331</ele><time>2026-03-23T09:24:43Z</time></trkpt><trkpt lat="45.55159264190413" lon="11.003683025988325"><ele>250.66666666666669</ele><time>2026-03-23T09:24:44Z</time></trkpt><trkpt lat="45.55148735713143" lon="11.003506054397478"><ele>251.0</ele><time>2026-03-23T09:24:45Z</time></trkpt><trkpt lat="45.55136351679435" lon="11.00336333395284"><ele>249.66666666666669</ele><time>2026-03-23T09:24:46Z</time></trkpt><trkpt lat="45.55122089119976" lon="11.003263509489392"><ele>248.33333333333331</ele><time>2026-03-23T09:24:47Z</time></trkpt><trkpt lat="45.551059275959936" lon="11.003203004862904"><ele>247.0</ele><time>2026-03-23T09:24:48Z</time></trkpt><trkpt lat="45.55088977229889" lon="11.00319072742152"><ele>246.66666666666666</ele><time>2026-03-23T09:24:49Z</time></trkpt><trkpt lat="45.55071740358679" lon="11.003210882697134"><ele>246.33333333333331</ele><time>2026-03-23T09:24:50Z</time></trkpt><trkpt lat="45.550547135265944" lon="11.00326008946313"><ele>246.0</ele><time>2026-03-23T09:24:51Z</time></trkpt><trkpt lat="45.550389914179696" lon="11.003294619677591"><ele>245.33333333333331</ele><time>2026-03-23T09:24:52Z</time></trkpt><trkpt lat="45.55023638146375" lon="11.003341616441995"><ele>244.66666666666666</ele><time>2026-03-23T09:24:53Z</time></trkpt><trkpt lat="45.550078131837395" lon="11.003387275636308"><ele>244.0</ele><time>2026-03-23T09:24:54Z</time></trkpt><trkpt lat="45.54991379149726" lon="11.00343296462373"><ele>244.0</ele><time>2026-03-23T09:24:55Z</time></trkpt><trkpt lat="45.54976653925448" lon="11.003495565766508"><ele>244.0</ele><time>2026-03-23T09:24:56Z</time></trkpt><trkpt lat="45.549583074997905" lon="11.003518190435086"><ele>244.0</ele><time>2026-03-23T09:24:57Z</time></trkpt><trkpt lat="45.5494179849041" lon="11.003568770142472"><ele>243.33333333333331</ele><time>2026-03-23T09:24:58Z</time></trkpt><trkpt lat="45.5492521817815" lon="11.003611978353794"><ele>242.66666666666669</ele><time>2026-03-23T09:24:59Z</time></trkpt><trkpt lat="45.54909721243875" lon="11.003647473198859"><ele>242.0</ele><time>2026-03-23T09:25:00Z</time></trkpt><trkpt lat="45.54895567728152" lon="11.003670593639063"><ele>242.0</ele><time>2026-03-23T09:25:01Z</time></trkpt><trkpt lat="45.5488181243206" lon="11.003689437540721"><ele>242.0</ele><time>2026-03-23T09:25:02Z</time></trkpt><trkpt lat="45.548708025599524" lon="11.00372337354513"><ele>242.0</ele><time>2026-03-23T09:25:03Z</time></trkpt><trkpt lat="45.548608206637184" lon="11.003761252210566"><ele>242.0</ele><time>2026-03-23T09:25:04Z</time></trkpt><trkpt lat="45.54851287910717" lon="11.00378929247568"><ele>241.6</ele><time>2026-03-23T09:25:05Z</time></trkpt><trkpt lat="45.54841175287482" lon="11.003787389340673"><ele>241.2</ele><time>2026-03-23T09:25:06Z</time></trkpt><trkpt lat="45.548310241614594" lon="11.003738092591577"><ele>240.8</ele><time>2026-03-23T09:25:07Z</time></trkpt><trkpt lat="45.54821152385404" lon="11.003720723211936"><ele>240.4</ele><time>2026-03-23T09:25:08Z</time></trkpt><trkpt lat="45.548104356121584" lon="11.003759803418353"><ele>240.0</ele><time>2026-03-23T09:25:09Z</time></trkpt><trkpt lat="45.547977006809155" lon="11.003796639089357"><ele>239.75</ele><time>2026-03-23T09:25:10Z</time></trkpt><trkpt lat="45.54782764029037" lon="11.003784067636035"><ele>239.5</ele><time>2026-03-23T09:25:11Z</time></trkpt><trkpt lat="45.547680209285446" lon="11.003794271723642"><ele>239.25</ele><time>2026-03-23T09:25:12Z</time></trkpt><trkpt lat="45.54753095232431" lon="11.003806081230788"><ele>239.0</ele><time>2026-03-23T09:25:13Z</time></trkpt><trkpt lat="45.54740194902028" lon="11.003809052248943"><ele>239.0</ele><time>2026-03-23T09:25:14Z</time></trkpt><trkpt lat="45.547280592854456" lon="11.003808414428491"><ele>239.0</ele><time>2026-03-23T09:25:15Z</time></trkpt><trkpt lat="45.547153587933245" lon="11.003808905817111"><ele>239.0</ele><time>2026-03-23T09:25:16Z</time></trkpt><trkpt lat="45.54702265940245" lon="11.003781260547893"><ele>239.0</ele><time>2026-03-23T09:25:17Z</time></trkpt><trkpt lat="45.54687724445644" lon="11.003736117902159"><ele>238.33333333333334</ele><time>2026-03-23T09:25:18Z</time></trkpt><trkpt lat="45.546737367791614" lon="11.003647427135025"><ele>237.66666666666669</ele><time>2026-03-23T09:25:19Z</time></trkpt><trkpt lat="45.54659389036827" lon="11.003563126564021"><ele>237.0</ele><time>2026-03-23T09:25:20Z</time></trkpt><trkpt lat="45.54645642881395" lon="11.003468398318983"><ele>237.0</ele><time>2026-03-23T09:25:21Z</time></trkpt><trkpt lat="45.54632476295323" lon="11.003369513358683"><ele>237.0</ele><time>2026-03-23T09:25:22Z</time></trkpt><trkpt lat="45.54620359294363" lon="11.003292203507694"><ele>237.0</ele><time>2026-03-23T09:25:23Z</time></trkpt><trkpt lat="45.546095154840614" lon="11.00320554085703"><ele>237.0</ele><time>2026-03-23T09:25:24Z</time></trkpt><trkpt lat="45.54599530205219" lon="11.00312401594826"><ele>236.6</ele><time>2026-03-23T09:25:25Z</time></trkpt><trkpt lat="45.54589840869693" lon="11.003042009612443"><ele>236.2</ele><time>2026-03-23T09:25:26Z</time></trkpt><trkpt lat="45.545804892899184" lon="11.002965578309702"><ele>235.8</ele><time>2026-03-23T09:25:27Z</time></trkpt><trkpt lat="45.545710327319256" lon="11.00288882551834"><ele>235.4</ele><time>2026-03-23T09:25:28Z</time></trkpt><trkpt lat="45.54560805460379" lon="11.002803080471734"><ele>235.0</ele><time>2026-03-23T09:25:29Z</time></trkpt><trkpt lat="45.54549844494302" lon="11.002720510446718"><ele>234.75</ele><time>2026-03-23T09:25:30Z</time></trkpt><trkpt lat="45.54537318134378" lon="11.00267201646439"><ele>234.5</ele><time>2026-03-23T09:25:31Z</time></trkpt><trkpt lat="45.54524173463802" lon="11.002650987213658"><ele>234.25</ele><time>2026-03-23T09:25:32Z</time></trkpt><trkpt lat="45.545120888767514" lon="11.002657075082215"><ele>234.0</ele><time>2026-03-23T09:25:33Z</time></trkpt><trkpt lat="45.54500055177503" lon="11.00269634483034"><ele>234.0</ele><time>2026-03-23T09:25:34Z</time></trkpt><trkpt lat="45.54489735818974" lon="11.00270908095984"><ele>233.99999999999997</ele><time>2026-03-23T09:25:35Z</time></trkpt><trkpt lat="45.54481197336527" lon="11.002720240485742"><ele>233.99999999999997</ele><time>2026-03-23T09:25:36Z</time></trkpt><trkpt lat="45.54471895401371" lon="11.002742801809648"><ele>234.0</ele><time>2026-03-23T09:25:38Z</time></trkpt><trkpt lat="45.54462267741209" lon="11.002783814885678"><ele>234.0</ele><time>2026-03-23T09:25:41Z</time></trkpt><trkpt lat="45.5445833915483" lon="11.00293888054967"><ele>234.0</ele><time>2026-03-23T09:25:43Z</time></trkpt><trkpt lat="45.54475499792771" lon="11.002999812080947"><ele>234.0</ele><time>2026-03-23T09:25:47Z</time></trkpt></trkseg></trk></gpx>